<?xml version="1.0" encoding="UTF-8" standalone="no" ?>
<gpx xmlns="http://www.topografix.com/GPX/1/1" xmlns:xsi="http://www.w3.org/2001/XMLSchema-instance" xsi:schemaLocation="http://www.topografix.com/GPX/1/1 http://www.topografix.com/GPX/1/1/gpx.xsd" version="1.1" creator="VisuGPX - https://www.visugpx.com">
  <metadata>
    <name>Course à pied le matin</name>
  </metadata>
  <trk>
    <name><![CDATA[Course à pied le matin_1]]></name>
    <trkseg>
      <trkpt lat="43.64738" lon="1.37644">
        <ele>137</ele>
        <time>2023-07-14T08:48:04Z</time>
      </trkpt>
      <trkpt lat="43.64738" lon="1.37644">
        <ele>137</ele>
        <time>2023-07-14T08:48:05Z</time>
      </trkpt>
      <trkpt lat="43.6474" lon="1.37641">
        <ele>137</ele>
        <time>2023-07-14T08:48:06Z</time>
      </trkpt>
      <trkpt lat="43.64742" lon="1.37639">
        <ele>137</ele>
        <time>2023-07-14T08:48:07Z</time>
      </trkpt>
      <trkpt lat="43.64744" lon="1.37637">
        <ele>136</ele>
        <time>2023-07-14T08:48:08Z</time>
      </trkpt>
      <trkpt lat="43.64744" lon="1.37637">
        <ele>136</ele>
        <time>2023-07-14T08:48:09Z</time>
      </trkpt>
      <trkpt lat="43.64748" lon="1.37634">
        <ele>136</ele>
        <time>2023-07-14T08:48:10Z</time>
      </trkpt>
      <trkpt lat="43.6475" lon="1.37632">
        <ele>136</ele>
        <time>2023-07-14T08:48:11Z</time>
      </trkpt>
      <trkpt lat="43.6475" lon="1.37632">
        <ele>137</ele>
        <time>2023-07-14T08:48:12Z</time>
      </trkpt>
      <trkpt lat="43.64752" lon="1.3763">
        <ele>137</ele>
        <time>2023-07-14T08:48:13Z</time>
      </trkpt>
      <trkpt lat="43.64754" lon="1.37628">
        <ele>137</ele>
        <time>2023-07-14T08:48:14Z</time>
      </trkpt>
      <trkpt lat="43.64756" lon="1.37626">
        <ele>137</ele>
        <time>2023-07-14T08:48:15Z</time>
      </trkpt>
      <trkpt lat="43.64758" lon="1.37624">
        <ele>137</ele>
        <time>2023-07-14T08:48:16Z</time>
      </trkpt>
      <trkpt lat="43.64761" lon="1.37623">
        <ele>137</ele>
        <time>2023-07-14T08:48:17Z</time>
      </trkpt>
      <trkpt lat="43.64766" lon="1.3762">
        <ele>137</ele>
        <time>2023-07-14T08:48:18Z</time>
      </trkpt>
      <trkpt lat="43.64768" lon="1.37619">
        <ele>137</ele>
        <time>2023-07-14T08:48:19Z</time>
      </trkpt>
      <trkpt lat="43.6477" lon="1.37617">
        <ele>137</ele>
        <time>2023-07-14T08:48:20Z</time>
      </trkpt>
      <trkpt lat="43.6477" lon="1.37617">
        <ele>137</ele>
        <time>2023-07-14T08:48:21Z</time>
      </trkpt>
      <trkpt lat="43.64772" lon="1.37616">
        <ele>137</ele>
        <time>2023-07-14T08:48:22Z</time>
      </trkpt>
      <trkpt lat="43.64776" lon="1.37613">
        <ele>137</ele>
        <time>2023-07-14T08:48:23Z</time>
      </trkpt>
      <trkpt lat="43.64776" lon="1.37613">
        <ele>137</ele>
        <time>2023-07-14T08:48:24Z</time>
      </trkpt>
      <trkpt lat="43.64778" lon="1.37612">
        <ele>137</ele>
        <time>2023-07-14T08:48:25Z</time>
      </trkpt>
      <trkpt lat="43.6478" lon="1.3761">
        <ele>137</ele>
        <time>2023-07-14T08:48:26Z</time>
      </trkpt>
      <trkpt lat="43.64785" lon="1.37609">
        <ele>137</ele>
        <time>2023-07-14T08:48:27Z</time>
      </trkpt>
      <trkpt lat="43.64785" lon="1.37609">
        <ele>137</ele>
        <time>2023-07-14T08:48:28Z</time>
      </trkpt>
      <trkpt lat="43.64787" lon="1.37608">
        <ele>137</ele>
        <time>2023-07-14T08:48:29Z</time>
      </trkpt>
      <trkpt lat="43.6479" lon="1.37606">
        <ele>137</ele>
        <time>2023-07-14T08:48:30Z</time>
      </trkpt>
      <trkpt lat="43.64793" lon="1.37605">
        <ele>137</ele>
        <time>2023-07-14T08:48:31Z</time>
      </trkpt>
      <trkpt lat="43.64796" lon="1.37604">
        <ele>137</ele>
        <time>2023-07-14T08:48:32Z</time>
      </trkpt>
      <trkpt lat="43.64798" lon="1.37604">
        <ele>137</ele>
        <time>2023-07-14T08:48:33Z</time>
      </trkpt>
      <trkpt lat="43.64801" lon="1.37604">
        <ele>137</ele>
        <time>2023-07-14T08:48:34Z</time>
      </trkpt>
      <trkpt lat="43.64803" lon="1.37605">
        <ele>137</ele>
        <time>2023-07-14T08:48:35Z</time>
      </trkpt>
      <trkpt lat="43.64808" lon="1.37606">
        <ele>137</ele>
        <time>2023-07-14T08:48:36Z</time>
      </trkpt>
      <trkpt lat="43.64808" lon="1.37606">
        <ele>137</ele>
        <time>2023-07-14T08:48:37Z</time>
      </trkpt>
      <trkpt lat="43.6481" lon="1.37607">
        <ele>137</ele>
        <time>2023-07-14T08:48:38Z</time>
      </trkpt>
      <trkpt lat="43.64814" lon="1.37609">
        <ele>137</ele>
        <time>2023-07-14T08:48:39Z</time>
      </trkpt>
      <trkpt lat="43.64816" lon="1.3761">
        <ele>137</ele>
        <time>2023-07-14T08:48:40Z</time>
      </trkpt>
      <trkpt lat="43.64818" lon="1.3761">
        <ele>137</ele>
        <time>2023-07-14T08:48:41Z</time>
      </trkpt>
      <trkpt lat="43.6482" lon="1.37612">
        <ele>137</ele>
        <time>2023-07-14T08:48:42Z</time>
      </trkpt>
      <trkpt lat="43.64822" lon="1.37613">
        <ele>137</ele>
        <time>2023-07-14T08:48:43Z</time>
      </trkpt>
      <trkpt lat="43.64822" lon="1.37613">
        <ele>137</ele>
        <time>2023-07-14T08:48:44Z</time>
      </trkpt>
      <trkpt lat="43.64824" lon="1.37615">
        <ele>137</ele>
        <time>2023-07-14T08:48:45Z</time>
      </trkpt>
      <trkpt lat="43.64828" lon="1.37617">
        <ele>137</ele>
        <time>2023-07-14T08:48:46Z</time>
      </trkpt>
      <trkpt lat="43.64828" lon="1.37617">
        <ele>137</ele>
        <time>2023-07-14T08:48:47Z</time>
      </trkpt>
      <trkpt lat="43.64832" lon="1.3762">
        <ele>137</ele>
        <time>2023-07-14T08:48:48Z</time>
      </trkpt>
      <trkpt lat="43.64835" lon="1.37621">
        <ele>137</ele>
        <time>2023-07-14T08:48:49Z</time>
      </trkpt>
      <trkpt lat="43.64838" lon="1.37623">
        <ele>137</ele>
        <time>2023-07-14T08:48:50Z</time>
      </trkpt>
      <trkpt lat="43.6484" lon="1.37625">
        <ele>137</ele>
        <time>2023-07-14T08:48:51Z</time>
      </trkpt>
      <trkpt lat="43.6484" lon="1.37625">
        <ele>137</ele>
        <time>2023-07-14T08:48:52Z</time>
      </trkpt>
      <trkpt lat="43.64842" lon="1.37628">
        <ele>137</ele>
        <time>2023-07-14T08:48:53Z</time>
      </trkpt>
      <trkpt lat="43.64845" lon="1.37631">
        <ele>137</ele>
        <time>2023-07-14T08:48:54Z</time>
      </trkpt>
      <trkpt lat="43.64848" lon="1.37634">
        <ele>137</ele>
        <time>2023-07-14T08:48:55Z</time>
      </trkpt>
      <trkpt lat="43.6485" lon="1.37636">
        <ele>137</ele>
        <time>2023-07-14T08:48:56Z</time>
      </trkpt>
      <trkpt lat="43.64853" lon="1.37639">
        <ele>137</ele>
        <time>2023-07-14T08:48:57Z</time>
      </trkpt>
      <trkpt lat="43.64858" lon="1.37643">
        <ele>137</ele>
        <time>2023-07-14T08:48:58Z</time>
      </trkpt>
      <trkpt lat="43.64861" lon="1.37645">
        <ele>137</ele>
        <time>2023-07-14T08:48:59Z</time>
      </trkpt>
      <trkpt lat="43.64863" lon="1.37647">
        <ele>137</ele>
        <time>2023-07-14T08:49:00Z</time>
      </trkpt>
      <trkpt lat="43.64866" lon="1.37649">
        <ele>137</ele>
        <time>2023-07-14T08:49:01Z</time>
      </trkpt>
      <trkpt lat="43.64867" lon="1.37651">
        <ele>137</ele>
        <time>2023-07-14T08:49:02Z</time>
      </trkpt>
      <trkpt lat="43.64867" lon="1.37651">
        <ele>137</ele>
        <time>2023-07-14T08:49:03Z</time>
      </trkpt>
      <trkpt lat="43.6487" lon="1.37653">
        <ele>137</ele>
        <time>2023-07-14T08:49:04Z</time>
      </trkpt>
      <trkpt lat="43.64873" lon="1.37658">
        <ele>137</ele>
        <time>2023-07-14T08:49:05Z</time>
      </trkpt>
      <trkpt lat="43.64873" lon="1.37658">
        <ele>137</ele>
        <time>2023-07-14T08:49:06Z</time>
      </trkpt>
      <trkpt lat="43.64877" lon="1.37665">
        <ele>137</ele>
        <time>2023-07-14T08:49:07Z</time>
      </trkpt>
      <trkpt lat="43.64877" lon="1.37665">
        <ele>137</ele>
        <time>2023-07-14T08:49:08Z</time>
      </trkpt>
      <trkpt lat="43.64878" lon="1.37668">
        <ele>137</ele>
        <time>2023-07-14T08:49:09Z</time>
      </trkpt>
      <trkpt lat="43.64879" lon="1.37672">
        <ele>137</ele>
        <time>2023-07-14T08:49:10Z</time>
      </trkpt>
      <trkpt lat="43.6488" lon="1.37679">
        <ele>137</ele>
        <time>2023-07-14T08:49:11Z</time>
      </trkpt>
      <trkpt lat="43.6488" lon="1.37682">
        <ele>137</ele>
        <time>2023-07-14T08:49:12Z</time>
      </trkpt>
      <trkpt lat="43.6488" lon="1.37682">
        <ele>136</ele>
        <time>2023-07-14T08:49:13Z</time>
      </trkpt>
      <trkpt lat="43.64881" lon="1.3769">
        <ele>136</ele>
        <time>2023-07-14T08:49:14Z</time>
      </trkpt>
      <trkpt lat="43.64882" lon="1.37693">
        <ele>136</ele>
        <time>2023-07-14T08:49:15Z</time>
      </trkpt>
      <trkpt lat="43.64883" lon="1.37697">
        <ele>136</ele>
        <time>2023-07-14T08:49:16Z</time>
      </trkpt>
      <trkpt lat="43.64884" lon="1.377">
        <ele>136</ele>
        <time>2023-07-14T08:49:17Z</time>
      </trkpt>
      <trkpt lat="43.64884" lon="1.377">
        <ele>136</ele>
        <time>2023-07-14T08:49:18Z</time>
      </trkpt>
      <trkpt lat="43.64885" lon="1.37708">
        <ele>136</ele>
        <time>2023-07-14T08:49:19Z</time>
      </trkpt>
      <trkpt lat="43.64886" lon="1.37711">
        <ele>136</ele>
        <time>2023-07-14T08:49:20Z</time>
      </trkpt>
      <trkpt lat="43.64886" lon="1.37715">
        <ele>136</ele>
        <time>2023-07-14T08:49:21Z</time>
      </trkpt>
      <trkpt lat="43.64887" lon="1.37719">
        <ele>136</ele>
        <time>2023-07-14T08:49:22Z</time>
      </trkpt>
      <trkpt lat="43.64887" lon="1.37722">
        <ele>136</ele>
        <time>2023-07-14T08:49:23Z</time>
      </trkpt>
      <trkpt lat="43.64888" lon="1.37726">
        <ele>136</ele>
        <time>2023-07-14T08:49:24Z</time>
      </trkpt>
      <trkpt lat="43.64888" lon="1.37726">
        <ele>136</ele>
        <time>2023-07-14T08:49:25Z</time>
      </trkpt>
      <trkpt lat="43.64889" lon="1.37729">
        <ele>136</ele>
        <time>2023-07-14T08:49:26Z</time>
      </trkpt>
      <trkpt lat="43.64892" lon="1.37737">
        <ele>136</ele>
        <time>2023-07-14T08:49:27Z</time>
      </trkpt>
      <trkpt lat="43.64893" lon="1.3774">
        <ele>136</ele>
        <time>2023-07-14T08:49:28Z</time>
      </trkpt>
      <trkpt lat="43.64893" lon="1.3774">
        <ele>136</ele>
        <time>2023-07-14T08:49:29Z</time>
      </trkpt>
      <trkpt lat="43.64895" lon="1.37748">
        <ele>136</ele>
        <time>2023-07-14T08:49:30Z</time>
      </trkpt>
      <trkpt lat="43.64896" lon="1.37751">
        <ele>136</ele>
        <time>2023-07-14T08:49:31Z</time>
      </trkpt>
      <trkpt lat="43.64896" lon="1.37751">
        <ele>136</ele>
        <time>2023-07-14T08:49:32Z</time>
      </trkpt>
      <trkpt lat="43.64897" lon="1.37757">
        <ele>136</ele>
        <time>2023-07-14T08:49:33Z</time>
      </trkpt>
      <trkpt lat="43.64897" lon="1.37757">
        <ele>136</ele>
        <time>2023-07-14T08:49:34Z</time>
      </trkpt>
      <trkpt lat="43.64898" lon="1.37761">
        <ele>136</ele>
        <time>2023-07-14T08:49:35Z</time>
      </trkpt>
      <trkpt lat="43.649" lon="1.37764">
        <ele>136</ele>
        <time>2023-07-14T08:49:36Z</time>
      </trkpt>
      <trkpt lat="43.64902" lon="1.3777">
        <ele>136</ele>
        <time>2023-07-14T08:49:37Z</time>
      </trkpt>
      <trkpt lat="43.64902" lon="1.37774">
        <ele>136</ele>
        <time>2023-07-14T08:49:38Z</time>
      </trkpt>
      <trkpt lat="43.64903" lon="1.37777">
        <ele>136</ele>
        <time>2023-07-14T08:49:39Z</time>
      </trkpt>
      <trkpt lat="43.64903" lon="1.3778">
        <ele>136</ele>
        <time>2023-07-14T08:49:40Z</time>
      </trkpt>
      <trkpt lat="43.64904" lon="1.37783">
        <ele>136</ele>
        <time>2023-07-14T08:49:41Z</time>
      </trkpt>
      <trkpt lat="43.64904" lon="1.37787">
        <ele>136</ele>
        <time>2023-07-14T08:49:42Z</time>
      </trkpt>
      <trkpt lat="43.64905" lon="1.3779">
        <ele>136</ele>
        <time>2023-07-14T08:49:43Z</time>
      </trkpt>
      <trkpt lat="43.64906" lon="1.37794">
        <ele>136</ele>
        <time>2023-07-14T08:49:44Z</time>
      </trkpt>
      <trkpt lat="43.64906" lon="1.37794">
        <ele>136</ele>
        <time>2023-07-14T08:49:45Z</time>
      </trkpt>
      <trkpt lat="43.64907" lon="1.37797">
        <ele>136</ele>
        <time>2023-07-14T08:49:46Z</time>
      </trkpt>
      <trkpt lat="43.64908" lon="1.37804">
        <ele>136</ele>
        <time>2023-07-14T08:49:47Z</time>
      </trkpt>
      <trkpt lat="43.64909" lon="1.37807">
        <ele>136</ele>
        <time>2023-07-14T08:49:48Z</time>
      </trkpt>
      <trkpt lat="43.6491" lon="1.3781">
        <ele>136</ele>
        <time>2023-07-14T08:49:49Z</time>
      </trkpt>
      <trkpt lat="43.6491" lon="1.37814">
        <ele>136</ele>
        <time>2023-07-14T08:49:50Z</time>
      </trkpt>
      <trkpt lat="43.64911" lon="1.37817">
        <ele>136</ele>
        <time>2023-07-14T08:49:51Z</time>
      </trkpt>
      <trkpt lat="43.64911" lon="1.37817">
        <ele>136</ele>
        <time>2023-07-14T08:49:52Z</time>
      </trkpt>
      <trkpt lat="43.64913" lon="1.37823">
        <ele>136</ele>
        <time>2023-07-14T08:49:53Z</time>
      </trkpt>
      <trkpt lat="43.64913" lon="1.37823">
        <ele>136</ele>
        <time>2023-07-14T08:49:54Z</time>
      </trkpt>
      <trkpt lat="43.64914" lon="1.37826">
        <ele>136</ele>
        <time>2023-07-14T08:49:55Z</time>
      </trkpt>
      <trkpt lat="43.64915" lon="1.37829">
        <ele>136</ele>
        <time>2023-07-14T08:49:56Z</time>
      </trkpt>
      <trkpt lat="43.64917" lon="1.37836">
        <ele>136</ele>
        <time>2023-07-14T08:49:57Z</time>
      </trkpt>
      <trkpt lat="43.64918" lon="1.3784">
        <ele>136</ele>
        <time>2023-07-14T08:49:58Z</time>
      </trkpt>
      <trkpt lat="43.64918" lon="1.37843">
        <ele>136</ele>
        <time>2023-07-14T08:49:59Z</time>
      </trkpt>
      <trkpt lat="43.64919" lon="1.37847">
        <ele>136</ele>
        <time>2023-07-14T08:50:00Z</time>
      </trkpt>
      <trkpt lat="43.64919" lon="1.37847">
        <ele>136</ele>
        <time>2023-07-14T08:50:01Z</time>
      </trkpt>
      <trkpt lat="43.6492" lon="1.37854">
        <ele>136</ele>
        <time>2023-07-14T08:50:02Z</time>
      </trkpt>
      <trkpt lat="43.64922" lon="1.37857">
        <ele>136</ele>
        <time>2023-07-14T08:50:03Z</time>
      </trkpt>
      <trkpt lat="43.64923" lon="1.37861">
        <ele>136</ele>
        <time>2023-07-14T08:50:04Z</time>
      </trkpt>
      <trkpt lat="43.64923" lon="1.37861">
        <ele>136</ele>
        <time>2023-07-14T08:50:05Z</time>
      </trkpt>
      <trkpt lat="43.64923" lon="1.37864">
        <ele>136</ele>
        <time>2023-07-14T08:50:06Z</time>
      </trkpt>
      <trkpt lat="43.64924" lon="1.37868">
        <ele>136</ele>
        <time>2023-07-14T08:50:07Z</time>
      </trkpt>
      <trkpt lat="43.64925" lon="1.37871">
        <ele>136</ele>
        <time>2023-07-14T08:50:08Z</time>
      </trkpt>
      <trkpt lat="43.64927" lon="1.37877">
        <ele>136</ele>
        <time>2023-07-14T08:50:09Z</time>
      </trkpt>
      <trkpt lat="43.64928" lon="1.3788">
        <ele>136</ele>
        <time>2023-07-14T08:50:10Z</time>
      </trkpt>
      <trkpt lat="43.64929" lon="1.37884">
        <ele>136</ele>
        <time>2023-07-14T08:50:11Z</time>
      </trkpt>
      <trkpt lat="43.64929" lon="1.37884">
        <ele>136</ele>
        <time>2023-07-14T08:50:12Z</time>
      </trkpt>
      <trkpt lat="43.64931" lon="1.37891">
        <ele>136</ele>
        <time>2023-07-14T08:50:13Z</time>
      </trkpt>
      <trkpt lat="43.64931" lon="1.37891">
        <ele>136</ele>
        <time>2023-07-14T08:50:14Z</time>
      </trkpt>
      <trkpt lat="43.64932" lon="1.37894">
        <ele>136</ele>
        <time>2023-07-14T08:50:15Z</time>
      </trkpt>
      <trkpt lat="43.64935" lon="1.37901">
        <ele>136</ele>
        <time>2023-07-14T08:50:16Z</time>
      </trkpt>
      <trkpt lat="43.64936" lon="1.37904">
        <ele>136</ele>
        <time>2023-07-14T08:50:17Z</time>
      </trkpt>
      <trkpt lat="43.64937" lon="1.37908">
        <ele>136</ele>
        <time>2023-07-14T08:50:18Z</time>
      </trkpt>
      <trkpt lat="43.64937" lon="1.37911">
        <ele>136</ele>
        <time>2023-07-14T08:50:19Z</time>
      </trkpt>
      <trkpt lat="43.64938" lon="1.37915">
        <ele>136</ele>
        <time>2023-07-14T08:50:20Z</time>
      </trkpt>
      <trkpt lat="43.64939" lon="1.37918">
        <ele>136</ele>
        <time>2023-07-14T08:50:21Z</time>
      </trkpt>
      <trkpt lat="43.64939" lon="1.37918">
        <ele>136</ele>
        <time>2023-07-14T08:50:22Z</time>
      </trkpt>
      <trkpt lat="43.6494" lon="1.37925">
        <ele>136</ele>
        <time>2023-07-14T08:50:23Z</time>
      </trkpt>
      <trkpt lat="43.64941" lon="1.37928">
        <ele>136</ele>
        <time>2023-07-14T08:50:24Z</time>
      </trkpt>
      <trkpt lat="43.64941" lon="1.37928">
        <ele>136</ele>
        <time>2023-07-14T08:50:25Z</time>
      </trkpt>
      <trkpt lat="43.64942" lon="1.37932">
        <ele>136</ele>
        <time>2023-07-14T08:50:26Z</time>
      </trkpt>
      <trkpt lat="43.64942" lon="1.37935">
        <ele>136</ele>
        <time>2023-07-14T08:50:27Z</time>
      </trkpt>
      <trkpt lat="43.64943" lon="1.37939">
        <ele>136</ele>
        <time>2023-07-14T08:50:28Z</time>
      </trkpt>
      <trkpt lat="43.64943" lon="1.37942">
        <ele>136</ele>
        <time>2023-07-14T08:50:29Z</time>
      </trkpt>
      <trkpt lat="43.64944" lon="1.37949">
        <ele>136</ele>
        <time>2023-07-14T08:50:30Z</time>
      </trkpt>
      <trkpt lat="43.64945" lon="1.37952">
        <ele>136</ele>
        <time>2023-07-14T08:50:31Z</time>
      </trkpt>
      <trkpt lat="43.64945" lon="1.37952">
        <ele>136</ele>
        <time>2023-07-14T08:50:32Z</time>
      </trkpt>
      <trkpt lat="43.64945" lon="1.37956">
        <ele>136</ele>
        <time>2023-07-14T08:50:33Z</time>
      </trkpt>
      <trkpt lat="43.64946" lon="1.37959">
        <ele>136</ele>
        <time>2023-07-14T08:50:34Z</time>
      </trkpt>
      <trkpt lat="43.64947" lon="1.37962">
        <ele>136</ele>
        <time>2023-07-14T08:50:35Z</time>
      </trkpt>
      <trkpt lat="43.64947" lon="1.37968">
        <ele>136</ele>
        <time>2023-07-14T08:50:36Z</time>
      </trkpt>
      <trkpt lat="43.64947" lon="1.37968">
        <ele>136</ele>
        <time>2023-07-14T08:50:37Z</time>
      </trkpt>
      <trkpt lat="43.64948" lon="1.37975">
        <ele>136</ele>
        <time>2023-07-14T08:50:38Z</time>
      </trkpt>
      <trkpt lat="43.64949" lon="1.37978">
        <ele>136</ele>
        <time>2023-07-14T08:50:39Z</time>
      </trkpt>
      <trkpt lat="43.6495" lon="1.37982">
        <ele>135</ele>
        <time>2023-07-14T08:50:40Z</time>
      </trkpt>
      <trkpt lat="43.6495" lon="1.37982">
        <ele>135</ele>
        <time>2023-07-14T08:50:41Z</time>
      </trkpt>
      <trkpt lat="43.64951" lon="1.3799">
        <ele>135</ele>
        <time>2023-07-14T08:50:42Z</time>
      </trkpt>
      <trkpt lat="43.64952" lon="1.37993">
        <ele>135</ele>
        <time>2023-07-14T08:50:43Z</time>
      </trkpt>
      <trkpt lat="43.64952" lon="1.37993">
        <ele>135</ele>
        <time>2023-07-14T08:50:44Z</time>
      </trkpt>
      <trkpt lat="43.64954" lon="1.37997">
        <ele>135</ele>
        <time>2023-07-14T08:50:45Z</time>
      </trkpt>
      <trkpt lat="43.64955" lon="1.37999">
        <ele>135</ele>
        <time>2023-07-14T08:50:46Z</time>
      </trkpt>
      <trkpt lat="43.64956" lon="1.38002">
        <ele>135</ele>
        <time>2023-07-14T08:50:47Z</time>
      </trkpt>
      <trkpt lat="43.64958" lon="1.38004">
        <ele>135</ele>
        <time>2023-07-14T08:50:48Z</time>
      </trkpt>
      <trkpt lat="43.64959" lon="1.38007">
        <ele>135</ele>
        <time>2023-07-14T08:50:49Z</time>
      </trkpt>
      <trkpt lat="43.6496" lon="1.38009">
        <ele>136</ele>
        <time>2023-07-14T08:50:50Z</time>
      </trkpt>
      <trkpt lat="43.64961" lon="1.38012">
        <ele>136</ele>
        <time>2023-07-14T08:50:51Z</time>
      </trkpt>
      <trkpt lat="43.64963" lon="1.38017">
        <ele>136</ele>
        <time>2023-07-14T08:50:52Z</time>
      </trkpt>
      <trkpt lat="43.64964" lon="1.3802">
        <ele>136</ele>
        <time>2023-07-14T08:50:53Z</time>
      </trkpt>
      <trkpt lat="43.64965" lon="1.38022">
        <ele>136</ele>
        <time>2023-07-14T08:50:54Z</time>
      </trkpt>
      <trkpt lat="43.64966" lon="1.38025">
        <ele>136</ele>
        <time>2023-07-14T08:50:55Z</time>
      </trkpt>
      <trkpt lat="43.64966" lon="1.38025">
        <ele>136</ele>
        <time>2023-07-14T08:50:56Z</time>
      </trkpt>
      <trkpt lat="43.64968" lon="1.38033">
        <ele>136</ele>
        <time>2023-07-14T08:50:57Z</time>
      </trkpt>
      <trkpt lat="43.64968" lon="1.38033">
        <ele>136</ele>
        <time>2023-07-14T08:50:58Z</time>
      </trkpt>
      <trkpt lat="43.64969" lon="1.38036">
        <ele>136</ele>
        <time>2023-07-14T08:50:59Z</time>
      </trkpt>
      <trkpt lat="43.6497" lon="1.38042">
        <ele>136</ele>
        <time>2023-07-14T08:51:00Z</time>
      </trkpt>
      <trkpt lat="43.64971" lon="1.38046">
        <ele>136</ele>
        <time>2023-07-14T08:51:01Z</time>
      </trkpt>
      <trkpt lat="43.64972" lon="1.38049">
        <ele>136</ele>
        <time>2023-07-14T08:51:02Z</time>
      </trkpt>
      <trkpt lat="43.64973" lon="1.38052">
        <ele>136</ele>
        <time>2023-07-14T08:51:03Z</time>
      </trkpt>
      <trkpt lat="43.64973" lon="1.38052">
        <ele>136</ele>
        <time>2023-07-14T08:51:04Z</time>
      </trkpt>
      <trkpt lat="43.64975" lon="1.38059">
        <ele>136</ele>
        <time>2023-07-14T08:51:05Z</time>
      </trkpt>
      <trkpt lat="43.64975" lon="1.38059">
        <ele>136</ele>
        <time>2023-07-14T08:51:06Z</time>
      </trkpt>
      <trkpt lat="43.64976" lon="1.38062">
        <ele>136</ele>
        <time>2023-07-14T08:51:07Z</time>
      </trkpt>
      <trkpt lat="43.64978" lon="1.38068">
        <ele>136</ele>
        <time>2023-07-14T08:51:08Z</time>
      </trkpt>
      <trkpt lat="43.64978" lon="1.38068">
        <ele>136</ele>
        <time>2023-07-14T08:51:09Z</time>
      </trkpt>
      <trkpt lat="43.64979" lon="1.38072">
        <ele>136</ele>
        <time>2023-07-14T08:51:10Z</time>
      </trkpt>
      <trkpt lat="43.6498" lon="1.38075">
        <ele>136</ele>
        <time>2023-07-14T08:51:11Z</time>
      </trkpt>
      <trkpt lat="43.64982" lon="1.38081">
        <ele>136</ele>
        <time>2023-07-14T08:51:12Z</time>
      </trkpt>
      <trkpt lat="43.64983" lon="1.38084">
        <ele>136</ele>
        <time>2023-07-14T08:51:13Z</time>
      </trkpt>
      <trkpt lat="43.64984" lon="1.38088">
        <ele>136</ele>
        <time>2023-07-14T08:51:14Z</time>
      </trkpt>
      <trkpt lat="43.64984" lon="1.38088">
        <ele>136</ele>
        <time>2023-07-14T08:51:15Z</time>
      </trkpt>
      <trkpt lat="43.64986" lon="1.38091">
        <ele>136</ele>
        <time>2023-07-14T08:51:16Z</time>
      </trkpt>
      <trkpt lat="43.64987" lon="1.38094">
        <ele>136</ele>
        <time>2023-07-14T08:51:17Z</time>
      </trkpt>
      <trkpt lat="43.64989" lon="1.38101">
        <ele>136</ele>
        <time>2023-07-14T08:51:18Z</time>
      </trkpt>
      <trkpt lat="43.6499" lon="1.38104">
        <ele>136</ele>
        <time>2023-07-14T08:51:19Z</time>
      </trkpt>
      <trkpt lat="43.64991" lon="1.38107">
        <ele>136</ele>
        <time>2023-07-14T08:51:20Z</time>
      </trkpt>
      <trkpt lat="43.64991" lon="1.38107">
        <ele>136</ele>
        <time>2023-07-14T08:51:21Z</time>
      </trkpt>
      <trkpt lat="43.64993" lon="1.38114">
        <ele>136</ele>
        <time>2023-07-14T08:51:22Z</time>
      </trkpt>
      <trkpt lat="43.64994" lon="1.38117">
        <ele>136</ele>
        <time>2023-07-14T08:51:23Z</time>
      </trkpt>
      <trkpt lat="43.64994" lon="1.38117">
        <ele>136</ele>
        <time>2023-07-14T08:51:24Z</time>
      </trkpt>
      <trkpt lat="43.64995" lon="1.3812">
        <ele>136</ele>
        <time>2023-07-14T08:51:25Z</time>
      </trkpt>
      <trkpt lat="43.64998" lon="1.38127">
        <ele>136</ele>
        <time>2023-07-14T08:51:26Z</time>
      </trkpt>
      <trkpt lat="43.64998" lon="1.38127">
        <ele>136</ele>
        <time>2023-07-14T08:51:27Z</time>
      </trkpt>
      <trkpt lat="43.64999" lon="1.38131">
        <ele>136</ele>
        <time>2023-07-14T08:51:28Z</time>
      </trkpt>
      <trkpt lat="43.65" lon="1.38135">
        <ele>136</ele>
        <time>2023-07-14T08:51:29Z</time>
      </trkpt>
      <trkpt lat="43.65" lon="1.38138">
        <ele>136</ele>
        <time>2023-07-14T08:51:30Z</time>
      </trkpt>
      <trkpt lat="43.65002" lon="1.38144">
        <ele>136</ele>
        <time>2023-07-14T08:51:31Z</time>
      </trkpt>
      <trkpt lat="43.65002" lon="1.38148">
        <ele>136</ele>
        <time>2023-07-14T08:51:32Z</time>
      </trkpt>
      <trkpt lat="43.65002" lon="1.38151">
        <ele>136</ele>
        <time>2023-07-14T08:51:33Z</time>
      </trkpt>
      <trkpt lat="43.65002" lon="1.38153">
        <ele>136</ele>
        <time>2023-07-14T08:51:34Z</time>
      </trkpt>
      <trkpt lat="43.65001" lon="1.38157">
        <ele>136</ele>
        <time>2023-07-14T08:51:35Z</time>
      </trkpt>
      <trkpt lat="43.65" lon="1.3816">
        <ele>136</ele>
        <time>2023-07-14T08:51:36Z</time>
      </trkpt>
      <trkpt lat="43.65" lon="1.38163">
        <ele>136</ele>
        <time>2023-07-14T08:51:37Z</time>
      </trkpt>
      <trkpt lat="43.65" lon="1.38163">
        <ele>136</ele>
        <time>2023-07-14T08:51:38Z</time>
      </trkpt>
      <trkpt lat="43.64998" lon="1.38169">
        <ele>136</ele>
        <time>2023-07-14T08:51:39Z</time>
      </trkpt>
      <trkpt lat="43.64997" lon="1.38172">
        <ele>136</ele>
        <time>2023-07-14T08:51:40Z</time>
      </trkpt>
      <trkpt lat="43.64996" lon="1.38175">
        <ele>136</ele>
        <time>2023-07-14T08:51:41Z</time>
      </trkpt>
      <trkpt lat="43.64997" lon="1.38178">
        <ele>136</ele>
        <time>2023-07-14T08:51:42Z</time>
      </trkpt>
      <trkpt lat="43.64997" lon="1.38181">
        <ele>136</ele>
        <time>2023-07-14T08:51:43Z</time>
      </trkpt>
      <trkpt lat="43.64997" lon="1.38181">
        <ele>136</ele>
        <time>2023-07-14T08:51:44Z</time>
      </trkpt>
      <trkpt lat="43.64998" lon="1.38185">
        <ele>136</ele>
        <time>2023-07-14T08:51:45Z</time>
      </trkpt>
      <trkpt lat="43.64999" lon="1.38188">
        <ele>136</ele>
        <time>2023-07-14T08:51:46Z</time>
      </trkpt>
      <trkpt lat="43.65" lon="1.38191">
        <ele>136</ele>
        <time>2023-07-14T08:51:47Z</time>
      </trkpt>
      <trkpt lat="43.65002" lon="1.38193">
        <ele>136</ele>
        <time>2023-07-14T08:51:48Z</time>
      </trkpt>
      <trkpt lat="43.65005" lon="1.38199">
        <ele>136</ele>
        <time>2023-07-14T08:51:49Z</time>
      </trkpt>
      <trkpt lat="43.65006" lon="1.38202">
        <ele>136</ele>
        <time>2023-07-14T08:51:50Z</time>
      </trkpt>
      <trkpt lat="43.65006" lon="1.38202">
        <ele>136</ele>
        <time>2023-07-14T08:51:51Z</time>
      </trkpt>
      <trkpt lat="43.65008" lon="1.38205">
        <ele>136</ele>
        <time>2023-07-14T08:51:52Z</time>
      </trkpt>
      <trkpt lat="43.65008" lon="1.38205">
        <ele>136</ele>
        <time>2023-07-14T08:51:53Z</time>
      </trkpt>
      <trkpt lat="43.65006" lon="1.38203">
        <ele>136</ele>
        <time>2023-07-14T08:51:54Z</time>
      </trkpt>
      <trkpt lat="43.65006" lon="1.38203">
        <ele>136</ele>
        <time>2023-07-14T08:51:55Z</time>
      </trkpt>
      <trkpt lat="43.65005" lon="1.382">
        <ele>136</ele>
        <time>2023-07-14T08:51:56Z</time>
      </trkpt>
      <trkpt lat="43.65003" lon="1.38198">
        <ele>136</ele>
        <time>2023-07-14T08:51:57Z</time>
      </trkpt>
      <trkpt lat="43.65001" lon="1.38197">
        <ele>136</ele>
        <time>2023-07-14T08:51:58Z</time>
      </trkpt>
      <trkpt lat="43.64998" lon="1.38197">
        <ele>136</ele>
        <time>2023-07-14T08:51:59Z</time>
      </trkpt>
      <trkpt lat="43.64996" lon="1.38198">
        <ele>136</ele>
        <time>2023-07-14T08:52:00Z</time>
      </trkpt>
      <trkpt lat="43.64994" lon="1.38199">
        <ele>136</ele>
        <time>2023-07-14T08:52:01Z</time>
      </trkpt>
      <trkpt lat="43.64991" lon="1.382">
        <ele>136</ele>
        <time>2023-07-14T08:52:02Z</time>
      </trkpt>
      <trkpt lat="43.64986" lon="1.38203">
        <ele>136</ele>
        <time>2023-07-14T08:52:03Z</time>
      </trkpt>
      <trkpt lat="43.64983" lon="1.38205">
        <ele>136</ele>
        <time>2023-07-14T08:52:04Z</time>
      </trkpt>
      <trkpt lat="43.64981" lon="1.38207">
        <ele>136</ele>
        <time>2023-07-14T08:52:05Z</time>
      </trkpt>
      <trkpt lat="43.64981" lon="1.38207">
        <ele>136</ele>
        <time>2023-07-14T08:52:06Z</time>
      </trkpt>
      <trkpt lat="43.64981" lon="1.38207">
        <ele>136</ele>
        <time>2023-07-14T08:52:07Z</time>
      </trkpt>
      <trkpt lat="43.64981" lon="1.38207">
        <ele>136</ele>
        <time>2023-07-14T08:52:08Z</time>
      </trkpt>
      <trkpt lat="43.64982" lon="1.38205">
        <ele>136</ele>
        <time>2023-07-14T08:52:09Z</time>
      </trkpt>
      <trkpt lat="43.64984" lon="1.38203">
        <ele>136</ele>
        <time>2023-07-14T08:52:10Z</time>
      </trkpt>
      <trkpt lat="43.64989" lon="1.38199">
        <ele>136</ele>
        <time>2023-07-14T08:52:11Z</time>
      </trkpt>
      <trkpt lat="43.64989" lon="1.38199">
        <ele>136</ele>
        <time>2023-07-14T08:52:12Z</time>
      </trkpt>
      <trkpt lat="43.64992" lon="1.38197">
        <ele>136</ele>
        <time>2023-07-14T08:52:13Z</time>
      </trkpt>
      <trkpt lat="43.64994" lon="1.38195">
        <ele>136</ele>
        <time>2023-07-14T08:52:14Z</time>
      </trkpt>
      <trkpt lat="43.64997" lon="1.38194">
        <ele>136</ele>
        <time>2023-07-14T08:52:15Z</time>
      </trkpt>
      <trkpt lat="43.65002" lon="1.38194">
        <ele>136</ele>
        <time>2023-07-14T08:52:16Z</time>
      </trkpt>
      <trkpt lat="43.65005" lon="1.38197">
        <ele>136</ele>
        <time>2023-07-14T08:52:17Z</time>
      </trkpt>
      <trkpt lat="43.65005" lon="1.38197">
        <ele>136</ele>
        <time>2023-07-14T08:52:18Z</time>
      </trkpt>
      <trkpt lat="43.65007" lon="1.382">
        <ele>136</ele>
        <time>2023-07-14T08:52:19Z</time>
      </trkpt>
      <trkpt lat="43.65009" lon="1.38203">
        <ele>136</ele>
        <time>2023-07-14T08:52:20Z</time>
      </trkpt>
      <trkpt lat="43.65011" lon="1.38206">
        <ele>136</ele>
        <time>2023-07-14T08:52:21Z</time>
      </trkpt>
      <trkpt lat="43.65014" lon="1.38214">
        <ele>136</ele>
        <time>2023-07-14T08:52:22Z</time>
      </trkpt>
      <trkpt lat="43.65014" lon="1.38214">
        <ele>136</ele>
        <time>2023-07-14T08:52:23Z</time>
      </trkpt>
      <trkpt lat="43.65014" lon="1.38218">
        <ele>136</ele>
        <time>2023-07-14T08:52:24Z</time>
      </trkpt>
      <trkpt lat="43.65015" lon="1.38222">
        <ele>136</ele>
        <time>2023-07-14T08:52:25Z</time>
      </trkpt>
      <trkpt lat="43.65016" lon="1.38226">
        <ele>136</ele>
        <time>2023-07-14T08:52:26Z</time>
      </trkpt>
      <trkpt lat="43.65016" lon="1.3823">
        <ele>136</ele>
        <time>2023-07-14T08:52:27Z</time>
      </trkpt>
      <trkpt lat="43.65017" lon="1.38233">
        <ele>136</ele>
        <time>2023-07-14T08:52:28Z</time>
      </trkpt>
      <trkpt lat="43.65018" lon="1.38237">
        <ele>136</ele>
        <time>2023-07-14T08:52:29Z</time>
      </trkpt>
      <trkpt lat="43.65019" lon="1.38244">
        <ele>136</ele>
        <time>2023-07-14T08:52:30Z</time>
      </trkpt>
      <trkpt lat="43.65019" lon="1.38244">
        <ele>136</ele>
        <time>2023-07-14T08:52:31Z</time>
      </trkpt>
      <trkpt lat="43.65021" lon="1.38251">
        <ele>136</ele>
        <time>2023-07-14T08:52:32Z</time>
      </trkpt>
      <trkpt lat="43.65022" lon="1.38254">
        <ele>136</ele>
        <time>2023-07-14T08:52:33Z</time>
      </trkpt>
      <trkpt lat="43.65023" lon="1.38258">
        <ele>136</ele>
        <time>2023-07-14T08:52:34Z</time>
      </trkpt>
      <trkpt lat="43.65023" lon="1.38258">
        <ele>136</ele>
        <time>2023-07-14T08:52:35Z</time>
      </trkpt>
      <trkpt lat="43.65024" lon="1.38261">
        <ele>136</ele>
        <time>2023-07-14T08:52:36Z</time>
      </trkpt>
      <trkpt lat="43.65026" lon="1.38265">
        <ele>136</ele>
        <time>2023-07-14T08:52:37Z</time>
      </trkpt>
      <trkpt lat="43.65027" lon="1.38268">
        <ele>136</ele>
        <time>2023-07-14T08:52:38Z</time>
      </trkpt>
      <trkpt lat="43.65027" lon="1.38272">
        <ele>136</ele>
        <time>2023-07-14T08:52:39Z</time>
      </trkpt>
      <trkpt lat="43.65028" lon="1.38275">
        <ele>136</ele>
        <time>2023-07-14T08:52:40Z</time>
      </trkpt>
      <trkpt lat="43.6503" lon="1.38282">
        <ele>136</ele>
        <time>2023-07-14T08:52:41Z</time>
      </trkpt>
      <trkpt lat="43.65031" lon="1.38286">
        <ele>136</ele>
        <time>2023-07-14T08:52:42Z</time>
      </trkpt>
      <trkpt lat="43.65031" lon="1.38286">
        <ele>136</ele>
        <time>2023-07-14T08:52:43Z</time>
      </trkpt>
      <trkpt lat="43.65032" lon="1.3829">
        <ele>136</ele>
        <time>2023-07-14T08:52:44Z</time>
      </trkpt>
      <trkpt lat="43.65033" lon="1.38293">
        <ele>136</ele>
        <time>2023-07-14T08:52:45Z</time>
      </trkpt>
      <trkpt lat="43.65034" lon="1.38297">
        <ele>136</ele>
        <time>2023-07-14T08:52:46Z</time>
      </trkpt>
      <trkpt lat="43.65035" lon="1.383">
        <ele>136</ele>
        <time>2023-07-14T08:52:47Z</time>
      </trkpt>
      <trkpt lat="43.65037" lon="1.38307">
        <ele>136</ele>
        <time>2023-07-14T08:52:48Z</time>
      </trkpt>
      <trkpt lat="43.65038" lon="1.3831">
        <ele>136</ele>
        <time>2023-07-14T08:52:49Z</time>
      </trkpt>
      <trkpt lat="43.65038" lon="1.3831">
        <ele>136</ele>
        <time>2023-07-14T08:52:50Z</time>
      </trkpt>
      <trkpt lat="43.6504" lon="1.38313">
        <ele>136</ele>
        <time>2023-07-14T08:52:51Z</time>
      </trkpt>
      <trkpt lat="43.65041" lon="1.38317">
        <ele>136</ele>
        <time>2023-07-14T08:52:52Z</time>
      </trkpt>
      <trkpt lat="43.65043" lon="1.3832">
        <ele>136</ele>
        <time>2023-07-14T08:52:53Z</time>
      </trkpt>
      <trkpt lat="43.65044" lon="1.38323">
        <ele>136</ele>
        <time>2023-07-14T08:52:54Z</time>
      </trkpt>
      <trkpt lat="43.65045" lon="1.38326">
        <ele>136</ele>
        <time>2023-07-14T08:52:55Z</time>
      </trkpt>
      <trkpt lat="43.65048" lon="1.38333">
        <ele>136</ele>
        <time>2023-07-14T08:52:56Z</time>
      </trkpt>
      <trkpt lat="43.65048" lon="1.38333">
        <ele>136</ele>
        <time>2023-07-14T08:52:57Z</time>
      </trkpt>
      <trkpt lat="43.65049" lon="1.38336">
        <ele>136</ele>
        <time>2023-07-14T08:52:58Z</time>
      </trkpt>
      <trkpt lat="43.65051" lon="1.38342">
        <ele>136</ele>
        <time>2023-07-14T08:52:59Z</time>
      </trkpt>
      <trkpt lat="43.65051" lon="1.38342">
        <ele>136</ele>
        <time>2023-07-14T08:53:00Z</time>
      </trkpt>
      <trkpt lat="43.65052" lon="1.38345">
        <ele>136</ele>
        <time>2023-07-14T08:53:01Z</time>
      </trkpt>
      <trkpt lat="43.65054" lon="1.38351">
        <ele>136</ele>
        <time>2023-07-14T08:53:02Z</time>
      </trkpt>
      <trkpt lat="43.65055" lon="1.38355">
        <ele>136</ele>
        <time>2023-07-14T08:53:03Z</time>
      </trkpt>
      <trkpt lat="43.65056" lon="1.38358">
        <ele>136</ele>
        <time>2023-07-14T08:53:04Z</time>
      </trkpt>
      <trkpt lat="43.65056" lon="1.38358">
        <ele>136</ele>
        <time>2023-07-14T08:53:05Z</time>
      </trkpt>
      <trkpt lat="43.65057" lon="1.38361">
        <ele>136</ele>
        <time>2023-07-14T08:53:06Z</time>
      </trkpt>
      <trkpt lat="43.65058" lon="1.38364">
        <ele>136</ele>
        <time>2023-07-14T08:53:07Z</time>
      </trkpt>
      <trkpt lat="43.6506" lon="1.38371">
        <ele>137</ele>
        <time>2023-07-14T08:53:08Z</time>
      </trkpt>
      <trkpt lat="43.65061" lon="1.38374">
        <ele>137</ele>
        <time>2023-07-14T08:53:09Z</time>
      </trkpt>
      <trkpt lat="43.65062" lon="1.38378">
        <ele>137</ele>
        <time>2023-07-14T08:53:10Z</time>
      </trkpt>
      <trkpt lat="43.65062" lon="1.38378">
        <ele>137</ele>
        <time>2023-07-14T08:53:11Z</time>
      </trkpt>
      <trkpt lat="43.65065" lon="1.38386">
        <ele>137</ele>
        <time>2023-07-14T08:53:12Z</time>
      </trkpt>
      <trkpt lat="43.65066" lon="1.38388">
        <ele>137</ele>
        <time>2023-07-14T08:53:13Z</time>
      </trkpt>
      <trkpt lat="43.65066" lon="1.38388">
        <ele>136</ele>
        <time>2023-07-14T08:53:14Z</time>
      </trkpt>
      <trkpt lat="43.65066" lon="1.38391">
        <ele>136</ele>
        <time>2023-07-14T08:53:15Z</time>
      </trkpt>
      <trkpt lat="43.65068" lon="1.38394">
        <ele>136</ele>
        <time>2023-07-14T08:53:16Z</time>
      </trkpt>
      <trkpt lat="43.65069" lon="1.38398">
        <ele>136</ele>
        <time>2023-07-14T08:53:17Z</time>
      </trkpt>
      <trkpt lat="43.65072" lon="1.38405">
        <ele>135</ele>
        <time>2023-07-14T08:53:18Z</time>
      </trkpt>
      <trkpt lat="43.65073" lon="1.38409">
        <ele>135</ele>
        <time>2023-07-14T08:53:19Z</time>
      </trkpt>
      <trkpt lat="43.65074" lon="1.38412">
        <ele>135</ele>
        <time>2023-07-14T08:53:20Z</time>
      </trkpt>
      <trkpt lat="43.65074" lon="1.38412">
        <ele>135</ele>
        <time>2023-07-14T08:53:21Z</time>
      </trkpt>
      <trkpt lat="43.65075" lon="1.38419">
        <ele>135</ele>
        <time>2023-07-14T08:53:22Z</time>
      </trkpt>
      <trkpt lat="43.65075" lon="1.38419">
        <ele>135</ele>
        <time>2023-07-14T08:53:23Z</time>
      </trkpt>
      <trkpt lat="43.65076" lon="1.38423">
        <ele>135</ele>
        <time>2023-07-14T08:53:24Z</time>
      </trkpt>
      <trkpt lat="43.65077" lon="1.38426">
        <ele>135</ele>
        <time>2023-07-14T08:53:25Z</time>
      </trkpt>
      <trkpt lat="43.65079" lon="1.38433">
        <ele>135</ele>
        <time>2023-07-14T08:53:26Z</time>
      </trkpt>
      <trkpt lat="43.6508" lon="1.38436">
        <ele>135</ele>
        <time>2023-07-14T08:53:27Z</time>
      </trkpt>
      <trkpt lat="43.65081" lon="1.38439">
        <ele>136</ele>
        <time>2023-07-14T08:53:28Z</time>
      </trkpt>
      <trkpt lat="43.65081" lon="1.38439">
        <ele>136</ele>
        <time>2023-07-14T08:53:29Z</time>
      </trkpt>
      <trkpt lat="43.65082" lon="1.38443">
        <ele>136</ele>
        <time>2023-07-14T08:53:30Z</time>
      </trkpt>
      <trkpt lat="43.65083" lon="1.38446">
        <ele>135</ele>
        <time>2023-07-14T08:53:31Z</time>
      </trkpt>
      <trkpt lat="43.65084" lon="1.38449">
        <ele>135</ele>
        <time>2023-07-14T08:53:32Z</time>
      </trkpt>
      <trkpt lat="43.65085" lon="1.38452">
        <ele>135</ele>
        <time>2023-07-14T08:53:33Z</time>
      </trkpt>
      <trkpt lat="43.65087" lon="1.38455">
        <ele>135</ele>
        <time>2023-07-14T08:53:34Z</time>
      </trkpt>
      <trkpt lat="43.65088" lon="1.38458">
        <ele>135</ele>
        <time>2023-07-14T08:53:35Z</time>
      </trkpt>
      <trkpt lat="43.65089" lon="1.38461">
        <ele>135</ele>
        <time>2023-07-14T08:53:36Z</time>
      </trkpt>
      <trkpt lat="43.65091" lon="1.38468">
        <ele>135</ele>
        <time>2023-07-14T08:53:37Z</time>
      </trkpt>
      <trkpt lat="43.65091" lon="1.38468">
        <ele>135</ele>
        <time>2023-07-14T08:53:38Z</time>
      </trkpt>
      <trkpt lat="43.65092" lon="1.38471">
        <ele>135</ele>
        <time>2023-07-14T08:53:39Z</time>
      </trkpt>
      <trkpt lat="43.65093" lon="1.38474">
        <ele>135</ele>
        <time>2023-07-14T08:53:40Z</time>
      </trkpt>
      <trkpt lat="43.65095" lon="1.38481">
        <ele>135</ele>
        <time>2023-07-14T08:53:41Z</time>
      </trkpt>
      <trkpt lat="43.65097" lon="1.38484">
        <ele>135</ele>
        <time>2023-07-14T08:53:42Z</time>
      </trkpt>
      <trkpt lat="43.65098" lon="1.38487">
        <ele>135</ele>
        <time>2023-07-14T08:53:43Z</time>
      </trkpt>
      <trkpt lat="43.65099" lon="1.3849">
        <ele>135</ele>
        <time>2023-07-14T08:53:44Z</time>
      </trkpt>
      <trkpt lat="43.65099" lon="1.3849">
        <ele>135</ele>
        <time>2023-07-14T08:53:45Z</time>
      </trkpt>
      <trkpt lat="43.65101" lon="1.38498">
        <ele>135</ele>
        <time>2023-07-14T08:53:46Z</time>
      </trkpt>
      <trkpt lat="43.65101" lon="1.38498">
        <ele>135</ele>
        <time>2023-07-14T08:53:47Z</time>
      </trkpt>
      <trkpt lat="43.65103" lon="1.38501">
        <ele>135</ele>
        <time>2023-07-14T08:53:48Z</time>
      </trkpt>
      <trkpt lat="43.65103" lon="1.38505">
        <ele>135</ele>
        <time>2023-07-14T08:53:49Z</time>
      </trkpt>
      <trkpt lat="43.65103" lon="1.38509">
        <ele>135</ele>
        <time>2023-07-14T08:53:50Z</time>
      </trkpt>
      <trkpt lat="43.65102" lon="1.38513">
        <ele>135</ele>
        <time>2023-07-14T08:53:51Z</time>
      </trkpt>
      <trkpt lat="43.65101" lon="1.38516">
        <ele>135</ele>
        <time>2023-07-14T08:53:52Z</time>
      </trkpt>
      <trkpt lat="43.651" lon="1.3852">
        <ele>135</ele>
        <time>2023-07-14T08:53:53Z</time>
      </trkpt>
      <trkpt lat="43.65099" lon="1.38524">
        <ele>135</ele>
        <time>2023-07-14T08:53:54Z</time>
      </trkpt>
      <trkpt lat="43.65097" lon="1.38531">
        <ele>135</ele>
        <time>2023-07-14T08:53:55Z</time>
      </trkpt>
      <trkpt lat="43.65097" lon="1.38531">
        <ele>135</ele>
        <time>2023-07-14T08:53:56Z</time>
      </trkpt>
      <trkpt lat="43.65096" lon="1.38535">
        <ele>135</ele>
        <time>2023-07-14T08:53:57Z</time>
      </trkpt>
      <trkpt lat="43.65094" lon="1.38538">
        <ele>136</ele>
        <time>2023-07-14T08:53:58Z</time>
      </trkpt>
      <trkpt lat="43.65092" lon="1.38541">
        <ele>136</ele>
        <time>2023-07-14T08:53:59Z</time>
      </trkpt>
      <trkpt lat="43.65091" lon="1.38543">
        <ele>136</ele>
        <time>2023-07-14T08:54:00Z</time>
      </trkpt>
      <trkpt lat="43.65089" lon="1.38546">
        <ele>136</ele>
        <time>2023-07-14T08:54:01Z</time>
      </trkpt>
      <trkpt lat="43.65088" lon="1.3855">
        <ele>136</ele>
        <time>2023-07-14T08:54:02Z</time>
      </trkpt>
      <trkpt lat="43.65087" lon="1.38554">
        <ele>136</ele>
        <time>2023-07-14T08:54:03Z</time>
      </trkpt>
      <trkpt lat="43.65085" lon="1.38557">
        <ele>136</ele>
        <time>2023-07-14T08:54:04Z</time>
      </trkpt>
      <trkpt lat="43.65081" lon="1.38562">
        <ele>136</ele>
        <time>2023-07-14T08:54:05Z</time>
      </trkpt>
      <trkpt lat="43.65081" lon="1.38562">
        <ele>135</ele>
        <time>2023-07-14T08:54:06Z</time>
      </trkpt>
      <trkpt lat="43.65078" lon="1.38563">
        <ele>135</ele>
        <time>2023-07-14T08:54:07Z</time>
      </trkpt>
      <trkpt lat="43.65076" lon="1.38564">
        <ele>135</ele>
        <time>2023-07-14T08:54:08Z</time>
      </trkpt>
      <trkpt lat="43.65071" lon="1.38566">
        <ele>135</ele>
        <time>2023-07-14T08:54:09Z</time>
      </trkpt>
      <trkpt lat="43.65071" lon="1.38566">
        <ele>136</ele>
        <time>2023-07-14T08:54:10Z</time>
      </trkpt>
      <trkpt lat="43.65069" lon="1.38567">
        <ele>136</ele>
        <time>2023-07-14T08:54:11Z</time>
      </trkpt>
      <trkpt lat="43.65065" lon="1.3857">
        <ele>136</ele>
        <time>2023-07-14T08:54:12Z</time>
      </trkpt>
      <trkpt lat="43.65063" lon="1.38573">
        <ele>136</ele>
        <time>2023-07-14T08:54:13Z</time>
      </trkpt>
      <trkpt lat="43.65061" lon="1.38576">
        <ele>136</ele>
        <time>2023-07-14T08:54:14Z</time>
      </trkpt>
      <trkpt lat="43.65061" lon="1.38576">
        <ele>136</ele>
        <time>2023-07-14T08:54:15Z</time>
      </trkpt>
      <trkpt lat="43.65061" lon="1.38583">
        <ele>136</ele>
        <time>2023-07-14T08:54:16Z</time>
      </trkpt>
      <trkpt lat="43.65062" lon="1.38587">
        <ele>136</ele>
        <time>2023-07-14T08:54:17Z</time>
      </trkpt>
      <trkpt lat="43.65063" lon="1.38591">
        <ele>136</ele>
        <time>2023-07-14T08:54:18Z</time>
      </trkpt>
      <trkpt lat="43.65065" lon="1.38594">
        <ele>136</ele>
        <time>2023-07-14T08:54:19Z</time>
      </trkpt>
      <trkpt lat="43.65066" lon="1.38598">
        <ele>135</ele>
        <time>2023-07-14T08:54:20Z</time>
      </trkpt>
      <trkpt lat="43.65067" lon="1.38601">
        <ele>135</ele>
        <time>2023-07-14T08:54:21Z</time>
      </trkpt>
      <trkpt lat="43.65067" lon="1.38601">
        <ele>135</ele>
        <time>2023-07-14T08:54:22Z</time>
      </trkpt>
      <trkpt lat="43.65068" lon="1.38605">
        <ele>135</ele>
        <time>2023-07-14T08:54:23Z</time>
      </trkpt>
      <trkpt lat="43.65071" lon="1.38612">
        <ele>134</ele>
        <time>2023-07-14T08:54:24Z</time>
      </trkpt>
      <trkpt lat="43.65072" lon="1.38615">
        <ele>134</ele>
        <time>2023-07-14T08:54:25Z</time>
      </trkpt>
      <trkpt lat="43.65072" lon="1.38615">
        <ele>134</ele>
        <time>2023-07-14T08:54:26Z</time>
      </trkpt>
      <trkpt lat="43.65073" lon="1.38619">
        <ele>134</ele>
        <time>2023-07-14T08:54:27Z</time>
      </trkpt>
      <trkpt lat="43.65074" lon="1.38623">
        <ele>134</ele>
        <time>2023-07-14T08:54:28Z</time>
      </trkpt>
      <trkpt lat="43.65076" lon="1.3863">
        <ele>134</ele>
        <time>2023-07-14T08:54:29Z</time>
      </trkpt>
      <trkpt lat="43.65077" lon="1.38634">
        <ele>134</ele>
        <time>2023-07-14T08:54:30Z</time>
      </trkpt>
      <trkpt lat="43.65077" lon="1.38634">
        <ele>134</ele>
        <time>2023-07-14T08:54:31Z</time>
      </trkpt>
      <trkpt lat="43.65078" lon="1.38638">
        <ele>134</ele>
        <time>2023-07-14T08:54:32Z</time>
      </trkpt>
      <trkpt lat="43.65079" lon="1.38642">
        <ele>134</ele>
        <time>2023-07-14T08:54:33Z</time>
      </trkpt>
      <trkpt lat="43.6508" lon="1.38645">
        <ele>134</ele>
        <time>2023-07-14T08:54:34Z</time>
      </trkpt>
      <trkpt lat="43.65081" lon="1.38649">
        <ele>134</ele>
        <time>2023-07-14T08:54:35Z</time>
      </trkpt>
      <trkpt lat="43.65081" lon="1.38653">
        <ele>134</ele>
        <time>2023-07-14T08:54:36Z</time>
      </trkpt>
      <trkpt lat="43.65083" lon="1.3866">
        <ele>134</ele>
        <time>2023-07-14T08:54:37Z</time>
      </trkpt>
      <trkpt lat="43.65085" lon="1.38663">
        <ele>134</ele>
        <time>2023-07-14T08:54:38Z</time>
      </trkpt>
      <trkpt lat="43.65085" lon="1.38663">
        <ele>134</ele>
        <time>2023-07-14T08:54:39Z</time>
      </trkpt>
      <trkpt lat="43.65088" lon="1.38668">
        <ele>134</ele>
        <time>2023-07-14T08:54:40Z</time>
      </trkpt>
      <trkpt lat="43.65088" lon="1.38668">
        <ele>135</ele>
        <time>2023-07-14T08:54:41Z</time>
      </trkpt>
      <trkpt lat="43.6509" lon="1.38675">
        <ele>135</ele>
        <time>2023-07-14T08:54:42Z</time>
      </trkpt>
      <trkpt lat="43.65091" lon="1.38679">
        <ele>135</ele>
        <time>2023-07-14T08:54:43Z</time>
      </trkpt>
      <trkpt lat="43.65091" lon="1.38679">
        <ele>135</ele>
        <time>2023-07-14T08:54:44Z</time>
      </trkpt>
      <trkpt lat="43.65093" lon="1.38682">
        <ele>135</ele>
        <time>2023-07-14T08:54:45Z</time>
      </trkpt>
      <trkpt lat="43.65094" lon="1.3869">
        <ele>135</ele>
        <time>2023-07-14T08:54:46Z</time>
      </trkpt>
      <trkpt lat="43.65094" lon="1.3869">
        <ele>135</ele>
        <time>2023-07-14T08:54:47Z</time>
      </trkpt>
      <trkpt lat="43.65096" lon="1.38696">
        <ele>135</ele>
        <time>2023-07-14T08:54:48Z</time>
      </trkpt>
      <trkpt lat="43.65096" lon="1.38696">
        <ele>135</ele>
        <time>2023-07-14T08:54:49Z</time>
      </trkpt>
      <trkpt lat="43.65096" lon="1.387">
        <ele>135</ele>
        <time>2023-07-14T08:54:50Z</time>
      </trkpt>
      <trkpt lat="43.65098" lon="1.38707">
        <ele>135</ele>
        <time>2023-07-14T08:54:51Z</time>
      </trkpt>
      <trkpt lat="43.65098" lon="1.38707">
        <ele>135</ele>
        <time>2023-07-14T08:54:52Z</time>
      </trkpt>
      <trkpt lat="43.65099" lon="1.38711">
        <ele>135</ele>
        <time>2023-07-14T08:54:53Z</time>
      </trkpt>
      <trkpt lat="43.65099" lon="1.38714">
        <ele>135</ele>
        <time>2023-07-14T08:54:54Z</time>
      </trkpt>
      <trkpt lat="43.651" lon="1.38718">
        <ele>135</ele>
        <time>2023-07-14T08:54:55Z</time>
      </trkpt>
      <trkpt lat="43.65099" lon="1.38722">
        <ele>135</ele>
        <time>2023-07-14T08:54:56Z</time>
      </trkpt>
      <trkpt lat="43.65098" lon="1.38726">
        <ele>135</ele>
        <time>2023-07-14T08:54:57Z</time>
      </trkpt>
      <trkpt lat="43.65095" lon="1.38731">
        <ele>135</ele>
        <time>2023-07-14T08:54:58Z</time>
      </trkpt>
      <trkpt lat="43.65095" lon="1.38731">
        <ele>135</ele>
        <time>2023-07-14T08:54:59Z</time>
      </trkpt>
      <trkpt lat="43.65092" lon="1.38733">
        <ele>135</ele>
        <time>2023-07-14T08:55:00Z</time>
      </trkpt>
      <trkpt lat="43.65087" lon="1.38736">
        <ele>135</ele>
        <time>2023-07-14T08:55:01Z</time>
      </trkpt>
      <trkpt lat="43.65084" lon="1.38737">
        <ele>135</ele>
        <time>2023-07-14T08:55:02Z</time>
      </trkpt>
      <trkpt lat="43.65084" lon="1.38737">
        <ele>135</ele>
        <time>2023-07-14T08:55:03Z</time>
      </trkpt>
      <trkpt lat="43.65082" lon="1.38739">
        <ele>135</ele>
        <time>2023-07-14T08:55:04Z</time>
      </trkpt>
      <trkpt lat="43.65079" lon="1.3874">
        <ele>136</ele>
        <time>2023-07-14T08:55:05Z</time>
      </trkpt>
      <trkpt lat="43.65077" lon="1.38741">
        <ele>136</ele>
        <time>2023-07-14T08:55:06Z</time>
      </trkpt>
      <trkpt lat="43.65074" lon="1.38742">
        <ele>136</ele>
        <time>2023-07-14T08:55:07Z</time>
      </trkpt>
      <trkpt lat="43.65071" lon="1.38743">
        <ele>135</ele>
        <time>2023-07-14T08:55:08Z</time>
      </trkpt>
      <trkpt lat="43.65066" lon="1.38745">
        <ele>135</ele>
        <time>2023-07-14T08:55:09Z</time>
      </trkpt>
      <trkpt lat="43.65066" lon="1.38745">
        <ele>135</ele>
        <time>2023-07-14T08:55:10Z</time>
      </trkpt>
      <trkpt lat="43.65064" lon="1.38747">
        <ele>135</ele>
        <time>2023-07-14T08:55:11Z</time>
      </trkpt>
      <trkpt lat="43.65058" lon="1.38749">
        <ele>135</ele>
        <time>2023-07-14T08:55:12Z</time>
      </trkpt>
      <trkpt lat="43.65058" lon="1.38749">
        <ele>136</ele>
        <time>2023-07-14T08:55:13Z</time>
      </trkpt>
      <trkpt lat="43.65056" lon="1.3875">
        <ele>136</ele>
        <time>2023-07-14T08:55:14Z</time>
      </trkpt>
      <trkpt lat="43.65051" lon="1.38752">
        <ele>136</ele>
        <time>2023-07-14T08:55:15Z</time>
      </trkpt>
      <trkpt lat="43.65051" lon="1.38752">
        <ele>136</ele>
        <time>2023-07-14T08:55:16Z</time>
      </trkpt>
      <trkpt lat="43.65048" lon="1.38753">
        <ele>135</ele>
        <time>2023-07-14T08:55:17Z</time>
      </trkpt>
      <trkpt lat="43.65046" lon="1.38754">
        <ele>135</ele>
        <time>2023-07-14T08:55:18Z</time>
      </trkpt>
      <trkpt lat="43.65043" lon="1.38756">
        <ele>135</ele>
        <time>2023-07-14T08:55:19Z</time>
      </trkpt>
      <trkpt lat="43.65038" lon="1.38758">
        <ele>135</ele>
        <time>2023-07-14T08:55:20Z</time>
      </trkpt>
      <trkpt lat="43.65035" lon="1.38759">
        <ele>135</ele>
        <time>2023-07-14T08:55:21Z</time>
      </trkpt>
      <trkpt lat="43.65032" lon="1.38761">
        <ele>136</ele>
        <time>2023-07-14T08:55:22Z</time>
      </trkpt>
      <trkpt lat="43.65032" lon="1.38761">
        <ele>136</ele>
        <time>2023-07-14T08:55:23Z</time>
      </trkpt>
      <trkpt lat="43.6503" lon="1.38762">
        <ele>136</ele>
        <time>2023-07-14T08:55:24Z</time>
      </trkpt>
      <trkpt lat="43.6503" lon="1.38762">
        <ele>136</ele>
        <time>2023-07-14T08:55:25Z</time>
      </trkpt>
      <trkpt lat="43.6503" lon="1.38762">
        <ele>136</ele>
        <time>2023-07-14T08:55:26Z</time>
      </trkpt>
      <trkpt lat="43.65031" lon="1.3876">
        <ele>135</ele>
        <time>2023-07-14T08:55:27Z</time>
      </trkpt>
      <trkpt lat="43.65034" lon="1.38758">
        <ele>135</ele>
        <time>2023-07-14T08:55:28Z</time>
      </trkpt>
      <trkpt lat="43.65036" lon="1.38757">
        <ele>135</ele>
        <time>2023-07-14T08:55:29Z</time>
      </trkpt>
      <trkpt lat="43.65039" lon="1.38755">
        <ele>135</ele>
        <time>2023-07-14T08:55:30Z</time>
      </trkpt>
      <trkpt lat="43.65041" lon="1.38753">
        <ele>135</ele>
        <time>2023-07-14T08:55:31Z</time>
      </trkpt>
      <trkpt lat="43.65044" lon="1.38752">
        <ele>135</ele>
        <time>2023-07-14T08:55:32Z</time>
      </trkpt>
      <trkpt lat="43.65047" lon="1.3875">
        <ele>135</ele>
        <time>2023-07-14T08:55:33Z</time>
      </trkpt>
      <trkpt lat="43.65052" lon="1.38747">
        <ele>135</ele>
        <time>2023-07-14T08:55:34Z</time>
      </trkpt>
      <trkpt lat="43.65054" lon="1.38746">
        <ele>135</ele>
        <time>2023-07-14T08:55:35Z</time>
      </trkpt>
      <trkpt lat="43.65054" lon="1.38746">
        <ele>135</ele>
        <time>2023-07-14T08:55:36Z</time>
      </trkpt>
      <trkpt lat="43.6506" lon="1.38743">
        <ele>135</ele>
        <time>2023-07-14T08:55:37Z</time>
      </trkpt>
      <trkpt lat="43.65062" lon="1.38742">
        <ele>135</ele>
        <time>2023-07-14T08:55:38Z</time>
      </trkpt>
      <trkpt lat="43.65062" lon="1.38742">
        <ele>135</ele>
        <time>2023-07-14T08:55:39Z</time>
      </trkpt>
      <trkpt lat="43.65067" lon="1.3874">
        <ele>135</ele>
        <time>2023-07-14T08:55:40Z</time>
      </trkpt>
      <trkpt lat="43.65067" lon="1.3874">
        <ele>135</ele>
        <time>2023-07-14T08:55:41Z</time>
      </trkpt>
      <trkpt lat="43.65072" lon="1.38739">
        <ele>135</ele>
        <time>2023-07-14T08:55:42Z</time>
      </trkpt>
      <trkpt lat="43.65074" lon="1.38737">
        <ele>135</ele>
        <time>2023-07-14T08:55:43Z</time>
      </trkpt>
      <trkpt lat="43.65077" lon="1.38736">
        <ele>135</ele>
        <time>2023-07-14T08:55:44Z</time>
      </trkpt>
      <trkpt lat="43.65077" lon="1.38736">
        <ele>135</ele>
        <time>2023-07-14T08:55:45Z</time>
      </trkpt>
      <trkpt lat="43.65079" lon="1.38735">
        <ele>135</ele>
        <time>2023-07-14T08:55:46Z</time>
      </trkpt>
      <trkpt lat="43.65085" lon="1.38734">
        <ele>135</ele>
        <time>2023-07-14T08:55:47Z</time>
      </trkpt>
      <trkpt lat="43.65088" lon="1.38733">
        <ele>135</ele>
        <time>2023-07-14T08:55:48Z</time>
      </trkpt>
      <trkpt lat="43.65091" lon="1.38732">
        <ele>135</ele>
        <time>2023-07-14T08:55:49Z</time>
      </trkpt>
      <trkpt lat="43.65093" lon="1.38731">
        <ele>135</ele>
        <time>2023-07-14T08:55:50Z</time>
      </trkpt>
      <trkpt lat="43.65093" lon="1.38731">
        <ele>135</ele>
        <time>2023-07-14T08:55:51Z</time>
      </trkpt>
      <trkpt lat="43.65095" lon="1.38729">
        <ele>135</ele>
        <time>2023-07-14T08:55:52Z</time>
      </trkpt>
      <trkpt lat="43.65098" lon="1.38727">
        <ele>134</ele>
        <time>2023-07-14T08:55:53Z</time>
      </trkpt>
      <trkpt lat="43.651" lon="1.38726">
        <ele>134</ele>
        <time>2023-07-14T08:55:54Z</time>
      </trkpt>
      <trkpt lat="43.65101" lon="1.38723">
        <ele>134</ele>
        <time>2023-07-14T08:55:55Z</time>
      </trkpt>
      <trkpt lat="43.651" lon="1.38718">
        <ele>134</ele>
        <time>2023-07-14T08:55:56Z</time>
      </trkpt>
      <trkpt lat="43.65099" lon="1.38715">
        <ele>134</ele>
        <time>2023-07-14T08:55:57Z</time>
      </trkpt>
      <trkpt lat="43.65099" lon="1.38715">
        <ele>135</ele>
        <time>2023-07-14T08:55:58Z</time>
      </trkpt>
      <trkpt lat="43.65097" lon="1.38709">
        <ele>135</ele>
        <time>2023-07-14T08:55:59Z</time>
      </trkpt>
      <trkpt lat="43.65095" lon="1.38705">
        <ele>135</ele>
        <time>2023-07-14T08:56:00Z</time>
      </trkpt>
      <trkpt lat="43.65095" lon="1.38705">
        <ele>135</ele>
        <time>2023-07-14T08:56:01Z</time>
      </trkpt>
      <trkpt lat="43.65093" lon="1.38699">
        <ele>135</ele>
        <time>2023-07-14T08:56:02Z</time>
      </trkpt>
      <trkpt lat="43.65091" lon="1.38696">
        <ele>135</ele>
        <time>2023-07-14T08:56:03Z</time>
      </trkpt>
      <trkpt lat="43.6509" lon="1.38693">
        <ele>135</ele>
        <time>2023-07-14T08:56:04Z</time>
      </trkpt>
      <trkpt lat="43.65089" lon="1.3869">
        <ele>135</ele>
        <time>2023-07-14T08:56:05Z</time>
      </trkpt>
      <trkpt lat="43.65088" lon="1.38687">
        <ele>135</ele>
        <time>2023-07-14T08:56:06Z</time>
      </trkpt>
      <trkpt lat="43.65087" lon="1.38684">
        <ele>135</ele>
        <time>2023-07-14T08:56:07Z</time>
      </trkpt>
      <trkpt lat="43.65086" lon="1.3868">
        <ele>135</ele>
        <time>2023-07-14T08:56:08Z</time>
      </trkpt>
      <trkpt lat="43.65084" lon="1.38677">
        <ele>135</ele>
        <time>2023-07-14T08:56:09Z</time>
      </trkpt>
      <trkpt lat="43.65084" lon="1.38677">
        <ele>135</ele>
        <time>2023-07-14T08:56:10Z</time>
      </trkpt>
      <trkpt lat="43.65082" lon="1.3867">
        <ele>135</ele>
        <time>2023-07-14T08:56:11Z</time>
      </trkpt>
      <trkpt lat="43.6508" lon="1.38667">
        <ele>135</ele>
        <time>2023-07-14T08:56:12Z</time>
      </trkpt>
      <trkpt lat="43.6508" lon="1.38667">
        <ele>135</ele>
        <time>2023-07-14T08:56:13Z</time>
      </trkpt>
      <trkpt lat="43.65079" lon="1.38664">
        <ele>135</ele>
        <time>2023-07-14T08:56:14Z</time>
      </trkpt>
      <trkpt lat="43.65078" lon="1.3866">
        <ele>135</ele>
        <time>2023-07-14T08:56:15Z</time>
      </trkpt>
      <trkpt lat="43.65077" lon="1.38657">
        <ele>135</ele>
        <time>2023-07-14T08:56:16Z</time>
      </trkpt>
      <trkpt lat="43.65076" lon="1.38654">
        <ele>135</ele>
        <time>2023-07-14T08:56:17Z</time>
      </trkpt>
      <trkpt lat="43.65073" lon="1.38646">
        <ele>135</ele>
        <time>2023-07-14T08:56:18Z</time>
      </trkpt>
      <trkpt lat="43.65072" lon="1.38643">
        <ele>135</ele>
        <time>2023-07-14T08:56:19Z</time>
      </trkpt>
      <trkpt lat="43.65072" lon="1.38643">
        <ele>135</ele>
        <time>2023-07-14T08:56:20Z</time>
      </trkpt>
      <trkpt lat="43.65071" lon="1.38639">
        <ele>135</ele>
        <time>2023-07-14T08:56:21Z</time>
      </trkpt>
      <trkpt lat="43.6507" lon="1.38636">
        <ele>135</ele>
        <time>2023-07-14T08:56:22Z</time>
      </trkpt>
      <trkpt lat="43.65067" lon="1.38629">
        <ele>135</ele>
        <time>2023-07-14T08:56:23Z</time>
      </trkpt>
      <trkpt lat="43.65066" lon="1.38626">
        <ele>135</ele>
        <time>2023-07-14T08:56:24Z</time>
      </trkpt>
      <trkpt lat="43.65064" lon="1.38623">
        <ele>135</ele>
        <time>2023-07-14T08:56:25Z</time>
      </trkpt>
      <trkpt lat="43.65063" lon="1.38619">
        <ele>134</ele>
        <time>2023-07-14T08:56:26Z</time>
      </trkpt>
      <trkpt lat="43.65062" lon="1.38616">
        <ele>135</ele>
        <time>2023-07-14T08:56:27Z</time>
      </trkpt>
      <trkpt lat="43.65062" lon="1.38616">
        <ele>135</ele>
        <time>2023-07-14T08:56:28Z</time>
      </trkpt>
      <trkpt lat="43.65061" lon="1.38613">
        <ele>135</ele>
        <time>2023-07-14T08:56:29Z</time>
      </trkpt>
      <trkpt lat="43.6506" lon="1.3861">
        <ele>134</ele>
        <time>2023-07-14T08:56:30Z</time>
      </trkpt>
      <trkpt lat="43.65057" lon="1.38603">
        <ele>134</ele>
        <time>2023-07-14T08:56:31Z</time>
      </trkpt>
      <trkpt lat="43.65056" lon="1.386">
        <ele>134</ele>
        <time>2023-07-14T08:56:32Z</time>
      </trkpt>
      <trkpt lat="43.65055" lon="1.38597">
        <ele>134</ele>
        <time>2023-07-14T08:56:33Z</time>
      </trkpt>
      <trkpt lat="43.65053" lon="1.38593">
        <ele>135</ele>
        <time>2023-07-14T08:56:34Z</time>
      </trkpt>
      <trkpt lat="43.65053" lon="1.38593">
        <ele>135</ele>
        <time>2023-07-14T08:56:35Z</time>
      </trkpt>
      <trkpt lat="43.65052" lon="1.3859">
        <ele>134</ele>
        <time>2023-07-14T08:56:36Z</time>
      </trkpt>
      <trkpt lat="43.65048" lon="1.38585">
        <ele>134</ele>
        <time>2023-07-14T08:56:37Z</time>
      </trkpt>
      <trkpt lat="43.65046" lon="1.38584">
        <ele>135</ele>
        <time>2023-07-14T08:56:38Z</time>
      </trkpt>
      <trkpt lat="43.65043" lon="1.38583">
        <ele>135</ele>
        <time>2023-07-14T08:56:39Z</time>
      </trkpt>
      <trkpt lat="43.65041" lon="1.38584">
        <ele>135</ele>
        <time>2023-07-14T08:56:40Z</time>
      </trkpt>
      <trkpt lat="43.65041" lon="1.38584">
        <ele>135</ele>
        <time>2023-07-14T08:56:41Z</time>
      </trkpt>
      <trkpt lat="43.65039" lon="1.38585">
        <ele>135</ele>
        <time>2023-07-14T08:56:42Z</time>
      </trkpt>
      <trkpt lat="43.65036" lon="1.38586">
        <ele>135</ele>
        <time>2023-07-14T08:56:43Z</time>
      </trkpt>
      <trkpt lat="43.65032" lon="1.38588">
        <ele>135</ele>
        <time>2023-07-14T08:56:44Z</time>
      </trkpt>
      <trkpt lat="43.65032" lon="1.38588">
        <ele>135</ele>
        <time>2023-07-14T08:56:45Z</time>
      </trkpt>
      <trkpt lat="43.65029" lon="1.38589">
        <ele>135</ele>
        <time>2023-07-14T08:56:46Z</time>
      </trkpt>
      <trkpt lat="43.65027" lon="1.38591">
        <ele>136</ele>
        <time>2023-07-14T08:56:47Z</time>
      </trkpt>
      <trkpt lat="43.65024" lon="1.38592">
        <ele>136</ele>
        <time>2023-07-14T08:56:48Z</time>
      </trkpt>
      <trkpt lat="43.6502" lon="1.38595">
        <ele>136</ele>
        <time>2023-07-14T08:56:49Z</time>
      </trkpt>
      <trkpt lat="43.65017" lon="1.38596">
        <ele>136</ele>
        <time>2023-07-14T08:56:50Z</time>
      </trkpt>
      <trkpt lat="43.65014" lon="1.38598">
        <ele>136</ele>
        <time>2023-07-14T08:56:51Z</time>
      </trkpt>
      <trkpt lat="43.65014" lon="1.38598">
        <ele>136</ele>
        <time>2023-07-14T08:56:52Z</time>
      </trkpt>
      <trkpt lat="43.65012" lon="1.38599">
        <ele>136</ele>
        <time>2023-07-14T08:56:53Z</time>
      </trkpt>
      <trkpt lat="43.65009" lon="1.386">
        <ele>136</ele>
        <time>2023-07-14T08:56:54Z</time>
      </trkpt>
      <trkpt lat="43.65004" lon="1.38604">
        <ele>136</ele>
        <time>2023-07-14T08:56:55Z</time>
      </trkpt>
      <trkpt lat="43.65002" lon="1.38605">
        <ele>136</ele>
        <time>2023-07-14T08:56:56Z</time>
      </trkpt>
      <trkpt lat="43.65002" lon="1.38605">
        <ele>136</ele>
        <time>2023-07-14T08:56:57Z</time>
      </trkpt>
      <trkpt lat="43.64999" lon="1.38607">
        <ele>136</ele>
        <time>2023-07-14T08:56:58Z</time>
      </trkpt>
      <trkpt lat="43.64996" lon="1.38609">
        <ele>136</ele>
        <time>2023-07-14T08:56:59Z</time>
      </trkpt>
      <trkpt lat="43.64994" lon="1.3861">
        <ele>136</ele>
        <time>2023-07-14T08:57:00Z</time>
      </trkpt>
      <trkpt lat="43.64991" lon="1.38612">
        <ele>135</ele>
        <time>2023-07-14T08:57:01Z</time>
      </trkpt>
      <trkpt lat="43.64986" lon="1.38616">
        <ele>135</ele>
        <time>2023-07-14T08:57:02Z</time>
      </trkpt>
      <trkpt lat="43.64986" lon="1.38616">
        <ele>136</ele>
        <time>2023-07-14T08:57:03Z</time>
      </trkpt>
      <trkpt lat="43.64981" lon="1.38618">
        <ele>136</ele>
        <time>2023-07-14T08:57:04Z</time>
      </trkpt>
      <trkpt lat="43.64981" lon="1.38618">
        <ele>136</ele>
        <time>2023-07-14T08:57:05Z</time>
      </trkpt>
      <trkpt lat="43.64978" lon="1.3862">
        <ele>136</ele>
        <time>2023-07-14T08:57:06Z</time>
      </trkpt>
      <trkpt lat="43.64976" lon="1.38621">
        <ele>137</ele>
        <time>2023-07-14T08:57:07Z</time>
      </trkpt>
      <trkpt lat="43.64973" lon="1.38623">
        <ele>137</ele>
        <time>2023-07-14T08:57:08Z</time>
      </trkpt>
      <trkpt lat="43.6497" lon="1.38625">
        <ele>137</ele>
        <time>2023-07-14T08:57:09Z</time>
      </trkpt>
      <trkpt lat="43.64968" lon="1.38627">
        <ele>137</ele>
        <time>2023-07-14T08:57:10Z</time>
      </trkpt>
      <trkpt lat="43.64966" lon="1.38628">
        <ele>137</ele>
        <time>2023-07-14T08:57:11Z</time>
      </trkpt>
      <trkpt lat="43.6496" lon="1.38632">
        <ele>137</ele>
        <time>2023-07-14T08:57:12Z</time>
      </trkpt>
      <trkpt lat="43.6496" lon="1.38632">
        <ele>137</ele>
        <time>2023-07-14T08:57:13Z</time>
      </trkpt>
      <trkpt lat="43.64957" lon="1.38633">
        <ele>136</ele>
        <time>2023-07-14T08:57:14Z</time>
      </trkpt>
      <trkpt lat="43.64952" lon="1.38637">
        <ele>136</ele>
        <time>2023-07-14T08:57:15Z</time>
      </trkpt>
      <trkpt lat="43.64952" lon="1.38637">
        <ele>136</ele>
        <time>2023-07-14T08:57:16Z</time>
      </trkpt>
      <trkpt lat="43.6495" lon="1.38639">
        <ele>136</ele>
        <time>2023-07-14T08:57:17Z</time>
      </trkpt>
      <trkpt lat="43.64947" lon="1.38641">
        <ele>136</ele>
        <time>2023-07-14T08:57:18Z</time>
      </trkpt>
      <trkpt lat="43.64945" lon="1.38642">
        <ele>136</ele>
        <time>2023-07-14T08:57:19Z</time>
      </trkpt>
      <trkpt lat="43.64942" lon="1.38643">
        <ele>136</ele>
        <time>2023-07-14T08:57:20Z</time>
      </trkpt>
      <trkpt lat="43.64938" lon="1.38646">
        <ele>136</ele>
        <time>2023-07-14T08:57:21Z</time>
      </trkpt>
      <trkpt lat="43.64938" lon="1.38646">
        <ele>136</ele>
        <time>2023-07-14T08:57:22Z</time>
      </trkpt>
      <trkpt lat="43.64933" lon="1.38648">
        <ele>136</ele>
        <time>2023-07-14T08:57:23Z</time>
      </trkpt>
      <trkpt lat="43.64931" lon="1.38649">
        <ele>136</ele>
        <time>2023-07-14T08:57:24Z</time>
      </trkpt>
      <trkpt lat="43.64931" lon="1.38649">
        <ele>135</ele>
        <time>2023-07-14T08:57:25Z</time>
      </trkpt>
      <trkpt lat="43.64925" lon="1.38652">
        <ele>135</ele>
        <time>2023-07-14T08:57:26Z</time>
      </trkpt>
      <trkpt lat="43.64925" lon="1.38652">
        <ele>136</ele>
        <time>2023-07-14T08:57:27Z</time>
      </trkpt>
      <trkpt lat="43.64923" lon="1.38654">
        <ele>136</ele>
        <time>2023-07-14T08:57:28Z</time>
      </trkpt>
      <trkpt lat="43.6492" lon="1.38656">
        <ele>136</ele>
        <time>2023-07-14T08:57:29Z</time>
      </trkpt>
      <trkpt lat="43.64918" lon="1.38657">
        <ele>137</ele>
        <time>2023-07-14T08:57:30Z</time>
      </trkpt>
      <trkpt lat="43.64915" lon="1.38659">
        <ele>137</ele>
        <time>2023-07-14T08:57:31Z</time>
      </trkpt>
      <trkpt lat="43.64913" lon="1.38661">
        <ele>137</ele>
        <time>2023-07-14T08:57:32Z</time>
      </trkpt>
      <trkpt lat="43.64908" lon="1.38663">
        <ele>137</ele>
        <time>2023-07-14T08:57:33Z</time>
      </trkpt>
      <trkpt lat="43.64905" lon="1.38664">
        <ele>137</ele>
        <time>2023-07-14T08:57:34Z</time>
      </trkpt>
      <trkpt lat="43.64903" lon="1.38666">
        <ele>137</ele>
        <time>2023-07-14T08:57:35Z</time>
      </trkpt>
      <trkpt lat="43.64903" lon="1.38666">
        <ele>137</ele>
        <time>2023-07-14T08:57:36Z</time>
      </trkpt>
      <trkpt lat="43.64901" lon="1.38668">
        <ele>137</ele>
        <time>2023-07-14T08:57:37Z</time>
      </trkpt>
      <trkpt lat="43.64898" lon="1.3867">
        <ele>136</ele>
        <time>2023-07-14T08:57:38Z</time>
      </trkpt>
      <trkpt lat="43.64893" lon="1.38673">
        <ele>136</ele>
        <time>2023-07-14T08:57:39Z</time>
      </trkpt>
      <trkpt lat="43.64893" lon="1.38673">
        <ele>136</ele>
        <time>2023-07-14T08:57:40Z</time>
      </trkpt>
      <trkpt lat="43.6489" lon="1.38674">
        <ele>136</ele>
        <time>2023-07-14T08:57:41Z</time>
      </trkpt>
      <trkpt lat="43.64888" lon="1.38675">
        <ele>136</ele>
        <time>2023-07-14T08:57:42Z</time>
      </trkpt>
      <trkpt lat="43.64885" lon="1.38677">
        <ele>136</ele>
        <time>2023-07-14T08:57:43Z</time>
      </trkpt>
      <trkpt lat="43.64883" lon="1.38679">
        <ele>137</ele>
        <time>2023-07-14T08:57:44Z</time>
      </trkpt>
      <trkpt lat="43.64878" lon="1.38682">
        <ele>137</ele>
        <time>2023-07-14T08:57:45Z</time>
      </trkpt>
      <trkpt lat="43.64878" lon="1.38682">
        <ele>137</ele>
        <time>2023-07-14T08:57:46Z</time>
      </trkpt>
      <trkpt lat="43.64873" lon="1.38685">
        <ele>137</ele>
        <time>2023-07-14T08:57:47Z</time>
      </trkpt>
      <trkpt lat="43.64873" lon="1.38685">
        <ele>137</ele>
        <time>2023-07-14T08:57:48Z</time>
      </trkpt>
      <trkpt lat="43.64871" lon="1.38686">
        <ele>137</ele>
        <time>2023-07-14T08:57:49Z</time>
      </trkpt>
      <trkpt lat="43.64869" lon="1.38687">
        <ele>137</ele>
        <time>2023-07-14T08:57:50Z</time>
      </trkpt>
      <trkpt lat="43.64866" lon="1.38689">
        <ele>137</ele>
        <time>2023-07-14T08:57:51Z</time>
      </trkpt>
      <trkpt lat="43.64864" lon="1.38691">
        <ele>137</ele>
        <time>2023-07-14T08:57:52Z</time>
      </trkpt>
      <trkpt lat="43.64859" lon="1.38695">
        <ele>137</ele>
        <time>2023-07-14T08:57:53Z</time>
      </trkpt>
      <trkpt lat="43.64859" lon="1.38695">
        <ele>137</ele>
        <time>2023-07-14T08:57:54Z</time>
      </trkpt>
      <trkpt lat="43.64857" lon="1.38696">
        <ele>137</ele>
        <time>2023-07-14T08:57:55Z</time>
      </trkpt>
      <trkpt lat="43.64854" lon="1.38698">
        <ele>136</ele>
        <time>2023-07-14T08:57:56Z</time>
      </trkpt>
      <trkpt lat="43.6485" lon="1.38702">
        <ele>136</ele>
        <time>2023-07-14T08:57:57Z</time>
      </trkpt>
      <trkpt lat="43.6485" lon="1.38702">
        <ele>136</ele>
        <time>2023-07-14T08:57:58Z</time>
      </trkpt>
      <trkpt lat="43.64847" lon="1.38704">
        <ele>136</ele>
        <time>2023-07-14T08:57:59Z</time>
      </trkpt>
      <trkpt lat="43.64846" lon="1.38706">
        <ele>136</ele>
        <time>2023-07-14T08:58:00Z</time>
      </trkpt>
      <trkpt lat="43.64844" lon="1.38713">
        <ele>136</ele>
        <time>2023-07-14T08:58:01Z</time>
      </trkpt>
      <trkpt lat="43.64844" lon="1.38713">
        <ele>136</ele>
        <time>2023-07-14T08:58:02Z</time>
      </trkpt>
      <trkpt lat="43.64844" lon="1.38717">
        <ele>136</ele>
        <time>2023-07-14T08:58:03Z</time>
      </trkpt>
      <trkpt lat="43.64844" lon="1.38721">
        <ele>136</ele>
        <time>2023-07-14T08:58:04Z</time>
      </trkpt>
      <trkpt lat="43.64844" lon="1.38724">
        <ele>136</ele>
        <time>2023-07-14T08:58:05Z</time>
      </trkpt>
      <trkpt lat="43.64845" lon="1.38728">
        <ele>136</ele>
        <time>2023-07-14T08:58:06Z</time>
      </trkpt>
      <trkpt lat="43.64846" lon="1.38732">
        <ele>136</ele>
        <time>2023-07-14T08:58:07Z</time>
      </trkpt>
      <trkpt lat="43.64847" lon="1.38737">
        <ele>136</ele>
        <time>2023-07-14T08:58:08Z</time>
      </trkpt>
      <trkpt lat="43.64847" lon="1.38741">
        <ele>136</ele>
        <time>2023-07-14T08:58:09Z</time>
      </trkpt>
      <trkpt lat="43.64848" lon="1.38744">
        <ele>136</ele>
        <time>2023-07-14T08:58:10Z</time>
      </trkpt>
      <trkpt lat="43.64848" lon="1.38748">
        <ele>136</ele>
        <time>2023-07-14T08:58:11Z</time>
      </trkpt>
      <trkpt lat="43.6485" lon="1.38755">
        <ele>136</ele>
        <time>2023-07-14T08:58:12Z</time>
      </trkpt>
      <trkpt lat="43.6485" lon="1.38755">
        <ele>136</ele>
        <time>2023-07-14T08:58:13Z</time>
      </trkpt>
      <trkpt lat="43.64851" lon="1.38759">
        <ele>136</ele>
        <time>2023-07-14T08:58:14Z</time>
      </trkpt>
      <trkpt lat="43.64852" lon="1.38767">
        <ele>136</ele>
        <time>2023-07-14T08:58:15Z</time>
      </trkpt>
      <trkpt lat="43.64852" lon="1.38767">
        <ele>136</ele>
        <time>2023-07-14T08:58:16Z</time>
      </trkpt>
      <trkpt lat="43.64853" lon="1.38771">
        <ele>136</ele>
        <time>2023-07-14T08:58:17Z</time>
      </trkpt>
      <trkpt lat="43.64854" lon="1.38775">
        <ele>136</ele>
        <time>2023-07-14T08:58:18Z</time>
      </trkpt>
      <trkpt lat="43.64855" lon="1.38779">
        <ele>136</ele>
        <time>2023-07-14T08:58:19Z</time>
      </trkpt>
      <trkpt lat="43.64856" lon="1.38783">
        <ele>136</ele>
        <time>2023-07-14T08:58:20Z</time>
      </trkpt>
      <trkpt lat="43.64856" lon="1.38787">
        <ele>136</ele>
        <time>2023-07-14T08:58:21Z</time>
      </trkpt>
      <trkpt lat="43.64856" lon="1.38791">
        <ele>136</ele>
        <time>2023-07-14T08:58:22Z</time>
      </trkpt>
      <trkpt lat="43.64856" lon="1.38795">
        <ele>136</ele>
        <time>2023-07-14T08:58:23Z</time>
      </trkpt>
      <trkpt lat="43.64856" lon="1.38799">
        <ele>136</ele>
        <time>2023-07-14T08:58:24Z</time>
      </trkpt>
      <trkpt lat="43.64856" lon="1.38802">
        <ele>136</ele>
        <time>2023-07-14T08:58:25Z</time>
      </trkpt>
      <trkpt lat="43.64856" lon="1.38802">
        <ele>136</ele>
        <time>2023-07-14T08:58:26Z</time>
      </trkpt>
      <trkpt lat="43.64856" lon="1.38802">
        <ele>136</ele>
        <time>2023-07-14T08:58:27Z</time>
      </trkpt>
      <trkpt lat="43.64856" lon="1.38802">
        <ele>136</ele>
        <time>2023-07-14T08:58:28Z</time>
      </trkpt>
      <trkpt lat="43.64855" lon="1.38797">
        <ele>136</ele>
        <time>2023-07-14T08:58:29Z</time>
      </trkpt>
      <trkpt lat="43.64853" lon="1.38793">
        <ele>136</ele>
        <time>2023-07-14T08:58:30Z</time>
      </trkpt>
      <trkpt lat="43.64851" lon="1.38785">
        <ele>136</ele>
        <time>2023-07-14T08:58:31Z</time>
      </trkpt>
      <trkpt lat="43.64851" lon="1.38785">
        <ele>136</ele>
        <time>2023-07-14T08:58:32Z</time>
      </trkpt>
      <trkpt lat="43.64849" lon="1.38778">
        <ele>136</ele>
        <time>2023-07-14T08:58:33Z</time>
      </trkpt>
      <trkpt lat="43.64849" lon="1.38778">
        <ele>136</ele>
        <time>2023-07-14T08:58:34Z</time>
      </trkpt>
      <trkpt lat="43.64847" lon="1.3877">
        <ele>136</ele>
        <time>2023-07-14T08:58:35Z</time>
      </trkpt>
      <trkpt lat="43.64847" lon="1.3877">
        <ele>136</ele>
        <time>2023-07-14T08:58:36Z</time>
      </trkpt>
      <trkpt lat="43.64846" lon="1.38767">
        <ele>136</ele>
        <time>2023-07-14T08:58:37Z</time>
      </trkpt>
      <trkpt lat="43.64845" lon="1.38759">
        <ele>136</ele>
        <time>2023-07-14T08:58:38Z</time>
      </trkpt>
      <trkpt lat="43.64844" lon="1.38755">
        <ele>136</ele>
        <time>2023-07-14T08:58:39Z</time>
      </trkpt>
      <trkpt lat="43.64844" lon="1.38755">
        <ele>136</ele>
        <time>2023-07-14T08:58:40Z</time>
      </trkpt>
      <trkpt lat="43.64842" lon="1.38747">
        <ele>136</ele>
        <time>2023-07-14T08:58:41Z</time>
      </trkpt>
      <trkpt lat="43.64841" lon="1.38743">
        <ele>136</ele>
        <time>2023-07-14T08:58:42Z</time>
      </trkpt>
      <trkpt lat="43.64841" lon="1.38743">
        <ele>136</ele>
        <time>2023-07-14T08:58:43Z</time>
      </trkpt>
      <trkpt lat="43.6484" lon="1.3874">
        <ele>136</ele>
        <time>2023-07-14T08:58:44Z</time>
      </trkpt>
      <trkpt lat="43.64839" lon="1.38733">
        <ele>136</ele>
        <time>2023-07-14T08:58:45Z</time>
      </trkpt>
      <trkpt lat="43.64839" lon="1.38729">
        <ele>136</ele>
        <time>2023-07-14T08:58:46Z</time>
      </trkpt>
      <trkpt lat="43.64839" lon="1.38729">
        <ele>136</ele>
        <time>2023-07-14T08:58:47Z</time>
      </trkpt>
      <trkpt lat="43.64838" lon="1.38726">
        <ele>136</ele>
        <time>2023-07-14T08:58:48Z</time>
      </trkpt>
      <trkpt lat="43.64837" lon="1.38723">
        <ele>136</ele>
        <time>2023-07-14T08:58:49Z</time>
      </trkpt>
      <trkpt lat="43.64833" lon="1.38719">
        <ele>136</ele>
        <time>2023-07-14T08:58:50Z</time>
      </trkpt>
      <trkpt lat="43.64833" lon="1.38719">
        <ele>136</ele>
        <time>2023-07-14T08:58:51Z</time>
      </trkpt>
      <trkpt lat="43.64833" lon="1.38719">
        <ele>136</ele>
        <time>2023-07-14T08:58:52Z</time>
      </trkpt>
      <trkpt lat="43.6483" lon="1.38718">
        <ele>136</ele>
        <time>2023-07-14T08:58:53Z</time>
      </trkpt>
      <trkpt lat="43.64827" lon="1.38717">
        <ele>136</ele>
        <time>2023-07-14T08:58:54Z</time>
      </trkpt>
      <trkpt lat="43.64827" lon="1.38717">
        <ele>136</ele>
        <time>2023-07-14T08:58:55Z</time>
      </trkpt>
      <trkpt lat="43.64827" lon="1.38717">
        <ele>136</ele>
        <time>2023-07-14T08:58:56Z</time>
      </trkpt>
      <trkpt lat="43.64827" lon="1.38717">
        <ele>136</ele>
        <time>2023-07-14T08:58:57Z</time>
      </trkpt>
      <trkpt lat="43.64827" lon="1.38717">
        <ele>136</ele>
        <time>2023-07-14T08:58:58Z</time>
      </trkpt>
      <trkpt lat="43.64827" lon="1.38717">
        <ele>136</ele>
        <time>2023-07-14T08:58:59Z</time>
      </trkpt>
      <trkpt lat="43.64827" lon="1.38717">
        <ele>136</ele>
        <time>2023-07-14T08:59:00Z</time>
      </trkpt>
      <trkpt lat="43.64827" lon="1.38717">
        <ele>136</ele>
        <time>2023-07-14T08:59:01Z</time>
      </trkpt>
      <trkpt lat="43.64827" lon="1.38717">
        <ele>136</ele>
        <time>2023-07-14T08:59:02Z</time>
      </trkpt>
      <trkpt lat="43.64827" lon="1.38717">
        <ele>136</ele>
        <time>2023-07-14T08:59:03Z</time>
      </trkpt>
      <trkpt lat="43.64827" lon="1.38717">
        <ele>136</ele>
        <time>2023-07-14T08:59:04Z</time>
      </trkpt>
      <trkpt lat="43.64827" lon="1.38717">
        <ele>136</ele>
        <time>2023-07-14T08:59:05Z</time>
      </trkpt>
      <trkpt lat="43.64827" lon="1.38717">
        <ele>136</ele>
        <time>2023-07-14T08:59:06Z</time>
      </trkpt>
      <trkpt lat="43.64827" lon="1.38717">
        <ele>136</ele>
        <time>2023-07-14T08:59:07Z</time>
      </trkpt>
      <trkpt lat="43.64827" lon="1.38717">
        <ele>136</ele>
        <time>2023-07-14T08:59:08Z</time>
      </trkpt>
      <trkpt lat="43.64827" lon="1.38717">
        <ele>136</ele>
        <time>2023-07-14T08:59:09Z</time>
      </trkpt>
      <trkpt lat="43.64827" lon="1.38717">
        <ele>136</ele>
        <time>2023-07-14T08:59:10Z</time>
      </trkpt>
      <trkpt lat="43.64827" lon="1.38717">
        <ele>136</ele>
        <time>2023-07-14T08:59:11Z</time>
      </trkpt>
      <trkpt lat="43.64827" lon="1.38717">
        <ele>136</ele>
        <time>2023-07-14T08:59:12Z</time>
      </trkpt>
      <trkpt lat="43.64827" lon="1.38717">
        <ele>136</ele>
        <time>2023-07-14T08:59:13Z</time>
      </trkpt>
      <trkpt lat="43.64827" lon="1.38717">
        <ele>136</ele>
        <time>2023-07-14T08:59:14Z</time>
      </trkpt>
      <trkpt lat="43.64827" lon="1.38717">
        <ele>136</ele>
        <time>2023-07-14T08:59:15Z</time>
      </trkpt>
      <trkpt lat="43.64827" lon="1.38717">
        <ele>136</ele>
        <time>2023-07-14T08:59:16Z</time>
      </trkpt>
      <trkpt lat="43.64827" lon="1.38717">
        <ele>136</ele>
        <time>2023-07-14T08:59:17Z</time>
      </trkpt>
      <trkpt lat="43.64827" lon="1.38717">
        <ele>136</ele>
        <time>2023-07-14T08:59:18Z</time>
      </trkpt>
      <trkpt lat="43.64827" lon="1.38717">
        <ele>136</ele>
        <time>2023-07-14T08:59:19Z</time>
      </trkpt>
      <trkpt lat="43.64827" lon="1.38717">
        <ele>136</ele>
        <time>2023-07-14T08:59:20Z</time>
      </trkpt>
      <trkpt lat="43.64827" lon="1.38717">
        <ele>136</ele>
        <time>2023-07-14T08:59:21Z</time>
      </trkpt>
      <trkpt lat="43.64827" lon="1.38717">
        <ele>136</ele>
        <time>2023-07-14T08:59:22Z</time>
      </trkpt>
      <trkpt lat="43.64827" lon="1.38717">
        <ele>136</ele>
        <time>2023-07-14T08:59:23Z</time>
      </trkpt>
      <trkpt lat="43.64827" lon="1.38717">
        <ele>136</ele>
        <time>2023-07-14T08:59:24Z</time>
      </trkpt>
      <trkpt lat="43.64827" lon="1.38717">
        <ele>137</ele>
        <time>2023-07-14T08:59:25Z</time>
      </trkpt>
      <trkpt lat="43.64827" lon="1.38717">
        <ele>137</ele>
        <time>2023-07-14T08:59:26Z</time>
      </trkpt>
      <trkpt lat="43.64827" lon="1.38717">
        <ele>137</ele>
        <time>2023-07-14T08:59:27Z</time>
      </trkpt>
      <trkpt lat="43.64827" lon="1.38717">
        <ele>137</ele>
        <time>2023-07-14T08:59:28Z</time>
      </trkpt>
      <trkpt lat="43.64827" lon="1.38717">
        <ele>137</ele>
        <time>2023-07-14T08:59:29Z</time>
      </trkpt>
      <trkpt lat="43.64827" lon="1.38717">
        <ele>137</ele>
        <time>2023-07-14T08:59:30Z</time>
      </trkpt>
      <trkpt lat="43.64827" lon="1.38717">
        <ele>137</ele>
        <time>2023-07-14T08:59:31Z</time>
      </trkpt>
      <trkpt lat="43.64827" lon="1.38717">
        <ele>137</ele>
        <time>2023-07-14T08:59:32Z</time>
      </trkpt>
      <trkpt lat="43.64827" lon="1.38717">
        <ele>137</ele>
        <time>2023-07-14T08:59:33Z</time>
      </trkpt>
      <trkpt lat="43.64827" lon="1.38717">
        <ele>137</ele>
        <time>2023-07-14T08:59:34Z</time>
      </trkpt>
      <trkpt lat="43.64827" lon="1.38717">
        <ele>137</ele>
        <time>2023-07-14T08:59:35Z</time>
      </trkpt>
      <trkpt lat="43.64827" lon="1.38717">
        <ele>137</ele>
        <time>2023-07-14T08:59:36Z</time>
      </trkpt>
      <trkpt lat="43.64827" lon="1.38717">
        <ele>137</ele>
        <time>2023-07-14T08:59:37Z</time>
      </trkpt>
      <trkpt lat="43.64827" lon="1.38717">
        <ele>137</ele>
        <time>2023-07-14T08:59:38Z</time>
      </trkpt>
      <trkpt lat="43.64827" lon="1.38717">
        <ele>137</ele>
        <time>2023-07-14T08:59:39Z</time>
      </trkpt>
      <trkpt lat="43.64827" lon="1.38717">
        <ele>137</ele>
        <time>2023-07-14T08:59:40Z</time>
      </trkpt>
      <trkpt lat="43.64827" lon="1.38717">
        <ele>137</ele>
        <time>2023-07-14T08:59:41Z</time>
      </trkpt>
      <trkpt lat="43.64827" lon="1.38717">
        <ele>137</ele>
        <time>2023-07-14T08:59:42Z</time>
      </trkpt>
      <trkpt lat="43.64827" lon="1.38717">
        <ele>137</ele>
        <time>2023-07-14T08:59:43Z</time>
      </trkpt>
      <trkpt lat="43.64827" lon="1.38717">
        <ele>137</ele>
        <time>2023-07-14T08:59:44Z</time>
      </trkpt>
      <trkpt lat="43.64827" lon="1.38717">
        <ele>137</ele>
        <time>2023-07-14T08:59:45Z</time>
      </trkpt>
      <trkpt lat="43.64827" lon="1.38717">
        <ele>137</ele>
        <time>2023-07-14T08:59:46Z</time>
      </trkpt>
      <trkpt lat="43.64827" lon="1.38717">
        <ele>137</ele>
        <time>2023-07-14T08:59:47Z</time>
      </trkpt>
      <trkpt lat="43.64827" lon="1.38717">
        <ele>137</ele>
        <time>2023-07-14T08:59:48Z</time>
      </trkpt>
      <trkpt lat="43.64827" lon="1.38717">
        <ele>137</ele>
        <time>2023-07-14T08:59:49Z</time>
      </trkpt>
      <trkpt lat="43.64827" lon="1.38717">
        <ele>137</ele>
        <time>2023-07-14T08:59:50Z</time>
      </trkpt>
      <trkpt lat="43.64827" lon="1.38717">
        <ele>137</ele>
        <time>2023-07-14T08:59:51Z</time>
      </trkpt>
      <trkpt lat="43.64827" lon="1.38717">
        <ele>137</ele>
        <time>2023-07-14T08:59:52Z</time>
      </trkpt>
      <trkpt lat="43.64825" lon="1.38717">
        <ele>137</ele>
        <time>2023-07-14T08:59:53Z</time>
      </trkpt>
      <trkpt lat="43.64825" lon="1.38717">
        <ele>137</ele>
        <time>2023-07-14T08:59:54Z</time>
      </trkpt>
      <trkpt lat="43.64825" lon="1.38717">
        <ele>137</ele>
        <time>2023-07-14T08:59:55Z</time>
      </trkpt>
      <trkpt lat="43.64825" lon="1.38717">
        <ele>137</ele>
        <time>2023-07-14T08:59:56Z</time>
      </trkpt>
      <trkpt lat="43.64825" lon="1.38717">
        <ele>136</ele>
        <time>2023-07-14T08:59:57Z</time>
      </trkpt>
      <trkpt lat="43.64825" lon="1.38717">
        <ele>136</ele>
        <time>2023-07-14T08:59:58Z</time>
      </trkpt>
      <trkpt lat="43.64825" lon="1.38717">
        <ele>136</ele>
        <time>2023-07-14T08:59:59Z</time>
      </trkpt>
      <trkpt lat="43.64825" lon="1.38717">
        <ele>136</ele>
        <time>2023-07-14T09:00:00Z</time>
      </trkpt>
      <trkpt lat="43.64825" lon="1.38717">
        <ele>136</ele>
        <time>2023-07-14T09:00:01Z</time>
      </trkpt>
      <trkpt lat="43.64825" lon="1.38717">
        <ele>136</ele>
        <time>2023-07-14T09:00:02Z</time>
      </trkpt>
      <trkpt lat="43.64825" lon="1.38717">
        <ele>136</ele>
        <time>2023-07-14T09:00:03Z</time>
      </trkpt>
      <trkpt lat="43.64823" lon="1.38719">
        <ele>136</ele>
        <time>2023-07-14T09:00:04Z</time>
      </trkpt>
      <trkpt lat="43.64823" lon="1.38719">
        <ele>136</ele>
        <time>2023-07-14T09:00:05Z</time>
      </trkpt>
      <trkpt lat="43.64821" lon="1.38721">
        <ele>136</ele>
        <time>2023-07-14T09:00:06Z</time>
      </trkpt>
      <trkpt lat="43.64821" lon="1.38721">
        <ele>136</ele>
        <time>2023-07-14T09:00:07Z</time>
      </trkpt>
      <trkpt lat="43.64819" lon="1.38723">
        <ele>136</ele>
        <time>2023-07-14T09:00:08Z</time>
      </trkpt>
      <trkpt lat="43.64819" lon="1.38723">
        <ele>136</ele>
        <time>2023-07-14T09:00:09Z</time>
      </trkpt>
      <trkpt lat="43.64817" lon="1.38725">
        <ele>136</ele>
        <time>2023-07-14T09:00:10Z</time>
      </trkpt>
      <trkpt lat="43.64814" lon="1.38727">
        <ele>136</ele>
        <time>2023-07-14T09:00:11Z</time>
      </trkpt>
      <trkpt lat="43.64814" lon="1.38727">
        <ele>136</ele>
        <time>2023-07-14T09:00:12Z</time>
      </trkpt>
      <trkpt lat="43.64814" lon="1.38727">
        <ele>136</ele>
        <time>2023-07-14T09:00:13Z</time>
      </trkpt>
      <trkpt lat="43.64812" lon="1.38729">
        <ele>136</ele>
        <time>2023-07-14T09:00:14Z</time>
      </trkpt>
      <trkpt lat="43.64812" lon="1.38729">
        <ele>136</ele>
        <time>2023-07-14T09:00:15Z</time>
      </trkpt>
      <trkpt lat="43.64809" lon="1.38731">
        <ele>136</ele>
        <time>2023-07-14T09:00:16Z</time>
      </trkpt>
      <trkpt lat="43.64809" lon="1.38731">
        <ele>136</ele>
        <time>2023-07-14T09:00:17Z</time>
      </trkpt>
      <trkpt lat="43.64807" lon="1.38732">
        <ele>136</ele>
        <time>2023-07-14T09:00:18Z</time>
      </trkpt>
      <trkpt lat="43.64807" lon="1.38732">
        <ele>136</ele>
        <time>2023-07-14T09:00:19Z</time>
      </trkpt>
      <trkpt lat="43.64805" lon="1.38733">
        <ele>136</ele>
        <time>2023-07-14T09:00:20Z</time>
      </trkpt>
      <trkpt lat="43.64805" lon="1.38733">
        <ele>137</ele>
        <time>2023-07-14T09:00:21Z</time>
      </trkpt>
      <trkpt lat="43.64802" lon="1.38735">
        <ele>137</ele>
        <time>2023-07-14T09:00:22Z</time>
      </trkpt>
      <trkpt lat="43.648" lon="1.38736">
        <ele>137</ele>
        <time>2023-07-14T09:00:23Z</time>
      </trkpt>
      <trkpt lat="43.64798" lon="1.38738">
        <ele>136</ele>
        <time>2023-07-14T09:00:24Z</time>
      </trkpt>
      <trkpt lat="43.64792" lon="1.38742">
        <ele>136</ele>
        <time>2023-07-14T09:00:25Z</time>
      </trkpt>
      <trkpt lat="43.64792" lon="1.38742">
        <ele>136</ele>
        <time>2023-07-14T09:00:26Z</time>
      </trkpt>
      <trkpt lat="43.6479" lon="1.38743">
        <ele>136</ele>
        <time>2023-07-14T09:00:27Z</time>
      </trkpt>
      <trkpt lat="43.64787" lon="1.38745">
        <ele>136</ele>
        <time>2023-07-14T09:00:28Z</time>
      </trkpt>
      <trkpt lat="43.64785" lon="1.38746">
        <ele>137</ele>
        <time>2023-07-14T09:00:29Z</time>
      </trkpt>
      <trkpt lat="43.64782" lon="1.38748">
        <ele>137</ele>
        <time>2023-07-14T09:00:30Z</time>
      </trkpt>
      <trkpt lat="43.6478" lon="1.38751">
        <ele>137</ele>
        <time>2023-07-14T09:00:31Z</time>
      </trkpt>
      <trkpt lat="43.64777" lon="1.38753">
        <ele>137</ele>
        <time>2023-07-14T09:00:32Z</time>
      </trkpt>
      <trkpt lat="43.64775" lon="1.38755">
        <ele>136</ele>
        <time>2023-07-14T09:00:33Z</time>
      </trkpt>
      <trkpt lat="43.64772" lon="1.38757">
        <ele>136</ele>
        <time>2023-07-14T09:00:34Z</time>
      </trkpt>
      <trkpt lat="43.6477" lon="1.38759">
        <ele>136</ele>
        <time>2023-07-14T09:00:35Z</time>
      </trkpt>
      <trkpt lat="43.64767" lon="1.38761">
        <ele>136</ele>
        <time>2023-07-14T09:00:36Z</time>
      </trkpt>
      <trkpt lat="43.64765" lon="1.38764">
        <ele>136</ele>
        <time>2023-07-14T09:00:37Z</time>
      </trkpt>
      <trkpt lat="43.6476" lon="1.38768">
        <ele>136</ele>
        <time>2023-07-14T09:00:38Z</time>
      </trkpt>
      <trkpt lat="43.6476" lon="1.38768">
        <ele>136</ele>
        <time>2023-07-14T09:00:39Z</time>
      </trkpt>
      <trkpt lat="43.64757" lon="1.3877">
        <ele>136</ele>
        <time>2023-07-14T09:00:40Z</time>
      </trkpt>
      <trkpt lat="43.64754" lon="1.38771">
        <ele>136</ele>
        <time>2023-07-14T09:00:41Z</time>
      </trkpt>
      <trkpt lat="43.64751" lon="1.38773">
        <ele>136</ele>
        <time>2023-07-14T09:00:42Z</time>
      </trkpt>
      <trkpt lat="43.64749" lon="1.38775">
        <ele>136</ele>
        <time>2023-07-14T09:00:43Z</time>
      </trkpt>
      <trkpt lat="43.64744" lon="1.38778">
        <ele>136</ele>
        <time>2023-07-14T09:00:44Z</time>
      </trkpt>
      <trkpt lat="43.64744" lon="1.38778">
        <ele>136</ele>
        <time>2023-07-14T09:00:45Z</time>
      </trkpt>
      <trkpt lat="43.64741" lon="1.3878">
        <ele>137</ele>
        <time>2023-07-14T09:00:46Z</time>
      </trkpt>
      <trkpt lat="43.64739" lon="1.38782">
        <ele>137</ele>
        <time>2023-07-14T09:00:47Z</time>
      </trkpt>
      <trkpt lat="43.64736" lon="1.38784">
        <ele>137</ele>
        <time>2023-07-14T09:00:48Z</time>
      </trkpt>
      <trkpt lat="43.64734" lon="1.38786">
        <ele>137</ele>
        <time>2023-07-14T09:00:49Z</time>
      </trkpt>
      <trkpt lat="43.64731" lon="1.38788">
        <ele>137</ele>
        <time>2023-07-14T09:00:50Z</time>
      </trkpt>
      <trkpt lat="43.64728" lon="1.38789">
        <ele>137</ele>
        <time>2023-07-14T09:00:51Z</time>
      </trkpt>
      <trkpt lat="43.64726" lon="1.38791">
        <ele>137</ele>
        <time>2023-07-14T09:00:52Z</time>
      </trkpt>
      <trkpt lat="43.64723" lon="1.38793">
        <ele>137</ele>
        <time>2023-07-14T09:00:53Z</time>
      </trkpt>
      <trkpt lat="43.6472" lon="1.38794">
        <ele>137</ele>
        <time>2023-07-14T09:00:54Z</time>
      </trkpt>
      <trkpt lat="43.64714" lon="1.38798">
        <ele>137</ele>
        <time>2023-07-14T09:00:55Z</time>
      </trkpt>
      <trkpt lat="43.64714" lon="1.38798">
        <ele>137</ele>
        <time>2023-07-14T09:00:56Z</time>
      </trkpt>
      <trkpt lat="43.64711" lon="1.38799">
        <ele>137</ele>
        <time>2023-07-14T09:00:57Z</time>
      </trkpt>
      <trkpt lat="43.64709" lon="1.38801">
        <ele>137</ele>
        <time>2023-07-14T09:00:58Z</time>
      </trkpt>
      <trkpt lat="43.64706" lon="1.38802">
        <ele>137</ele>
        <time>2023-07-14T09:00:59Z</time>
      </trkpt>
      <trkpt lat="43.64703" lon="1.38804">
        <ele>137</ele>
        <time>2023-07-14T09:01:00Z</time>
      </trkpt>
      <trkpt lat="43.647" lon="1.38805">
        <ele>137</ele>
        <time>2023-07-14T09:01:01Z</time>
      </trkpt>
      <trkpt lat="43.64697" lon="1.38807">
        <ele>137</ele>
        <time>2023-07-14T09:01:02Z</time>
      </trkpt>
      <trkpt lat="43.64694" lon="1.38808">
        <ele>137</ele>
        <time>2023-07-14T09:01:03Z</time>
      </trkpt>
      <trkpt lat="43.6469" lon="1.3881">
        <ele>137</ele>
        <time>2023-07-14T09:01:04Z</time>
      </trkpt>
      <trkpt lat="43.64688" lon="1.38811">
        <ele>137</ele>
        <time>2023-07-14T09:01:05Z</time>
      </trkpt>
      <trkpt lat="43.64683" lon="1.38813">
        <ele>137</ele>
        <time>2023-07-14T09:01:06Z</time>
      </trkpt>
      <trkpt lat="43.6468" lon="1.38814">
        <ele>137</ele>
        <time>2023-07-14T09:01:07Z</time>
      </trkpt>
      <trkpt lat="43.6468" lon="1.38814">
        <ele>137</ele>
        <time>2023-07-14T09:01:08Z</time>
      </trkpt>
      <trkpt lat="43.64677" lon="1.38815">
        <ele>137</ele>
        <time>2023-07-14T09:01:09Z</time>
      </trkpt>
      <trkpt lat="43.64674" lon="1.38817">
        <ele>137</ele>
        <time>2023-07-14T09:01:10Z</time>
      </trkpt>
      <trkpt lat="43.64671" lon="1.38819">
        <ele>138</ele>
        <time>2023-07-14T09:01:11Z</time>
      </trkpt>
      <trkpt lat="43.64668" lon="1.3882">
        <ele>138</ele>
        <time>2023-07-14T09:01:12Z</time>
      </trkpt>
      <trkpt lat="43.64665" lon="1.38822">
        <ele>138</ele>
        <time>2023-07-14T09:01:13Z</time>
      </trkpt>
      <trkpt lat="43.64662" lon="1.38824">
        <ele>138</ele>
        <time>2023-07-14T09:01:14Z</time>
      </trkpt>
      <trkpt lat="43.6466" lon="1.38825">
        <ele>138</ele>
        <time>2023-07-14T09:01:15Z</time>
      </trkpt>
      <trkpt lat="43.64657" lon="1.38825">
        <ele>138</ele>
        <time>2023-07-14T09:01:16Z</time>
      </trkpt>
      <trkpt lat="43.64654" lon="1.38826">
        <ele>137</ele>
        <time>2023-07-14T09:01:17Z</time>
      </trkpt>
      <trkpt lat="43.64651" lon="1.38827">
        <ele>137</ele>
        <time>2023-07-14T09:01:18Z</time>
      </trkpt>
      <trkpt lat="43.64649" lon="1.38828">
        <ele>137</ele>
        <time>2023-07-14T09:01:19Z</time>
      </trkpt>
      <trkpt lat="43.64643" lon="1.38831">
        <ele>137</ele>
        <time>2023-07-14T09:01:20Z</time>
      </trkpt>
      <trkpt lat="43.64643" lon="1.38831">
        <ele>137</ele>
        <time>2023-07-14T09:01:21Z</time>
      </trkpt>
      <trkpt lat="43.64637" lon="1.38834">
        <ele>138</ele>
        <time>2023-07-14T09:01:22Z</time>
      </trkpt>
      <trkpt lat="43.64637" lon="1.38834">
        <ele>138</ele>
        <time>2023-07-14T09:01:23Z</time>
      </trkpt>
      <trkpt lat="43.64634" lon="1.38836">
        <ele>138</ele>
        <time>2023-07-14T09:01:24Z</time>
      </trkpt>
      <trkpt lat="43.64631" lon="1.38837">
        <ele>138</ele>
        <time>2023-07-14T09:01:25Z</time>
      </trkpt>
      <trkpt lat="43.64629" lon="1.38838">
        <ele>138</ele>
        <time>2023-07-14T09:01:26Z</time>
      </trkpt>
      <trkpt lat="43.64626" lon="1.3884">
        <ele>138</ele>
        <time>2023-07-14T09:01:27Z</time>
      </trkpt>
      <trkpt lat="43.64623" lon="1.38841">
        <ele>137</ele>
        <time>2023-07-14T09:01:28Z</time>
      </trkpt>
      <trkpt lat="43.6462" lon="1.38842">
        <ele>137</ele>
        <time>2023-07-14T09:01:29Z</time>
      </trkpt>
      <trkpt lat="43.64618" lon="1.38843">
        <ele>138</ele>
        <time>2023-07-14T09:01:30Z</time>
      </trkpt>
      <trkpt lat="43.64615" lon="1.38845">
        <ele>138</ele>
        <time>2023-07-14T09:01:31Z</time>
      </trkpt>
      <trkpt lat="43.64612" lon="1.38846">
        <ele>138</ele>
        <time>2023-07-14T09:01:32Z</time>
      </trkpt>
      <trkpt lat="43.64609" lon="1.38847">
        <ele>138</ele>
        <time>2023-07-14T09:01:33Z</time>
      </trkpt>
      <trkpt lat="43.64606" lon="1.38849">
        <ele>138</ele>
        <time>2023-07-14T09:01:34Z</time>
      </trkpt>
      <trkpt lat="43.64604" lon="1.3885">
        <ele>137</ele>
        <time>2023-07-14T09:01:35Z</time>
      </trkpt>
      <trkpt lat="43.64602" lon="1.38852">
        <ele>137</ele>
        <time>2023-07-14T09:01:36Z</time>
      </trkpt>
      <trkpt lat="43.64603" lon="1.38859">
        <ele>138</ele>
        <time>2023-07-14T09:01:37Z</time>
      </trkpt>
      <trkpt lat="43.64603" lon="1.38859">
        <ele>138</ele>
        <time>2023-07-14T09:01:38Z</time>
      </trkpt>
      <trkpt lat="43.64603" lon="1.38863">
        <ele>138</ele>
        <time>2023-07-14T09:01:39Z</time>
      </trkpt>
      <trkpt lat="43.64605" lon="1.38867">
        <ele>138</ele>
        <time>2023-07-14T09:01:40Z</time>
      </trkpt>
      <trkpt lat="43.64607" lon="1.38875">
        <ele>138</ele>
        <time>2023-07-14T09:01:41Z</time>
      </trkpt>
      <trkpt lat="43.64607" lon="1.38875">
        <ele>138</ele>
        <time>2023-07-14T09:01:42Z</time>
      </trkpt>
      <trkpt lat="43.64608" lon="1.38879">
        <ele>138</ele>
        <time>2023-07-14T09:01:43Z</time>
      </trkpt>
      <trkpt lat="43.64609" lon="1.38883">
        <ele>138</ele>
        <time>2023-07-14T09:01:44Z</time>
      </trkpt>
      <trkpt lat="43.6461" lon="1.38886">
        <ele>138</ele>
        <time>2023-07-14T09:01:45Z</time>
      </trkpt>
      <trkpt lat="43.64611" lon="1.3889">
        <ele>137</ele>
        <time>2023-07-14T09:01:46Z</time>
      </trkpt>
      <trkpt lat="43.64613" lon="1.38893">
        <ele>137</ele>
        <time>2023-07-14T09:01:47Z</time>
      </trkpt>
      <trkpt lat="43.64614" lon="1.38901">
        <ele>137</ele>
        <time>2023-07-14T09:01:48Z</time>
      </trkpt>
      <trkpt lat="43.64614" lon="1.38901">
        <ele>137</ele>
        <time>2023-07-14T09:01:49Z</time>
      </trkpt>
      <trkpt lat="43.64615" lon="1.38905">
        <ele>138</ele>
        <time>2023-07-14T09:01:50Z</time>
      </trkpt>
      <trkpt lat="43.64616" lon="1.38909">
        <ele>138</ele>
        <time>2023-07-14T09:01:51Z</time>
      </trkpt>
      <trkpt lat="43.64617" lon="1.38912">
        <ele>138</ele>
        <time>2023-07-14T09:01:52Z</time>
      </trkpt>
      <trkpt lat="43.64618" lon="1.38917">
        <ele>137</ele>
        <time>2023-07-14T09:01:53Z</time>
      </trkpt>
      <trkpt lat="43.64619" lon="1.38921">
        <ele>137</ele>
        <time>2023-07-14T09:01:54Z</time>
      </trkpt>
      <trkpt lat="43.6462" lon="1.38924">
        <ele>137</ele>
        <time>2023-07-14T09:01:55Z</time>
      </trkpt>
      <trkpt lat="43.64621" lon="1.38928">
        <ele>137</ele>
        <time>2023-07-14T09:01:56Z</time>
      </trkpt>
      <trkpt lat="43.64621" lon="1.38932">
        <ele>137</ele>
        <time>2023-07-14T09:01:57Z</time>
      </trkpt>
      <trkpt lat="43.64623" lon="1.3894">
        <ele>137</ele>
        <time>2023-07-14T09:01:58Z</time>
      </trkpt>
      <trkpt lat="43.64623" lon="1.3894">
        <ele>137</ele>
        <time>2023-07-14T09:01:59Z</time>
      </trkpt>
      <trkpt lat="43.64625" lon="1.38948">
        <ele>137</ele>
        <time>2023-07-14T09:02:00Z</time>
      </trkpt>
      <trkpt lat="43.64625" lon="1.38948">
        <ele>137</ele>
        <time>2023-07-14T09:02:01Z</time>
      </trkpt>
      <trkpt lat="43.64626" lon="1.38952">
        <ele>137</ele>
        <time>2023-07-14T09:02:02Z</time>
      </trkpt>
      <trkpt lat="43.64627" lon="1.38956">
        <ele>137</ele>
        <time>2023-07-14T09:02:03Z</time>
      </trkpt>
      <trkpt lat="43.64627" lon="1.3896">
        <ele>137</ele>
        <time>2023-07-14T09:02:04Z</time>
      </trkpt>
      <trkpt lat="43.64629" lon="1.38968">
        <ele>137</ele>
        <time>2023-07-14T09:02:05Z</time>
      </trkpt>
      <trkpt lat="43.64629" lon="1.38968">
        <ele>137</ele>
        <time>2023-07-14T09:02:06Z</time>
      </trkpt>
      <trkpt lat="43.6463" lon="1.38972">
        <ele>137</ele>
        <time>2023-07-14T09:02:07Z</time>
      </trkpt>
      <trkpt lat="43.64631" lon="1.38976">
        <ele>137</ele>
        <time>2023-07-14T09:02:08Z</time>
      </trkpt>
      <trkpt lat="43.64632" lon="1.3898">
        <ele>137</ele>
        <time>2023-07-14T09:02:09Z</time>
      </trkpt>
      <trkpt lat="43.64633" lon="1.38984">
        <ele>137</ele>
        <time>2023-07-14T09:02:10Z</time>
      </trkpt>
      <trkpt lat="43.64633" lon="1.38988">
        <ele>137</ele>
        <time>2023-07-14T09:02:11Z</time>
      </trkpt>
      <trkpt lat="43.64634" lon="1.38992">
        <ele>137</ele>
        <time>2023-07-14T09:02:12Z</time>
      </trkpt>
      <trkpt lat="43.64634" lon="1.38996">
        <ele>137</ele>
        <time>2023-07-14T09:02:13Z</time>
      </trkpt>
      <trkpt lat="43.64635" lon="1.39">
        <ele>137</ele>
        <time>2023-07-14T09:02:14Z</time>
      </trkpt>
      <trkpt lat="43.64635" lon="1.39004">
        <ele>137</ele>
        <time>2023-07-14T09:02:15Z</time>
      </trkpt>
      <trkpt lat="43.64636" lon="1.39007">
        <ele>137</ele>
        <time>2023-07-14T09:02:16Z</time>
      </trkpt>
      <trkpt lat="43.64636" lon="1.39007">
        <ele>137</ele>
        <time>2023-07-14T09:02:17Z</time>
      </trkpt>
      <trkpt lat="43.64638" lon="1.39008">
        <ele>137</ele>
        <time>2023-07-14T09:02:18Z</time>
      </trkpt>
      <trkpt lat="43.6464" lon="1.39014">
        <ele>137</ele>
        <time>2023-07-14T09:02:19Z</time>
      </trkpt>
      <trkpt lat="43.6464" lon="1.39014">
        <ele>137</ele>
        <time>2023-07-14T09:02:20Z</time>
      </trkpt>
      <trkpt lat="43.6464" lon="1.39018">
        <ele>137</ele>
        <time>2023-07-14T09:02:21Z</time>
      </trkpt>
      <trkpt lat="43.6464" lon="1.39021">
        <ele>137</ele>
        <time>2023-07-14T09:02:22Z</time>
      </trkpt>
      <trkpt lat="43.6464" lon="1.39021">
        <ele>137</ele>
        <time>2023-07-14T09:02:23Z</time>
      </trkpt>
      <trkpt lat="43.64637" lon="1.39019">
        <ele>137</ele>
        <time>2023-07-14T09:02:24Z</time>
      </trkpt>
      <trkpt lat="43.64636" lon="1.39015">
        <ele>137</ele>
        <time>2023-07-14T09:02:25Z</time>
      </trkpt>
      <trkpt lat="43.64635" lon="1.39011">
        <ele>138</ele>
        <time>2023-07-14T09:02:26Z</time>
      </trkpt>
      <trkpt lat="43.64634" lon="1.39007">
        <ele>138</ele>
        <time>2023-07-14T09:02:27Z</time>
      </trkpt>
      <trkpt lat="43.64633" lon="1.39003">
        <ele>138</ele>
        <time>2023-07-14T09:02:28Z</time>
      </trkpt>
      <trkpt lat="43.64632" lon="1.38999">
        <ele>138</ele>
        <time>2023-07-14T09:02:29Z</time>
      </trkpt>
      <trkpt lat="43.64631" lon="1.38995">
        <ele>138</ele>
        <time>2023-07-14T09:02:30Z</time>
      </trkpt>
      <trkpt lat="43.6463" lon="1.38991">
        <ele>138</ele>
        <time>2023-07-14T09:02:31Z</time>
      </trkpt>
      <trkpt lat="43.64628" lon="1.38984">
        <ele>138</ele>
        <time>2023-07-14T09:02:32Z</time>
      </trkpt>
      <trkpt lat="43.64628" lon="1.38984">
        <ele>138</ele>
        <time>2023-07-14T09:02:33Z</time>
      </trkpt>
      <trkpt lat="43.64627" lon="1.3898">
        <ele>138</ele>
        <time>2023-07-14T09:02:34Z</time>
      </trkpt>
      <trkpt lat="43.64627" lon="1.38976">
        <ele>138</ele>
        <time>2023-07-14T09:02:35Z</time>
      </trkpt>
      <trkpt lat="43.64626" lon="1.38972">
        <ele>138</ele>
        <time>2023-07-14T09:02:36Z</time>
      </trkpt>
      <trkpt lat="43.64625" lon="1.38969">
        <ele>138</ele>
        <time>2023-07-14T09:02:37Z</time>
      </trkpt>
      <trkpt lat="43.64623" lon="1.38961">
        <ele>138</ele>
        <time>2023-07-14T09:02:38Z</time>
      </trkpt>
      <trkpt lat="43.64623" lon="1.38961">
        <ele>138</ele>
        <time>2023-07-14T09:02:39Z</time>
      </trkpt>
      <trkpt lat="43.64622" lon="1.38957">
        <ele>139</ele>
        <time>2023-07-14T09:02:40Z</time>
      </trkpt>
      <trkpt lat="43.64621" lon="1.38953">
        <ele>139</ele>
        <time>2023-07-14T09:02:41Z</time>
      </trkpt>
      <trkpt lat="43.6462" lon="1.38949">
        <ele>139</ele>
        <time>2023-07-14T09:02:42Z</time>
      </trkpt>
      <trkpt lat="43.64619" lon="1.38945">
        <ele>139</ele>
        <time>2023-07-14T09:02:43Z</time>
      </trkpt>
      <trkpt lat="43.64618" lon="1.38937">
        <ele>139</ele>
        <time>2023-07-14T09:02:44Z</time>
      </trkpt>
      <trkpt lat="43.64618" lon="1.38937">
        <ele>139</ele>
        <time>2023-07-14T09:02:45Z</time>
      </trkpt>
      <trkpt lat="43.64617" lon="1.38933">
        <ele>139</ele>
        <time>2023-07-14T09:02:46Z</time>
      </trkpt>
      <trkpt lat="43.64616" lon="1.38929">
        <ele>139</ele>
        <time>2023-07-14T09:02:47Z</time>
      </trkpt>
      <trkpt lat="43.64615" lon="1.38921">
        <ele>139</ele>
        <time>2023-07-14T09:02:48Z</time>
      </trkpt>
      <trkpt lat="43.64615" lon="1.38921">
        <ele>139</ele>
        <time>2023-07-14T09:02:49Z</time>
      </trkpt>
      <trkpt lat="43.64614" lon="1.38918">
        <ele>139</ele>
        <time>2023-07-14T09:02:50Z</time>
      </trkpt>
      <trkpt lat="43.64613" lon="1.38914">
        <ele>138</ele>
        <time>2023-07-14T09:02:51Z</time>
      </trkpt>
      <trkpt lat="43.64611" lon="1.38906">
        <ele>138</ele>
        <time>2023-07-14T09:02:52Z</time>
      </trkpt>
      <trkpt lat="43.64611" lon="1.38906">
        <ele>138</ele>
        <time>2023-07-14T09:02:53Z</time>
      </trkpt>
      <trkpt lat="43.64611" lon="1.38902">
        <ele>138</ele>
        <time>2023-07-14T09:02:54Z</time>
      </trkpt>
      <trkpt lat="43.64609" lon="1.38898">
        <ele>138</ele>
        <time>2023-07-14T09:02:55Z</time>
      </trkpt>
      <trkpt lat="43.64608" lon="1.38894">
        <ele>138</ele>
        <time>2023-07-14T09:02:56Z</time>
      </trkpt>
      <trkpt lat="43.64606" lon="1.38886">
        <ele>138</ele>
        <time>2023-07-14T09:02:57Z</time>
      </trkpt>
      <trkpt lat="43.64606" lon="1.38886">
        <ele>138</ele>
        <time>2023-07-14T09:02:58Z</time>
      </trkpt>
      <trkpt lat="43.64606" lon="1.38882">
        <ele>138</ele>
        <time>2023-07-14T09:02:59Z</time>
      </trkpt>
      <trkpt lat="43.64604" lon="1.38879">
        <ele>138</ele>
        <time>2023-07-14T09:03:00Z</time>
      </trkpt>
      <trkpt lat="43.64603" lon="1.38875">
        <ele>138</ele>
        <time>2023-07-14T09:03:01Z</time>
      </trkpt>
      <trkpt lat="43.64602" lon="1.38871">
        <ele>138</ele>
        <time>2023-07-14T09:03:02Z</time>
      </trkpt>
      <trkpt lat="43.64601" lon="1.38867">
        <ele>138</ele>
        <time>2023-07-14T09:03:03Z</time>
      </trkpt>
      <trkpt lat="43.646" lon="1.38863">
        <ele>138</ele>
        <time>2023-07-14T09:03:04Z</time>
      </trkpt>
      <trkpt lat="43.64599" lon="1.3886">
        <ele>138</ele>
        <time>2023-07-14T09:03:05Z</time>
      </trkpt>
      <trkpt lat="43.64597" lon="1.38853">
        <ele>138</ele>
        <time>2023-07-14T09:03:06Z</time>
      </trkpt>
      <trkpt lat="43.64597" lon="1.38853">
        <ele>138</ele>
        <time>2023-07-14T09:03:07Z</time>
      </trkpt>
      <trkpt lat="43.64595" lon="1.38851">
        <ele>138</ele>
        <time>2023-07-14T09:03:08Z</time>
      </trkpt>
      <trkpt lat="43.64593" lon="1.38849">
        <ele>138</ele>
        <time>2023-07-14T09:03:09Z</time>
      </trkpt>
      <trkpt lat="43.6459" lon="1.38849">
        <ele>138</ele>
        <time>2023-07-14T09:03:10Z</time>
      </trkpt>
      <trkpt lat="43.64587" lon="1.38849">
        <ele>138</ele>
        <time>2023-07-14T09:03:11Z</time>
      </trkpt>
      <trkpt lat="43.64584" lon="1.38849">
        <ele>138</ele>
        <time>2023-07-14T09:03:12Z</time>
      </trkpt>
      <trkpt lat="43.64582" lon="1.38849">
        <ele>139</ele>
        <time>2023-07-14T09:03:13Z</time>
      </trkpt>
      <trkpt lat="43.64579" lon="1.3885">
        <ele>139</ele>
        <time>2023-07-14T09:03:14Z</time>
      </trkpt>
      <trkpt lat="43.64576" lon="1.3885">
        <ele>139</ele>
        <time>2023-07-14T09:03:15Z</time>
      </trkpt>
      <trkpt lat="43.64571" lon="1.38851">
        <ele>139</ele>
        <time>2023-07-14T09:03:16Z</time>
      </trkpt>
      <trkpt lat="43.64571" lon="1.38851">
        <ele>139</ele>
        <time>2023-07-14T09:03:17Z</time>
      </trkpt>
      <trkpt lat="43.64568" lon="1.38852">
        <ele>139</ele>
        <time>2023-07-14T09:03:18Z</time>
      </trkpt>
      <trkpt lat="43.64565" lon="1.38852">
        <ele>139</ele>
        <time>2023-07-14T09:03:19Z</time>
      </trkpt>
      <trkpt lat="43.64563" lon="1.38853">
        <ele>139</ele>
        <time>2023-07-14T09:03:20Z</time>
      </trkpt>
      <trkpt lat="43.64557" lon="1.38854">
        <ele>138</ele>
        <time>2023-07-14T09:03:21Z</time>
      </trkpt>
      <trkpt lat="43.64557" lon="1.38854">
        <ele>138</ele>
        <time>2023-07-14T09:03:22Z</time>
      </trkpt>
      <trkpt lat="43.64554" lon="1.38854">
        <ele>138</ele>
        <time>2023-07-14T09:03:23Z</time>
      </trkpt>
      <trkpt lat="43.64548" lon="1.38856">
        <ele>138</ele>
        <time>2023-07-14T09:03:24Z</time>
      </trkpt>
      <trkpt lat="43.64548" lon="1.38856">
        <ele>138</ele>
        <time>2023-07-14T09:03:25Z</time>
      </trkpt>
      <trkpt lat="43.64545" lon="1.38856">
        <ele>138</ele>
        <time>2023-07-14T09:03:26Z</time>
      </trkpt>
      <trkpt lat="43.64543" lon="1.38856">
        <ele>138</ele>
        <time>2023-07-14T09:03:27Z</time>
      </trkpt>
      <trkpt lat="43.6454" lon="1.38857">
        <ele>138</ele>
        <time>2023-07-14T09:03:28Z</time>
      </trkpt>
      <trkpt lat="43.64537" lon="1.38857">
        <ele>138</ele>
        <time>2023-07-14T09:03:29Z</time>
      </trkpt>
      <trkpt lat="43.64534" lon="1.38857">
        <ele>138</ele>
        <time>2023-07-14T09:03:30Z</time>
      </trkpt>
      <trkpt lat="43.64531" lon="1.38858">
        <ele>138</ele>
        <time>2023-07-14T09:03:31Z</time>
      </trkpt>
      <trkpt lat="43.64528" lon="1.38858">
        <ele>138</ele>
        <time>2023-07-14T09:03:32Z</time>
      </trkpt>
      <trkpt lat="43.64525" lon="1.38859">
        <ele>138</ele>
        <time>2023-07-14T09:03:33Z</time>
      </trkpt>
      <trkpt lat="43.64523" lon="1.38859">
        <ele>138</ele>
        <time>2023-07-14T09:03:34Z</time>
      </trkpt>
      <trkpt lat="43.64517" lon="1.3886">
        <ele>138</ele>
        <time>2023-07-14T09:03:35Z</time>
      </trkpt>
      <trkpt lat="43.64517" lon="1.3886">
        <ele>138</ele>
        <time>2023-07-14T09:03:36Z</time>
      </trkpt>
      <trkpt lat="43.64515" lon="1.38861">
        <ele>138</ele>
        <time>2023-07-14T09:03:37Z</time>
      </trkpt>
      <trkpt lat="43.64512" lon="1.38861">
        <ele>138</ele>
        <time>2023-07-14T09:03:38Z</time>
      </trkpt>
      <trkpt lat="43.64509" lon="1.38862">
        <ele>138</ele>
        <time>2023-07-14T09:03:39Z</time>
      </trkpt>
      <trkpt lat="43.64507" lon="1.38863">
        <ele>139</ele>
        <time>2023-07-14T09:03:40Z</time>
      </trkpt>
      <trkpt lat="43.64505" lon="1.38868">
        <ele>139</ele>
        <time>2023-07-14T09:03:41Z</time>
      </trkpt>
      <trkpt lat="43.64505" lon="1.38868">
        <ele>139</ele>
        <time>2023-07-14T09:03:42Z</time>
      </trkpt>
      <trkpt lat="43.64505" lon="1.38872">
        <ele>139</ele>
        <time>2023-07-14T09:03:43Z</time>
      </trkpt>
      <trkpt lat="43.64506" lon="1.38877">
        <ele>139</ele>
        <time>2023-07-14T09:03:44Z</time>
      </trkpt>
      <trkpt lat="43.64507" lon="1.38886">
        <ele>139</ele>
        <time>2023-07-14T09:03:45Z</time>
      </trkpt>
      <trkpt lat="43.64507" lon="1.38886">
        <ele>139</ele>
        <time>2023-07-14T09:03:46Z</time>
      </trkpt>
      <trkpt lat="43.64508" lon="1.3889">
        <ele>138</ele>
        <time>2023-07-14T09:03:47Z</time>
      </trkpt>
      <trkpt lat="43.64508" lon="1.38894">
        <ele>138</ele>
        <time>2023-07-14T09:03:48Z</time>
      </trkpt>
      <trkpt lat="43.64509" lon="1.38899">
        <ele>138</ele>
        <time>2023-07-14T09:03:49Z</time>
      </trkpt>
      <trkpt lat="43.6451" lon="1.38903">
        <ele>138</ele>
        <time>2023-07-14T09:03:50Z</time>
      </trkpt>
      <trkpt lat="43.64511" lon="1.38907">
        <ele>138</ele>
        <time>2023-07-14T09:03:51Z</time>
      </trkpt>
      <trkpt lat="43.64511" lon="1.38912">
        <ele>138</ele>
        <time>2023-07-14T09:03:52Z</time>
      </trkpt>
      <trkpt lat="43.64512" lon="1.38916">
        <ele>138</ele>
        <time>2023-07-14T09:03:53Z</time>
      </trkpt>
      <trkpt lat="43.64513" lon="1.38924">
        <ele>138</ele>
        <time>2023-07-14T09:03:54Z</time>
      </trkpt>
      <trkpt lat="43.64513" lon="1.38924">
        <ele>138</ele>
        <time>2023-07-14T09:03:55Z</time>
      </trkpt>
      <trkpt lat="43.64513" lon="1.38928">
        <ele>138</ele>
        <time>2023-07-14T09:03:56Z</time>
      </trkpt>
      <trkpt lat="43.64511" lon="1.38936">
        <ele>138</ele>
        <time>2023-07-14T09:03:57Z</time>
      </trkpt>
      <trkpt lat="43.64511" lon="1.38936">
        <ele>139</ele>
        <time>2023-07-14T09:03:58Z</time>
      </trkpt>
      <trkpt lat="43.64509" lon="1.3894">
        <ele>139</ele>
        <time>2023-07-14T09:03:59Z</time>
      </trkpt>
      <trkpt lat="43.64507" lon="1.38944">
        <ele>139</ele>
        <time>2023-07-14T09:04:00Z</time>
      </trkpt>
      <trkpt lat="43.64506" lon="1.38948">
        <ele>139</ele>
        <time>2023-07-14T09:04:01Z</time>
      </trkpt>
      <trkpt lat="43.64505" lon="1.38952">
        <ele>139</ele>
        <time>2023-07-14T09:04:02Z</time>
      </trkpt>
      <trkpt lat="43.64503" lon="1.38955">
        <ele>139</ele>
        <time>2023-07-14T09:04:03Z</time>
      </trkpt>
      <trkpt lat="43.64502" lon="1.38959">
        <ele>138</ele>
        <time>2023-07-14T09:04:04Z</time>
      </trkpt>
      <trkpt lat="43.645" lon="1.38966">
        <ele>138</ele>
        <time>2023-07-14T09:04:05Z</time>
      </trkpt>
      <trkpt lat="43.645" lon="1.38966">
        <ele>138</ele>
        <time>2023-07-14T09:04:06Z</time>
      </trkpt>
      <trkpt lat="43.64499" lon="1.3897">
        <ele>139</ele>
        <time>2023-07-14T09:04:07Z</time>
      </trkpt>
      <trkpt lat="43.64498" lon="1.38974">
        <ele>139</ele>
        <time>2023-07-14T09:04:08Z</time>
      </trkpt>
      <trkpt lat="43.64497" lon="1.38978">
        <ele>139</ele>
        <time>2023-07-14T09:04:09Z</time>
      </trkpt>
      <trkpt lat="43.64496" lon="1.38982">
        <ele>139</ele>
        <time>2023-07-14T09:04:10Z</time>
      </trkpt>
      <trkpt lat="43.64495" lon="1.38986">
        <ele>139</ele>
        <time>2023-07-14T09:04:11Z</time>
      </trkpt>
      <trkpt lat="43.64493" lon="1.3899">
        <ele>139</ele>
        <time>2023-07-14T09:04:12Z</time>
      </trkpt>
      <trkpt lat="43.64492" lon="1.38993">
        <ele>139</ele>
        <time>2023-07-14T09:04:13Z</time>
      </trkpt>
      <trkpt lat="43.64491" lon="1.38997">
        <ele>139</ele>
        <time>2023-07-14T09:04:14Z</time>
      </trkpt>
      <trkpt lat="43.6449" lon="1.39">
        <ele>139</ele>
        <time>2023-07-14T09:04:15Z</time>
      </trkpt>
      <trkpt lat="43.64489" lon="1.39004">
        <ele>139</ele>
        <time>2023-07-14T09:04:16Z</time>
      </trkpt>
      <trkpt lat="43.64488" lon="1.39007">
        <ele>138</ele>
        <time>2023-07-14T09:04:17Z</time>
      </trkpt>
      <trkpt lat="43.64487" lon="1.39011">
        <ele>138</ele>
        <time>2023-07-14T09:04:18Z</time>
      </trkpt>
      <trkpt lat="43.64487" lon="1.3902">
        <ele>138</ele>
        <time>2023-07-14T09:04:19Z</time>
      </trkpt>
      <trkpt lat="43.64486" lon="1.39024">
        <ele>138</ele>
        <time>2023-07-14T09:04:20Z</time>
      </trkpt>
      <trkpt lat="43.64485" lon="1.39027">
        <ele>138</ele>
        <time>2023-07-14T09:04:21Z</time>
      </trkpt>
      <trkpt lat="43.64485" lon="1.39027">
        <ele>139</ele>
        <time>2023-07-14T09:04:22Z</time>
      </trkpt>
      <trkpt lat="43.64483" lon="1.39031">
        <ele>139</ele>
        <time>2023-07-14T09:04:23Z</time>
      </trkpt>
      <trkpt lat="43.64481" lon="1.39035">
        <ele>139</ele>
        <time>2023-07-14T09:04:24Z</time>
      </trkpt>
      <trkpt lat="43.64478" lon="1.39038">
        <ele>139</ele>
        <time>2023-07-14T09:04:25Z</time>
      </trkpt>
      <trkpt lat="43.64476" lon="1.39041">
        <ele>139</ele>
        <time>2023-07-14T09:04:26Z</time>
      </trkpt>
      <trkpt lat="43.64473" lon="1.39043">
        <ele>139</ele>
        <time>2023-07-14T09:04:27Z</time>
      </trkpt>
      <trkpt lat="43.64465" lon="1.39046">
        <ele>139</ele>
        <time>2023-07-14T09:04:28Z</time>
      </trkpt>
      <trkpt lat="43.64465" lon="1.39046">
        <ele>139</ele>
        <time>2023-07-14T09:04:29Z</time>
      </trkpt>
      <trkpt lat="43.64459" lon="1.39048">
        <ele>139</ele>
        <time>2023-07-14T09:04:30Z</time>
      </trkpt>
      <trkpt lat="43.64459" lon="1.39048">
        <ele>139</ele>
        <time>2023-07-14T09:04:31Z</time>
      </trkpt>
      <trkpt lat="43.64456" lon="1.3905">
        <ele>139</ele>
        <time>2023-07-14T09:04:32Z</time>
      </trkpt>
      <trkpt lat="43.64451" lon="1.39055">
        <ele>139</ele>
        <time>2023-07-14T09:04:33Z</time>
      </trkpt>
      <trkpt lat="43.64451" lon="1.39055">
        <ele>139</ele>
        <time>2023-07-14T09:04:34Z</time>
      </trkpt>
      <trkpt lat="43.6445" lon="1.39058">
        <ele>139</ele>
        <time>2023-07-14T09:04:35Z</time>
      </trkpt>
      <trkpt lat="43.64448" lon="1.3906">
        <ele>139</ele>
        <time>2023-07-14T09:04:36Z</time>
      </trkpt>
      <trkpt lat="43.64447" lon="1.39063">
        <ele>139</ele>
        <time>2023-07-14T09:04:37Z</time>
      </trkpt>
      <trkpt lat="43.64445" lon="1.39066">
        <ele>139</ele>
        <time>2023-07-14T09:04:38Z</time>
      </trkpt>
      <trkpt lat="43.64444" lon="1.39069">
        <ele>138</ele>
        <time>2023-07-14T09:04:39Z</time>
      </trkpt>
      <trkpt lat="43.64442" lon="1.39072">
        <ele>138</ele>
        <time>2023-07-14T09:04:40Z</time>
      </trkpt>
      <trkpt lat="43.6444" lon="1.39076">
        <ele>138</ele>
        <time>2023-07-14T09:04:41Z</time>
      </trkpt>
      <trkpt lat="43.64438" lon="1.39079">
        <ele>138</ele>
        <time>2023-07-14T09:04:42Z</time>
      </trkpt>
      <trkpt lat="43.64436" lon="1.39083">
        <ele>138</ele>
        <time>2023-07-14T09:04:43Z</time>
      </trkpt>
      <trkpt lat="43.64434" lon="1.39086">
        <ele>138</ele>
        <time>2023-07-14T09:04:44Z</time>
      </trkpt>
      <trkpt lat="43.64432" lon="1.3909">
        <ele>138</ele>
        <time>2023-07-14T09:04:45Z</time>
      </trkpt>
      <trkpt lat="43.64429" lon="1.39097">
        <ele>137</ele>
        <time>2023-07-14T09:04:46Z</time>
      </trkpt>
      <trkpt lat="43.64429" lon="1.39097">
        <ele>137</ele>
        <time>2023-07-14T09:04:47Z</time>
      </trkpt>
      <trkpt lat="43.64427" lon="1.391">
        <ele>137</ele>
        <time>2023-07-14T09:04:48Z</time>
      </trkpt>
      <trkpt lat="43.64425" lon="1.39103">
        <ele>137</ele>
        <time>2023-07-14T09:04:49Z</time>
      </trkpt>
      <trkpt lat="43.64424" lon="1.39106">
        <ele>137</ele>
        <time>2023-07-14T09:04:50Z</time>
      </trkpt>
      <trkpt lat="43.64421" lon="1.39113">
        <ele>137</ele>
        <time>2023-07-14T09:04:51Z</time>
      </trkpt>
      <trkpt lat="43.64421" lon="1.39113">
        <ele>137</ele>
        <time>2023-07-14T09:04:52Z</time>
      </trkpt>
      <trkpt lat="43.64421" lon="1.39117">
        <ele>137</ele>
        <time>2023-07-14T09:04:53Z</time>
      </trkpt>
      <trkpt lat="43.6442" lon="1.3912">
        <ele>137</ele>
        <time>2023-07-14T09:04:54Z</time>
      </trkpt>
      <trkpt lat="43.64419" lon="1.39124">
        <ele>137</ele>
        <time>2023-07-14T09:04:55Z</time>
      </trkpt>
      <trkpt lat="43.64418" lon="1.39128">
        <ele>136</ele>
        <time>2023-07-14T09:04:56Z</time>
      </trkpt>
      <trkpt lat="43.64417" lon="1.39132">
        <ele>135</ele>
        <time>2023-07-14T09:04:57Z</time>
      </trkpt>
      <trkpt lat="43.64416" lon="1.39136">
        <ele>134</ele>
        <time>2023-07-14T09:04:58Z</time>
      </trkpt>
      <trkpt lat="43.64415" lon="1.3914">
        <ele>134</ele>
        <time>2023-07-14T09:04:59Z</time>
      </trkpt>
      <trkpt lat="43.64415" lon="1.39144">
        <ele>134</ele>
        <time>2023-07-14T09:05:00Z</time>
      </trkpt>
      <trkpt lat="43.64415" lon="1.39148">
        <ele>134</ele>
        <time>2023-07-14T09:05:01Z</time>
      </trkpt>
      <trkpt lat="43.64415" lon="1.39153">
        <ele>134</ele>
        <time>2023-07-14T09:05:02Z</time>
      </trkpt>
      <trkpt lat="43.64416" lon="1.39156">
        <ele>134</ele>
        <time>2023-07-14T09:05:03Z</time>
      </trkpt>
      <trkpt lat="43.64416" lon="1.3916">
        <ele>133</ele>
        <time>2023-07-14T09:05:04Z</time>
      </trkpt>
      <trkpt lat="43.64416" lon="1.39163">
        <ele>133</ele>
        <time>2023-07-14T09:05:05Z</time>
      </trkpt>
      <trkpt lat="43.64416" lon="1.39168">
        <ele>132</ele>
        <time>2023-07-14T09:05:06Z</time>
      </trkpt>
      <trkpt lat="43.64416" lon="1.39172">
        <ele>132</ele>
        <time>2023-07-14T09:05:07Z</time>
      </trkpt>
      <trkpt lat="43.64416" lon="1.39175">
        <ele>131</ele>
        <time>2023-07-14T09:05:08Z</time>
      </trkpt>
      <trkpt lat="43.64417" lon="1.3918">
        <ele>131</ele>
        <time>2023-07-14T09:05:09Z</time>
      </trkpt>
      <trkpt lat="43.64418" lon="1.39187">
        <ele>131</ele>
        <time>2023-07-14T09:05:10Z</time>
      </trkpt>
      <trkpt lat="43.64418" lon="1.39187">
        <ele>131</ele>
        <time>2023-07-14T09:05:11Z</time>
      </trkpt>
      <trkpt lat="43.64419" lon="1.39191">
        <ele>131</ele>
        <time>2023-07-14T09:05:12Z</time>
      </trkpt>
      <trkpt lat="43.6442" lon="1.39195">
        <ele>130</ele>
        <time>2023-07-14T09:05:13Z</time>
      </trkpt>
      <trkpt lat="43.64421" lon="1.39198">
        <ele>129</ele>
        <time>2023-07-14T09:05:14Z</time>
      </trkpt>
      <trkpt lat="43.64422" lon="1.39202">
        <ele>128</ele>
        <time>2023-07-14T09:05:15Z</time>
      </trkpt>
      <trkpt lat="43.64424" lon="1.39206">
        <ele>128</ele>
        <time>2023-07-14T09:05:16Z</time>
      </trkpt>
      <trkpt lat="43.64425" lon="1.39209">
        <ele>128</ele>
        <time>2023-07-14T09:05:17Z</time>
      </trkpt>
      <trkpt lat="43.64427" lon="1.39213">
        <ele>128</ele>
        <time>2023-07-14T09:05:18Z</time>
      </trkpt>
      <trkpt lat="43.64428" lon="1.39217">
        <ele>128</ele>
        <time>2023-07-14T09:05:19Z</time>
      </trkpt>
      <trkpt lat="43.6443" lon="1.3922">
        <ele>128</ele>
        <time>2023-07-14T09:05:20Z</time>
      </trkpt>
      <trkpt lat="43.64432" lon="1.39224">
        <ele>128</ele>
        <time>2023-07-14T09:05:21Z</time>
      </trkpt>
      <trkpt lat="43.64435" lon="1.39228">
        <ele>128</ele>
        <time>2023-07-14T09:05:22Z</time>
      </trkpt>
      <trkpt lat="43.64436" lon="1.39231">
        <ele>127</ele>
        <time>2023-07-14T09:05:23Z</time>
      </trkpt>
      <trkpt lat="43.64438" lon="1.39235">
        <ele>127</ele>
        <time>2023-07-14T09:05:24Z</time>
      </trkpt>
      <trkpt lat="43.6444" lon="1.39239">
        <ele>127</ele>
        <time>2023-07-14T09:05:25Z</time>
      </trkpt>
      <trkpt lat="43.64442" lon="1.39243">
        <ele>128</ele>
        <time>2023-07-14T09:05:26Z</time>
      </trkpt>
      <trkpt lat="43.64444" lon="1.39247">
        <ele>128</ele>
        <time>2023-07-14T09:05:27Z</time>
      </trkpt>
      <trkpt lat="43.64447" lon="1.39254">
        <ele>127</ele>
        <time>2023-07-14T09:05:28Z</time>
      </trkpt>
      <trkpt lat="43.64449" lon="1.39259">
        <ele>127</ele>
        <time>2023-07-14T09:05:29Z</time>
      </trkpt>
      <trkpt lat="43.6445" lon="1.39263">
        <ele>127</ele>
        <time>2023-07-14T09:05:30Z</time>
      </trkpt>
      <trkpt lat="43.6445" lon="1.39263">
        <ele>127</ele>
        <time>2023-07-14T09:05:31Z</time>
      </trkpt>
      <trkpt lat="43.64451" lon="1.39267">
        <ele>127</ele>
        <time>2023-07-14T09:05:32Z</time>
      </trkpt>
      <trkpt lat="43.64452" lon="1.39272">
        <ele>127</ele>
        <time>2023-07-14T09:05:33Z</time>
      </trkpt>
      <trkpt lat="43.64453" lon="1.39276">
        <ele>127</ele>
        <time>2023-07-14T09:05:34Z</time>
      </trkpt>
      <trkpt lat="43.64454" lon="1.3928">
        <ele>127</ele>
        <time>2023-07-14T09:05:35Z</time>
      </trkpt>
      <trkpt lat="43.64455" lon="1.39282">
        <ele>127</ele>
        <time>2023-07-14T09:05:36Z</time>
      </trkpt>
      <trkpt lat="43.64455" lon="1.39282">
        <ele>127</ele>
        <time>2023-07-14T09:05:37Z</time>
      </trkpt>
      <trkpt lat="43.64456" lon="1.39287">
        <ele>127</ele>
        <time>2023-07-14T09:05:38Z</time>
      </trkpt>
      <trkpt lat="43.64456" lon="1.39287">
        <ele>127</ele>
        <time>2023-07-14T09:05:39Z</time>
      </trkpt>
      <trkpt lat="43.64456" lon="1.39291">
        <ele>126</ele>
        <time>2023-07-14T09:05:40Z</time>
      </trkpt>
      <trkpt lat="43.64456" lon="1.39291">
        <ele>127</ele>
        <time>2023-07-14T09:05:41Z</time>
      </trkpt>
      <trkpt lat="43.64457" lon="1.39294">
        <ele>127</ele>
        <time>2023-07-14T09:05:42Z</time>
      </trkpt>
      <trkpt lat="43.64457" lon="1.39294">
        <ele>127</ele>
        <time>2023-07-14T09:05:43Z</time>
      </trkpt>
      <trkpt lat="43.64458" lon="1.39297">
        <ele>127</ele>
        <time>2023-07-14T09:05:44Z</time>
      </trkpt>
      <trkpt lat="43.64458" lon="1.39297">
        <ele>127</ele>
        <time>2023-07-14T09:05:45Z</time>
      </trkpt>
      <trkpt lat="43.64459" lon="1.393">
        <ele>127</ele>
        <time>2023-07-14T09:05:46Z</time>
      </trkpt>
      <trkpt lat="43.64459" lon="1.393">
        <ele>127</ele>
        <time>2023-07-14T09:05:47Z</time>
      </trkpt>
      <trkpt lat="43.6446" lon="1.39303">
        <ele>127</ele>
        <time>2023-07-14T09:05:48Z</time>
      </trkpt>
      <trkpt lat="43.6446" lon="1.39303">
        <ele>127</ele>
        <time>2023-07-14T09:05:49Z</time>
      </trkpt>
      <trkpt lat="43.64461" lon="1.39306">
        <ele>127</ele>
        <time>2023-07-14T09:05:50Z</time>
      </trkpt>
      <trkpt lat="43.64461" lon="1.39306">
        <ele>127</ele>
        <time>2023-07-14T09:05:51Z</time>
      </trkpt>
      <trkpt lat="43.64461" lon="1.39306">
        <ele>127</ele>
        <time>2023-07-14T09:05:52Z</time>
      </trkpt>
      <trkpt lat="43.64462" lon="1.39309">
        <ele>127</ele>
        <time>2023-07-14T09:05:53Z</time>
      </trkpt>
      <trkpt lat="43.64462" lon="1.39309">
        <ele>126</ele>
        <time>2023-07-14T09:05:54Z</time>
      </trkpt>
      <trkpt lat="43.64463" lon="1.39309">
        <ele>126</ele>
        <time>2023-07-14T09:05:55Z</time>
      </trkpt>
      <trkpt lat="43.64463" lon="1.39309">
        <ele>126</ele>
        <time>2023-07-14T09:05:56Z</time>
      </trkpt>
      <trkpt lat="43.64466" lon="1.3931">
        <ele>126</ele>
        <time>2023-07-14T09:05:57Z</time>
      </trkpt>
      <trkpt lat="43.64466" lon="1.3931">
        <ele>126</ele>
        <time>2023-07-14T09:05:58Z</time>
      </trkpt>
      <trkpt lat="43.64468" lon="1.3931">
        <ele>126</ele>
        <time>2023-07-14T09:05:59Z</time>
      </trkpt>
      <trkpt lat="43.64468" lon="1.3931">
        <ele>126</ele>
        <time>2023-07-14T09:06:00Z</time>
      </trkpt>
      <trkpt lat="43.6447" lon="1.3931">
        <ele>126</ele>
        <time>2023-07-14T09:06:01Z</time>
      </trkpt>
      <trkpt lat="43.6447" lon="1.3931">
        <ele>126</ele>
        <time>2023-07-14T09:06:02Z</time>
      </trkpt>
      <trkpt lat="43.64472" lon="1.3931">
        <ele>126</ele>
        <time>2023-07-14T09:06:03Z</time>
      </trkpt>
      <trkpt lat="43.64472" lon="1.3931">
        <ele>126</ele>
        <time>2023-07-14T09:06:04Z</time>
      </trkpt>
      <trkpt lat="43.64474" lon="1.3931">
        <ele>126</ele>
        <time>2023-07-14T09:06:05Z</time>
      </trkpt>
      <trkpt lat="43.64474" lon="1.3931">
        <ele>125</ele>
        <time>2023-07-14T09:06:06Z</time>
      </trkpt>
      <trkpt lat="43.64476" lon="1.3931">
        <ele>125</ele>
        <time>2023-07-14T09:06:07Z</time>
      </trkpt>
      <trkpt lat="43.64476" lon="1.3931">
        <ele>125</ele>
        <time>2023-07-14T09:06:08Z</time>
      </trkpt>
      <trkpt lat="43.64478" lon="1.39309">
        <ele>125</ele>
        <time>2023-07-14T09:06:09Z</time>
      </trkpt>
      <trkpt lat="43.64478" lon="1.39309">
        <ele>125</ele>
        <time>2023-07-14T09:06:10Z</time>
      </trkpt>
      <trkpt lat="43.6448" lon="1.39309">
        <ele>125</ele>
        <time>2023-07-14T09:06:11Z</time>
      </trkpt>
      <trkpt lat="43.6448" lon="1.39309">
        <ele>125</ele>
        <time>2023-07-14T09:06:12Z</time>
      </trkpt>
      <trkpt lat="43.64483" lon="1.39309">
        <ele>125</ele>
        <time>2023-07-14T09:06:13Z</time>
      </trkpt>
      <trkpt lat="43.64483" lon="1.39309">
        <ele>125</ele>
        <time>2023-07-14T09:06:14Z</time>
      </trkpt>
      <trkpt lat="43.64486" lon="1.39308">
        <ele>126</ele>
        <time>2023-07-14T09:06:15Z</time>
      </trkpt>
      <trkpt lat="43.64486" lon="1.39308">
        <ele>126</ele>
        <time>2023-07-14T09:06:16Z</time>
      </trkpt>
      <trkpt lat="43.64488" lon="1.39308">
        <ele>126</ele>
        <time>2023-07-14T09:06:17Z</time>
      </trkpt>
      <trkpt lat="43.64488" lon="1.39308">
        <ele>126</ele>
        <time>2023-07-14T09:06:18Z</time>
      </trkpt>
      <trkpt lat="43.64491" lon="1.39308">
        <ele>126</ele>
        <time>2023-07-14T09:06:19Z</time>
      </trkpt>
      <trkpt lat="43.64491" lon="1.39308">
        <ele>125</ele>
        <time>2023-07-14T09:06:20Z</time>
      </trkpt>
      <trkpt lat="43.64493" lon="1.39308">
        <ele>125</ele>
        <time>2023-07-14T09:06:21Z</time>
      </trkpt>
      <trkpt lat="43.64493" lon="1.39308">
        <ele>125</ele>
        <time>2023-07-14T09:06:22Z</time>
      </trkpt>
      <trkpt lat="43.64493" lon="1.39308">
        <ele>125</ele>
        <time>2023-07-14T09:06:23Z</time>
      </trkpt>
      <trkpt lat="43.64493" lon="1.39308">
        <ele>125</ele>
        <time>2023-07-14T09:06:24Z</time>
      </trkpt>
      <trkpt lat="43.64493" lon="1.39308">
        <ele>125</ele>
        <time>2023-07-14T09:06:25Z</time>
      </trkpt>
      <trkpt lat="43.64493" lon="1.39308">
        <ele>125</ele>
        <time>2023-07-14T09:06:26Z</time>
      </trkpt>
      <trkpt lat="43.64493" lon="1.39308">
        <ele>124</ele>
        <time>2023-07-14T09:06:27Z</time>
      </trkpt>
      <trkpt lat="43.64493" lon="1.39308">
        <ele>124</ele>
        <time>2023-07-14T09:06:28Z</time>
      </trkpt>
      <trkpt lat="43.64493" lon="1.39308">
        <ele>124</ele>
        <time>2023-07-14T09:06:29Z</time>
      </trkpt>
      <trkpt lat="43.64495" lon="1.39305">
        <ele>124</ele>
        <time>2023-07-14T09:06:30Z</time>
      </trkpt>
      <trkpt lat="43.64495" lon="1.39305">
        <ele>124</ele>
        <time>2023-07-14T09:06:31Z</time>
      </trkpt>
      <trkpt lat="43.64495" lon="1.39305">
        <ele>125</ele>
        <time>2023-07-14T09:06:32Z</time>
      </trkpt>
      <trkpt lat="43.64495" lon="1.39305">
        <ele>125</ele>
        <time>2023-07-14T09:06:33Z</time>
      </trkpt>
      <trkpt lat="43.64495" lon="1.39305">
        <ele>125</ele>
        <time>2023-07-14T09:06:34Z</time>
      </trkpt>
      <trkpt lat="43.64495" lon="1.39305">
        <ele>125</ele>
        <time>2023-07-14T09:06:35Z</time>
      </trkpt>
      <trkpt lat="43.64495" lon="1.39305">
        <ele>125</ele>
        <time>2023-07-14T09:06:36Z</time>
      </trkpt>
      <trkpt lat="43.64495" lon="1.39305">
        <ele>125</ele>
        <time>2023-07-14T09:06:37Z</time>
      </trkpt>
      <trkpt lat="43.64495" lon="1.39305">
        <ele>125</ele>
        <time>2023-07-14T09:06:38Z</time>
      </trkpt>
      <trkpt lat="43.64495" lon="1.39305">
        <ele>125</ele>
        <time>2023-07-14T09:06:39Z</time>
      </trkpt>
      <trkpt lat="43.64495" lon="1.39305">
        <ele>125</ele>
        <time>2023-07-14T09:06:40Z</time>
      </trkpt>
      <trkpt lat="43.64495" lon="1.39305">
        <ele>125</ele>
        <time>2023-07-14T09:06:41Z</time>
      </trkpt>
      <trkpt lat="43.64495" lon="1.39305">
        <ele>125</ele>
        <time>2023-07-14T09:06:42Z</time>
      </trkpt>
      <trkpt lat="43.64495" lon="1.39305">
        <ele>125</ele>
        <time>2023-07-14T09:06:43Z</time>
      </trkpt>
      <trkpt lat="43.64495" lon="1.39305">
        <ele>125</ele>
        <time>2023-07-14T09:06:44Z</time>
      </trkpt>
      <trkpt lat="43.64495" lon="1.39305">
        <ele>125</ele>
        <time>2023-07-14T09:06:45Z</time>
      </trkpt>
      <trkpt lat="43.64495" lon="1.39305">
        <ele>125</ele>
        <time>2023-07-14T09:06:46Z</time>
      </trkpt>
      <trkpt lat="43.64495" lon="1.39305">
        <ele>125</ele>
        <time>2023-07-14T09:06:47Z</time>
      </trkpt>
      <trkpt lat="43.64495" lon="1.39305">
        <ele>125</ele>
        <time>2023-07-14T09:06:48Z</time>
      </trkpt>
      <trkpt lat="43.64495" lon="1.39305">
        <ele>125</ele>
        <time>2023-07-14T09:06:49Z</time>
      </trkpt>
      <trkpt lat="43.64495" lon="1.39305">
        <ele>125</ele>
        <time>2023-07-14T09:06:50Z</time>
      </trkpt>
      <trkpt lat="43.64495" lon="1.39305">
        <ele>125</ele>
        <time>2023-07-14T09:06:51Z</time>
      </trkpt>
      <trkpt lat="43.64495" lon="1.39305">
        <ele>125</ele>
        <time>2023-07-14T09:06:52Z</time>
      </trkpt>
      <trkpt lat="43.64495" lon="1.39305">
        <ele>125</ele>
        <time>2023-07-14T09:06:53Z</time>
      </trkpt>
      <trkpt lat="43.64495" lon="1.39305">
        <ele>125</ele>
        <time>2023-07-14T09:06:54Z</time>
      </trkpt>
      <trkpt lat="43.64495" lon="1.39305">
        <ele>125</ele>
        <time>2023-07-14T09:06:55Z</time>
      </trkpt>
      <trkpt lat="43.64495" lon="1.39308">
        <ele>125</ele>
        <time>2023-07-14T09:06:56Z</time>
      </trkpt>
      <trkpt lat="43.64495" lon="1.39308">
        <ele>125</ele>
        <time>2023-07-14T09:06:57Z</time>
      </trkpt>
      <trkpt lat="43.64495" lon="1.39308">
        <ele>125</ele>
        <time>2023-07-14T09:06:58Z</time>
      </trkpt>
      <trkpt lat="43.64495" lon="1.39308">
        <ele>125</ele>
        <time>2023-07-14T09:06:59Z</time>
      </trkpt>
      <trkpt lat="43.64495" lon="1.39308">
        <ele>125</ele>
        <time>2023-07-14T09:07:00Z</time>
      </trkpt>
      <trkpt lat="43.64493" lon="1.39308">
        <ele>125</ele>
        <time>2023-07-14T09:07:01Z</time>
      </trkpt>
      <trkpt lat="43.64491" lon="1.39308">
        <ele>125</ele>
        <time>2023-07-14T09:07:02Z</time>
      </trkpt>
      <trkpt lat="43.64487" lon="1.39308">
        <ele>124</ele>
        <time>2023-07-14T09:07:03Z</time>
      </trkpt>
      <trkpt lat="43.64484" lon="1.39307">
        <ele>124</ele>
        <time>2023-07-14T09:07:04Z</time>
      </trkpt>
      <trkpt lat="43.64484" lon="1.39307">
        <ele>125</ele>
        <time>2023-07-14T09:07:05Z</time>
      </trkpt>
      <trkpt lat="43.64484" lon="1.39307">
        <ele>125</ele>
        <time>2023-07-14T09:07:06Z</time>
      </trkpt>
      <trkpt lat="43.64486" lon="1.39305">
        <ele>125</ele>
        <time>2023-07-14T09:07:07Z</time>
      </trkpt>
      <trkpt lat="43.64488" lon="1.39305">
        <ele>125</ele>
        <time>2023-07-14T09:07:08Z</time>
      </trkpt>
      <trkpt lat="43.64493" lon="1.39304">
        <ele>125</ele>
        <time>2023-07-14T09:07:09Z</time>
      </trkpt>
      <trkpt lat="43.64493" lon="1.39304">
        <ele>125</ele>
        <time>2023-07-14T09:07:10Z</time>
      </trkpt>
      <trkpt lat="43.64493" lon="1.39304">
        <ele>125</ele>
        <time>2023-07-14T09:07:11Z</time>
      </trkpt>
      <trkpt lat="43.64493" lon="1.39304">
        <ele>125</ele>
        <time>2023-07-14T09:07:12Z</time>
      </trkpt>
      <trkpt lat="43.6449" lon="1.39303">
        <ele>125</ele>
        <time>2023-07-14T09:07:13Z</time>
      </trkpt>
      <trkpt lat="43.64485" lon="1.39303">
        <ele>125</ele>
        <time>2023-07-14T09:07:14Z</time>
      </trkpt>
      <trkpt lat="43.64481" lon="1.39303">
        <ele>126</ele>
        <time>2023-07-14T09:07:15Z</time>
      </trkpt>
      <trkpt lat="43.64474" lon="1.39303">
        <ele>126</ele>
        <time>2023-07-14T09:07:16Z</time>
      </trkpt>
      <trkpt lat="43.64474" lon="1.39303">
        <ele>126</ele>
        <time>2023-07-14T09:07:17Z</time>
      </trkpt>
      <trkpt lat="43.64474" lon="1.39303">
        <ele>126</ele>
        <time>2023-07-14T09:07:18Z</time>
      </trkpt>
      <trkpt lat="43.64477" lon="1.39303">
        <ele>126</ele>
        <time>2023-07-14T09:07:19Z</time>
      </trkpt>
      <trkpt lat="43.64481" lon="1.39303">
        <ele>126</ele>
        <time>2023-07-14T09:07:20Z</time>
      </trkpt>
      <trkpt lat="43.64481" lon="1.39303">
        <ele>126</ele>
        <time>2023-07-14T09:07:21Z</time>
      </trkpt>
      <trkpt lat="43.64481" lon="1.39303">
        <ele>126</ele>
        <time>2023-07-14T09:07:22Z</time>
      </trkpt>
      <trkpt lat="43.64487" lon="1.39302">
        <ele>126</ele>
        <time>2023-07-14T09:07:23Z</time>
      </trkpt>
      <trkpt lat="43.64487" lon="1.39302">
        <ele>126</ele>
        <time>2023-07-14T09:07:24Z</time>
      </trkpt>
      <trkpt lat="43.64489" lon="1.39302">
        <ele>126</ele>
        <time>2023-07-14T09:07:25Z</time>
      </trkpt>
      <trkpt lat="43.64491" lon="1.39302">
        <ele>126</ele>
        <time>2023-07-14T09:07:26Z</time>
      </trkpt>
      <trkpt lat="43.64494" lon="1.39302">
        <ele>126</ele>
        <time>2023-07-14T09:07:27Z</time>
      </trkpt>
      <trkpt lat="43.64496" lon="1.39302">
        <ele>126</ele>
        <time>2023-07-14T09:07:28Z</time>
      </trkpt>
      <trkpt lat="43.64496" lon="1.39302">
        <ele>126</ele>
        <time>2023-07-14T09:07:29Z</time>
      </trkpt>
      <trkpt lat="43.64494" lon="1.39303">
        <ele>126</ele>
        <time>2023-07-14T09:07:30Z</time>
      </trkpt>
      <trkpt lat="43.6449" lon="1.39303">
        <ele>125</ele>
        <time>2023-07-14T09:07:31Z</time>
      </trkpt>
      <trkpt lat="43.64485" lon="1.39303">
        <ele>125</ele>
        <time>2023-07-14T09:07:32Z</time>
      </trkpt>
      <trkpt lat="43.64479" lon="1.39304">
        <ele>127</ele>
        <time>2023-07-14T09:07:33Z</time>
      </trkpt>
      <trkpt lat="43.64474" lon="1.39304">
        <ele>127</ele>
        <time>2023-07-14T09:07:34Z</time>
      </trkpt>
      <trkpt lat="43.64463" lon="1.39305">
        <ele>126</ele>
        <time>2023-07-14T09:07:35Z</time>
      </trkpt>
      <trkpt lat="43.64463" lon="1.39305">
        <ele>127</ele>
        <time>2023-07-14T09:07:36Z</time>
      </trkpt>
      <trkpt lat="43.6446" lon="1.39307">
        <ele>127</ele>
        <time>2023-07-14T09:07:37Z</time>
      </trkpt>
      <trkpt lat="43.6446" lon="1.39307">
        <ele>127</ele>
        <time>2023-07-14T09:07:38Z</time>
      </trkpt>
      <trkpt lat="43.6446" lon="1.39307">
        <ele>127</ele>
        <time>2023-07-14T09:07:39Z</time>
      </trkpt>
      <trkpt lat="43.6446" lon="1.39307">
        <ele>127</ele>
        <time>2023-07-14T09:07:40Z</time>
      </trkpt>
      <trkpt lat="43.6446" lon="1.39307">
        <ele>127</ele>
        <time>2023-07-14T09:07:41Z</time>
      </trkpt>
      <trkpt lat="43.64462" lon="1.39307">
        <ele>127</ele>
        <time>2023-07-14T09:07:42Z</time>
      </trkpt>
      <trkpt lat="43.64462" lon="1.39307">
        <ele>127</ele>
        <time>2023-07-14T09:07:43Z</time>
      </trkpt>
      <trkpt lat="43.64465" lon="1.39306">
        <ele>127</ele>
        <time>2023-07-14T09:07:44Z</time>
      </trkpt>
      <trkpt lat="43.64465" lon="1.39306">
        <ele>127</ele>
        <time>2023-07-14T09:07:45Z</time>
      </trkpt>
      <trkpt lat="43.64467" lon="1.39306">
        <ele>127</ele>
        <time>2023-07-14T09:07:46Z</time>
      </trkpt>
      <trkpt lat="43.6447" lon="1.39306">
        <ele>127</ele>
        <time>2023-07-14T09:07:47Z</time>
      </trkpt>
      <trkpt lat="43.6447" lon="1.39306">
        <ele>127</ele>
        <time>2023-07-14T09:07:48Z</time>
      </trkpt>
      <trkpt lat="43.6447" lon="1.39306">
        <ele>127</ele>
        <time>2023-07-14T09:07:49Z</time>
      </trkpt>
      <trkpt lat="43.64472" lon="1.39307">
        <ele>127</ele>
        <time>2023-07-14T09:07:50Z</time>
      </trkpt>
      <trkpt lat="43.64472" lon="1.39307">
        <ele>127</ele>
        <time>2023-07-14T09:07:51Z</time>
      </trkpt>
      <trkpt lat="43.64475" lon="1.39307">
        <ele>126</ele>
        <time>2023-07-14T09:07:52Z</time>
      </trkpt>
      <trkpt lat="43.64475" lon="1.39307">
        <ele>126</ele>
        <time>2023-07-14T09:07:53Z</time>
      </trkpt>
      <trkpt lat="43.64478" lon="1.39307">
        <ele>126</ele>
        <time>2023-07-14T09:07:54Z</time>
      </trkpt>
      <trkpt lat="43.64478" lon="1.39307">
        <ele>126</ele>
        <time>2023-07-14T09:07:55Z</time>
      </trkpt>
      <trkpt lat="43.64481" lon="1.39307">
        <ele>126</ele>
        <time>2023-07-14T09:07:56Z</time>
      </trkpt>
      <trkpt lat="43.64481" lon="1.39307">
        <ele>126</ele>
        <time>2023-07-14T09:07:57Z</time>
      </trkpt>
      <trkpt lat="43.64483" lon="1.39307">
        <ele>126</ele>
        <time>2023-07-14T09:07:58Z</time>
      </trkpt>
      <trkpt lat="43.64483" lon="1.39307">
        <ele>126</ele>
        <time>2023-07-14T09:07:59Z</time>
      </trkpt>
      <trkpt lat="43.64486" lon="1.39307">
        <ele>126</ele>
        <time>2023-07-14T09:08:00Z</time>
      </trkpt>
      <trkpt lat="43.64488" lon="1.39307">
        <ele>126</ele>
        <time>2023-07-14T09:08:01Z</time>
      </trkpt>
      <trkpt lat="43.64488" lon="1.39307">
        <ele>126</ele>
        <time>2023-07-14T09:08:02Z</time>
      </trkpt>
      <trkpt lat="43.64491" lon="1.39306">
        <ele>126</ele>
        <time>2023-07-14T09:08:03Z</time>
      </trkpt>
      <trkpt lat="43.64491" lon="1.39306">
        <ele>126</ele>
        <time>2023-07-14T09:08:04Z</time>
      </trkpt>
      <trkpt lat="43.64491" lon="1.39306">
        <ele>126</ele>
        <time>2023-07-14T09:08:05Z</time>
      </trkpt>
      <trkpt lat="43.64493" lon="1.39306">
        <ele>126</ele>
        <time>2023-07-14T09:08:06Z</time>
      </trkpt>
      <trkpt lat="43.64493" lon="1.39306">
        <ele>126</ele>
        <time>2023-07-14T09:08:07Z</time>
      </trkpt>
      <trkpt lat="43.64495" lon="1.39306">
        <ele>126</ele>
        <time>2023-07-14T09:08:08Z</time>
      </trkpt>
      <trkpt lat="43.64494" lon="1.39306">
        <ele>126</ele>
        <time>2023-07-14T09:08:09Z</time>
      </trkpt>
      <trkpt lat="43.64492" lon="1.39307">
        <ele>125</ele>
        <time>2023-07-14T09:08:10Z</time>
      </trkpt>
      <trkpt lat="43.6449" lon="1.39308">
        <ele>125</ele>
        <time>2023-07-14T09:08:11Z</time>
      </trkpt>
      <trkpt lat="43.64484" lon="1.39309">
        <ele>125</ele>
        <time>2023-07-14T09:08:12Z</time>
      </trkpt>
      <trkpt lat="43.64484" lon="1.39309">
        <ele>125</ele>
        <time>2023-07-14T09:08:13Z</time>
      </trkpt>
      <trkpt lat="43.64484" lon="1.39309">
        <ele>125</ele>
        <time>2023-07-14T09:08:14Z</time>
      </trkpt>
      <trkpt lat="43.64486" lon="1.39308">
        <ele>125</ele>
        <time>2023-07-14T09:08:15Z</time>
      </trkpt>
      <trkpt lat="43.6449" lon="1.39306">
        <ele>125</ele>
        <time>2023-07-14T09:08:16Z</time>
      </trkpt>
      <trkpt lat="43.6449" lon="1.39306">
        <ele>125</ele>
        <time>2023-07-14T09:08:17Z</time>
      </trkpt>
      <trkpt lat="43.64492" lon="1.39306">
        <ele>125</ele>
        <time>2023-07-14T09:08:18Z</time>
      </trkpt>
      <trkpt lat="43.64494" lon="1.39306">
        <ele>125</ele>
        <time>2023-07-14T09:08:19Z</time>
      </trkpt>
      <trkpt lat="43.64493" lon="1.39306">
        <ele>125</ele>
        <time>2023-07-14T09:08:20Z</time>
      </trkpt>
      <trkpt lat="43.64491" lon="1.39306">
        <ele>125</ele>
        <time>2023-07-14T09:08:21Z</time>
      </trkpt>
      <trkpt lat="43.6449" lon="1.39306">
        <ele>125</ele>
        <time>2023-07-14T09:08:22Z</time>
      </trkpt>
      <trkpt lat="43.64488" lon="1.39306">
        <ele>126</ele>
        <time>2023-07-14T09:08:23Z</time>
      </trkpt>
      <trkpt lat="43.64483" lon="1.39306">
        <ele>127</ele>
        <time>2023-07-14T09:08:24Z</time>
      </trkpt>
      <trkpt lat="43.64478" lon="1.39306">
        <ele>127</ele>
        <time>2023-07-14T09:08:25Z</time>
      </trkpt>
      <trkpt lat="43.64474" lon="1.39307">
        <ele>127</ele>
        <time>2023-07-14T09:08:26Z</time>
      </trkpt>
      <trkpt lat="43.64475" lon="1.39307">
        <ele>126</ele>
        <time>2023-07-14T09:08:27Z</time>
      </trkpt>
      <trkpt lat="43.64477" lon="1.39307">
        <ele>126</ele>
        <time>2023-07-14T09:08:28Z</time>
      </trkpt>
      <trkpt lat="43.64478" lon="1.39306">
        <ele>126</ele>
        <time>2023-07-14T09:08:29Z</time>
      </trkpt>
      <trkpt lat="43.64479" lon="1.39306">
        <ele>126</ele>
        <time>2023-07-14T09:08:30Z</time>
      </trkpt>
      <trkpt lat="43.6448" lon="1.39306">
        <ele>126</ele>
        <time>2023-07-14T09:08:31Z</time>
      </trkpt>
      <trkpt lat="43.64482" lon="1.39306">
        <ele>127</ele>
        <time>2023-07-14T09:08:32Z</time>
      </trkpt>
      <trkpt lat="43.64483" lon="1.39305">
        <ele>127</ele>
        <time>2023-07-14T09:08:33Z</time>
      </trkpt>
      <trkpt lat="43.64485" lon="1.39305">
        <ele>127</ele>
        <time>2023-07-14T09:08:34Z</time>
      </trkpt>
      <trkpt lat="43.64487" lon="1.39305">
        <ele>126</ele>
        <time>2023-07-14T09:08:35Z</time>
      </trkpt>
      <trkpt lat="43.64489" lon="1.39305">
        <ele>126</ele>
        <time>2023-07-14T09:08:36Z</time>
      </trkpt>
      <trkpt lat="43.64491" lon="1.39305">
        <ele>126</ele>
        <time>2023-07-14T09:08:37Z</time>
      </trkpt>
      <trkpt lat="43.64492" lon="1.39304">
        <ele>126</ele>
        <time>2023-07-14T09:08:38Z</time>
      </trkpt>
      <trkpt lat="43.64494" lon="1.39304">
        <ele>126</ele>
        <time>2023-07-14T09:08:39Z</time>
      </trkpt>
      <trkpt lat="43.64494" lon="1.39304">
        <ele>126</ele>
        <time>2023-07-14T09:08:40Z</time>
      </trkpt>
      <trkpt lat="43.64496" lon="1.39304">
        <ele>126</ele>
        <time>2023-07-14T09:08:41Z</time>
      </trkpt>
      <trkpt lat="43.64493" lon="1.39305">
        <ele>125</ele>
        <time>2023-07-14T09:08:42Z</time>
      </trkpt>
      <trkpt lat="43.64489" lon="1.39305">
        <ele>125</ele>
        <time>2023-07-14T09:08:43Z</time>
      </trkpt>
      <trkpt lat="43.64485" lon="1.39305">
        <ele>125</ele>
        <time>2023-07-14T09:08:44Z</time>
      </trkpt>
      <trkpt lat="43.64479" lon="1.39305">
        <ele>126</ele>
        <time>2023-07-14T09:08:45Z</time>
      </trkpt>
      <trkpt lat="43.64473" lon="1.39306">
        <ele>126</ele>
        <time>2023-07-14T09:08:46Z</time>
      </trkpt>
      <trkpt lat="43.64463" lon="1.39307">
        <ele>126</ele>
        <time>2023-07-14T09:08:47Z</time>
      </trkpt>
      <trkpt lat="43.64463" lon="1.39307">
        <ele>127</ele>
        <time>2023-07-14T09:08:48Z</time>
      </trkpt>
      <trkpt lat="43.64463" lon="1.39307">
        <ele>127</ele>
        <time>2023-07-14T09:08:49Z</time>
      </trkpt>
      <trkpt lat="43.64459" lon="1.39309">
        <ele>127</ele>
        <time>2023-07-14T09:08:50Z</time>
      </trkpt>
      <trkpt lat="43.64459" lon="1.39309">
        <ele>127</ele>
        <time>2023-07-14T09:08:51Z</time>
      </trkpt>
      <trkpt lat="43.64461" lon="1.39308">
        <ele>127</ele>
        <time>2023-07-14T09:08:52Z</time>
      </trkpt>
      <trkpt lat="43.64461" lon="1.39308">
        <ele>127</ele>
        <time>2023-07-14T09:08:53Z</time>
      </trkpt>
      <trkpt lat="43.64464" lon="1.39307">
        <ele>127</ele>
        <time>2023-07-14T09:08:54Z</time>
      </trkpt>
      <trkpt lat="43.64464" lon="1.39307">
        <ele>127</ele>
        <time>2023-07-14T09:08:55Z</time>
      </trkpt>
      <trkpt lat="43.64464" lon="1.39307">
        <ele>127</ele>
        <time>2023-07-14T09:08:56Z</time>
      </trkpt>
      <trkpt lat="43.64466" lon="1.39306">
        <ele>127</ele>
        <time>2023-07-14T09:08:57Z</time>
      </trkpt>
      <trkpt lat="43.64468" lon="1.39306">
        <ele>127</ele>
        <time>2023-07-14T09:08:58Z</time>
      </trkpt>
      <trkpt lat="43.64468" lon="1.39306">
        <ele>127</ele>
        <time>2023-07-14T09:08:59Z</time>
      </trkpt>
      <trkpt lat="43.64468" lon="1.39306">
        <ele>127</ele>
        <time>2023-07-14T09:09:00Z</time>
      </trkpt>
      <trkpt lat="43.6447" lon="1.39306">
        <ele>126</ele>
        <time>2023-07-14T09:09:01Z</time>
      </trkpt>
      <trkpt lat="43.6447" lon="1.39306">
        <ele>126</ele>
        <time>2023-07-14T09:09:02Z</time>
      </trkpt>
      <trkpt lat="43.64473" lon="1.39305">
        <ele>126</ele>
        <time>2023-07-14T09:09:03Z</time>
      </trkpt>
      <trkpt lat="43.64473" lon="1.39305">
        <ele>126</ele>
        <time>2023-07-14T09:09:04Z</time>
      </trkpt>
      <trkpt lat="43.64475" lon="1.39305">
        <ele>126</ele>
        <time>2023-07-14T09:09:05Z</time>
      </trkpt>
      <trkpt lat="43.64475" lon="1.39305">
        <ele>126</ele>
        <time>2023-07-14T09:09:06Z</time>
      </trkpt>
      <trkpt lat="43.64478" lon="1.39305">
        <ele>126</ele>
        <time>2023-07-14T09:09:07Z</time>
      </trkpt>
      <trkpt lat="43.64478" lon="1.39305">
        <ele>126</ele>
        <time>2023-07-14T09:09:08Z</time>
      </trkpt>
      <trkpt lat="43.6448" lon="1.39305">
        <ele>126</ele>
        <time>2023-07-14T09:09:09Z</time>
      </trkpt>
      <trkpt lat="43.6448" lon="1.39305">
        <ele>126</ele>
        <time>2023-07-14T09:09:10Z</time>
      </trkpt>
      <trkpt lat="43.64482" lon="1.39305">
        <ele>126</ele>
        <time>2023-07-14T09:09:11Z</time>
      </trkpt>
      <trkpt lat="43.64482" lon="1.39305">
        <ele>126</ele>
        <time>2023-07-14T09:09:12Z</time>
      </trkpt>
      <trkpt lat="43.64482" lon="1.39305">
        <ele>126</ele>
        <time>2023-07-14T09:09:13Z</time>
      </trkpt>
      <trkpt lat="43.64485" lon="1.39305">
        <ele>126</ele>
        <time>2023-07-14T09:09:14Z</time>
      </trkpt>
      <trkpt lat="43.64485" lon="1.39305">
        <ele>126</ele>
        <time>2023-07-14T09:09:15Z</time>
      </trkpt>
      <trkpt lat="43.64487" lon="1.39305">
        <ele>126</ele>
        <time>2023-07-14T09:09:16Z</time>
      </trkpt>
      <trkpt lat="43.6449" lon="1.39304">
        <ele>126</ele>
        <time>2023-07-14T09:09:17Z</time>
      </trkpt>
      <trkpt lat="43.6449" lon="1.39304">
        <ele>126</ele>
        <time>2023-07-14T09:09:18Z</time>
      </trkpt>
      <trkpt lat="43.6449" lon="1.39304">
        <ele>126</ele>
        <time>2023-07-14T09:09:19Z</time>
      </trkpt>
      <trkpt lat="43.64492" lon="1.39304">
        <ele>126</ele>
        <time>2023-07-14T09:09:20Z</time>
      </trkpt>
      <trkpt lat="43.64492" lon="1.39304">
        <ele>126</ele>
        <time>2023-07-14T09:09:21Z</time>
      </trkpt>
      <trkpt lat="43.64495" lon="1.39304">
        <ele>126</ele>
        <time>2023-07-14T09:09:22Z</time>
      </trkpt>
      <trkpt lat="43.64493" lon="1.39304">
        <ele>126</ele>
        <time>2023-07-14T09:09:23Z</time>
      </trkpt>
      <trkpt lat="43.64492" lon="1.39304">
        <ele>126</ele>
        <time>2023-07-14T09:09:24Z</time>
      </trkpt>
      <trkpt lat="43.64491" lon="1.39304">
        <ele>125</ele>
        <time>2023-07-14T09:09:25Z</time>
      </trkpt>
      <trkpt lat="43.64488" lon="1.39304">
        <ele>126</ele>
        <time>2023-07-14T09:09:26Z</time>
      </trkpt>
      <trkpt lat="43.64488" lon="1.39304">
        <ele>126</ele>
        <time>2023-07-14T09:09:27Z</time>
      </trkpt>
      <trkpt lat="43.64488" lon="1.39304">
        <ele>126</ele>
        <time>2023-07-14T09:09:28Z</time>
      </trkpt>
      <trkpt lat="43.64488" lon="1.39304">
        <ele>126</ele>
        <time>2023-07-14T09:09:29Z</time>
      </trkpt>
      <trkpt lat="43.64488" lon="1.39304">
        <ele>126</ele>
        <time>2023-07-14T09:09:30Z</time>
      </trkpt>
      <trkpt lat="43.64491" lon="1.39302">
        <ele>126</ele>
        <time>2023-07-14T09:09:31Z</time>
      </trkpt>
      <trkpt lat="43.64491" lon="1.39302">
        <ele>126</ele>
        <time>2023-07-14T09:09:32Z</time>
      </trkpt>
      <trkpt lat="43.64495" lon="1.39302">
        <ele>125</ele>
        <time>2023-07-14T09:09:33Z</time>
      </trkpt>
      <trkpt lat="43.64495" lon="1.39302">
        <ele>125</ele>
        <time>2023-07-14T09:09:34Z</time>
      </trkpt>
      <trkpt lat="43.64492" lon="1.39302">
        <ele>125</ele>
        <time>2023-07-14T09:09:35Z</time>
      </trkpt>
      <trkpt lat="43.64489" lon="1.39303">
        <ele>125</ele>
        <time>2023-07-14T09:09:36Z</time>
      </trkpt>
      <trkpt lat="43.64486" lon="1.39303">
        <ele>125</ele>
        <time>2023-07-14T09:09:37Z</time>
      </trkpt>
      <trkpt lat="43.64484" lon="1.39303">
        <ele>125</ele>
        <time>2023-07-14T09:09:38Z</time>
      </trkpt>
      <trkpt lat="43.64478" lon="1.39304">
        <ele>126</ele>
        <time>2023-07-14T09:09:39Z</time>
      </trkpt>
      <trkpt lat="43.64478" lon="1.39304">
        <ele>127</ele>
        <time>2023-07-14T09:09:40Z</time>
      </trkpt>
      <trkpt lat="43.64478" lon="1.39304">
        <ele>127</ele>
        <time>2023-07-14T09:09:41Z</time>
      </trkpt>
      <trkpt lat="43.64478" lon="1.39304">
        <ele>127</ele>
        <time>2023-07-14T09:09:42Z</time>
      </trkpt>
      <trkpt lat="43.64475" lon="1.39306">
        <ele>127</ele>
        <time>2023-07-14T09:09:43Z</time>
      </trkpt>
      <trkpt lat="43.64477" lon="1.39305">
        <ele>127</ele>
        <time>2023-07-14T09:09:44Z</time>
      </trkpt>
      <trkpt lat="43.64479" lon="1.39305">
        <ele>126</ele>
        <time>2023-07-14T09:09:45Z</time>
      </trkpt>
      <trkpt lat="43.6448" lon="1.39304">
        <ele>126</ele>
        <time>2023-07-14T09:09:46Z</time>
      </trkpt>
      <trkpt lat="43.64483" lon="1.39304">
        <ele>126</ele>
        <time>2023-07-14T09:09:47Z</time>
      </trkpt>
      <trkpt lat="43.64483" lon="1.39304">
        <ele>126</ele>
        <time>2023-07-14T09:09:48Z</time>
      </trkpt>
      <trkpt lat="43.64487" lon="1.39303">
        <ele>126</ele>
        <time>2023-07-14T09:09:49Z</time>
      </trkpt>
      <trkpt lat="43.64489" lon="1.39302">
        <ele>126</ele>
        <time>2023-07-14T09:09:50Z</time>
      </trkpt>
      <trkpt lat="43.64491" lon="1.39302">
        <ele>126</ele>
        <time>2023-07-14T09:09:51Z</time>
      </trkpt>
      <trkpt lat="43.64493" lon="1.39302">
        <ele>126</ele>
        <time>2023-07-14T09:09:52Z</time>
      </trkpt>
      <trkpt lat="43.64495" lon="1.39302">
        <ele>126</ele>
        <time>2023-07-14T09:09:53Z</time>
      </trkpt>
      <trkpt lat="43.64495" lon="1.39302">
        <ele>126</ele>
        <time>2023-07-14T09:09:54Z</time>
      </trkpt>
      <trkpt lat="43.64487" lon="1.39304">
        <ele>125</ele>
        <time>2023-07-14T09:09:55Z</time>
      </trkpt>
      <trkpt lat="43.64487" lon="1.39304">
        <ele>125</ele>
        <time>2023-07-14T09:09:56Z</time>
      </trkpt>
      <trkpt lat="43.64482" lon="1.39305">
        <ele>125</ele>
        <time>2023-07-14T09:09:57Z</time>
      </trkpt>
      <trkpt lat="43.64477" lon="1.39305">
        <ele>125</ele>
        <time>2023-07-14T09:09:58Z</time>
      </trkpt>
      <trkpt lat="43.64471" lon="1.39307">
        <ele>125</ele>
        <time>2023-07-14T09:09:59Z</time>
      </trkpt>
      <trkpt lat="43.64467" lon="1.39307">
        <ele>127</ele>
        <time>2023-07-14T09:10:00Z</time>
      </trkpt>
      <trkpt lat="43.64463" lon="1.39308">
        <ele>127</ele>
        <time>2023-07-14T09:10:01Z</time>
      </trkpt>
      <trkpt lat="43.64459" lon="1.39307">
        <ele>127</ele>
        <time>2023-07-14T09:10:02Z</time>
      </trkpt>
      <trkpt lat="43.64459" lon="1.39307">
        <ele>127</ele>
        <time>2023-07-14T09:10:03Z</time>
      </trkpt>
      <trkpt lat="43.64457" lon="1.39308">
        <ele>127</ele>
        <time>2023-07-14T09:10:04Z</time>
      </trkpt>
      <trkpt lat="43.64457" lon="1.39308">
        <ele>127</ele>
        <time>2023-07-14T09:10:05Z</time>
      </trkpt>
      <trkpt lat="43.64457" lon="1.39308">
        <ele>127</ele>
        <time>2023-07-14T09:10:06Z</time>
      </trkpt>
      <trkpt lat="43.64454" lon="1.39309">
        <ele>127</ele>
        <time>2023-07-14T09:10:07Z</time>
      </trkpt>
      <trkpt lat="43.64454" lon="1.39309">
        <ele>127</ele>
        <time>2023-07-14T09:10:08Z</time>
      </trkpt>
      <trkpt lat="43.64451" lon="1.39309">
        <ele>127</ele>
        <time>2023-07-14T09:10:09Z</time>
      </trkpt>
      <trkpt lat="43.64451" lon="1.39309">
        <ele>127</ele>
        <time>2023-07-14T09:10:10Z</time>
      </trkpt>
      <trkpt lat="43.64449" lon="1.3931">
        <ele>127</ele>
        <time>2023-07-14T09:10:11Z</time>
      </trkpt>
      <trkpt lat="43.64449" lon="1.3931">
        <ele>127</ele>
        <time>2023-07-14T09:10:12Z</time>
      </trkpt>
      <trkpt lat="43.64447" lon="1.3931">
        <ele>127</ele>
        <time>2023-07-14T09:10:13Z</time>
      </trkpt>
      <trkpt lat="43.64445" lon="1.3931">
        <ele>127</ele>
        <time>2023-07-14T09:10:14Z</time>
      </trkpt>
      <trkpt lat="43.64445" lon="1.3931">
        <ele>127</ele>
        <time>2023-07-14T09:10:15Z</time>
      </trkpt>
      <trkpt lat="43.64445" lon="1.3931">
        <ele>127</ele>
        <time>2023-07-14T09:10:16Z</time>
      </trkpt>
      <trkpt lat="43.64442" lon="1.3931">
        <ele>126</ele>
        <time>2023-07-14T09:10:17Z</time>
      </trkpt>
      <trkpt lat="43.64442" lon="1.3931">
        <ele>126</ele>
        <time>2023-07-14T09:10:18Z</time>
      </trkpt>
      <trkpt lat="43.6444" lon="1.3931">
        <ele>127</ele>
        <time>2023-07-14T09:10:19Z</time>
      </trkpt>
      <trkpt lat="43.6444" lon="1.3931">
        <ele>127</ele>
        <time>2023-07-14T09:10:20Z</time>
      </trkpt>
      <trkpt lat="43.64437" lon="1.39311">
        <ele>127</ele>
        <time>2023-07-14T09:10:21Z</time>
      </trkpt>
      <trkpt lat="43.64435" lon="1.39311">
        <ele>127</ele>
        <time>2023-07-14T09:10:22Z</time>
      </trkpt>
      <trkpt lat="43.64435" lon="1.39311">
        <ele>127</ele>
        <time>2023-07-14T09:10:23Z</time>
      </trkpt>
      <trkpt lat="43.64435" lon="1.39311">
        <ele>126</ele>
        <time>2023-07-14T09:10:24Z</time>
      </trkpt>
      <trkpt lat="43.64433" lon="1.39311">
        <ele>126</ele>
        <time>2023-07-14T09:10:25Z</time>
      </trkpt>
      <trkpt lat="43.64433" lon="1.39311">
        <ele>126</ele>
        <time>2023-07-14T09:10:26Z</time>
      </trkpt>
      <trkpt lat="43.64431" lon="1.39311">
        <ele>126</ele>
        <time>2023-07-14T09:10:27Z</time>
      </trkpt>
      <trkpt lat="43.64431" lon="1.39311">
        <ele>126</ele>
        <time>2023-07-14T09:10:28Z</time>
      </trkpt>
      <trkpt lat="43.64431" lon="1.39311">
        <ele>125</ele>
        <time>2023-07-14T09:10:29Z</time>
      </trkpt>
      <trkpt lat="43.64429" lon="1.39311">
        <ele>125</ele>
        <time>2023-07-14T09:10:30Z</time>
      </trkpt>
      <trkpt lat="43.64429" lon="1.39311">
        <ele>125</ele>
        <time>2023-07-14T09:10:31Z</time>
      </trkpt>
      <trkpt lat="43.64426" lon="1.39311">
        <ele>125</ele>
        <time>2023-07-14T09:10:32Z</time>
      </trkpt>
      <trkpt lat="43.64424" lon="1.39311">
        <ele>125</ele>
        <time>2023-07-14T09:10:33Z</time>
      </trkpt>
      <trkpt lat="43.64424" lon="1.39311">
        <ele>125</ele>
        <time>2023-07-14T09:10:34Z</time>
      </trkpt>
      <trkpt lat="43.64424" lon="1.39311">
        <ele>125</ele>
        <time>2023-07-14T09:10:35Z</time>
      </trkpt>
      <trkpt lat="43.64422" lon="1.39312">
        <ele>125</ele>
        <time>2023-07-14T09:10:36Z</time>
      </trkpt>
      <trkpt lat="43.64422" lon="1.39312">
        <ele>125</ele>
        <time>2023-07-14T09:10:37Z</time>
      </trkpt>
      <trkpt lat="43.64422" lon="1.39312">
        <ele>125</ele>
        <time>2023-07-14T09:10:38Z</time>
      </trkpt>
      <trkpt lat="43.64422" lon="1.39312">
        <ele>125</ele>
        <time>2023-07-14T09:10:39Z</time>
      </trkpt>
      <trkpt lat="43.64422" lon="1.39312">
        <ele>125</ele>
        <time>2023-07-14T09:10:40Z</time>
      </trkpt>
      <trkpt lat="43.64424" lon="1.39312">
        <ele>125</ele>
        <time>2023-07-14T09:10:41Z</time>
      </trkpt>
      <trkpt lat="43.64424" lon="1.39312">
        <ele>125</ele>
        <time>2023-07-14T09:10:42Z</time>
      </trkpt>
      <trkpt lat="43.64427" lon="1.3931">
        <ele>125</ele>
        <time>2023-07-14T09:10:43Z</time>
      </trkpt>
      <trkpt lat="43.64427" lon="1.3931">
        <ele>126</ele>
        <time>2023-07-14T09:10:44Z</time>
      </trkpt>
      <trkpt lat="43.64429" lon="1.3931">
        <ele>126</ele>
        <time>2023-07-14T09:10:45Z</time>
      </trkpt>
      <trkpt lat="43.64429" lon="1.3931">
        <ele>126</ele>
        <time>2023-07-14T09:10:46Z</time>
      </trkpt>
      <trkpt lat="43.64431" lon="1.39309">
        <ele>126</ele>
        <time>2023-07-14T09:10:47Z</time>
      </trkpt>
      <trkpt lat="43.64431" lon="1.39309">
        <ele>126</ele>
        <time>2023-07-14T09:10:48Z</time>
      </trkpt>
      <trkpt lat="43.64434" lon="1.39308">
        <ele>126</ele>
        <time>2023-07-14T09:10:49Z</time>
      </trkpt>
      <trkpt lat="43.64434" lon="1.39308">
        <ele>126</ele>
        <time>2023-07-14T09:10:50Z</time>
      </trkpt>
      <trkpt lat="43.64436" lon="1.39308">
        <ele>126</ele>
        <time>2023-07-14T09:10:51Z</time>
      </trkpt>
      <trkpt lat="43.64439" lon="1.39307">
        <ele>126</ele>
        <time>2023-07-14T09:10:52Z</time>
      </trkpt>
      <trkpt lat="43.64439" lon="1.39307">
        <ele>126</ele>
        <time>2023-07-14T09:10:53Z</time>
      </trkpt>
      <trkpt lat="43.64439" lon="1.39307">
        <ele>126</ele>
        <time>2023-07-14T09:10:54Z</time>
      </trkpt>
      <trkpt lat="43.64442" lon="1.39307">
        <ele>126</ele>
        <time>2023-07-14T09:10:55Z</time>
      </trkpt>
      <trkpt lat="43.64442" lon="1.39307">
        <ele>126</ele>
        <time>2023-07-14T09:10:56Z</time>
      </trkpt>
      <trkpt lat="43.64444" lon="1.39307">
        <ele>126</ele>
        <time>2023-07-14T09:10:57Z</time>
      </trkpt>
      <trkpt lat="43.64444" lon="1.39307">
        <ele>126</ele>
        <time>2023-07-14T09:10:58Z</time>
      </trkpt>
      <trkpt lat="43.64447" lon="1.39307">
        <ele>126</ele>
        <time>2023-07-14T09:10:59Z</time>
      </trkpt>
      <trkpt lat="43.64447" lon="1.39307">
        <ele>126</ele>
        <time>2023-07-14T09:11:00Z</time>
      </trkpt>
      <trkpt lat="43.64448" lon="1.39307">
        <ele>126</ele>
        <time>2023-07-14T09:11:01Z</time>
      </trkpt>
      <trkpt lat="43.64448" lon="1.39307">
        <ele>127</ele>
        <time>2023-07-14T09:11:02Z</time>
      </trkpt>
      <trkpt lat="43.6445" lon="1.39306">
        <ele>127</ele>
        <time>2023-07-14T09:11:03Z</time>
      </trkpt>
      <trkpt lat="43.6445" lon="1.39306">
        <ele>127</ele>
        <time>2023-07-14T09:11:04Z</time>
      </trkpt>
      <trkpt lat="43.64452" lon="1.39306">
        <ele>127</ele>
        <time>2023-07-14T09:11:05Z</time>
      </trkpt>
      <trkpt lat="43.64452" lon="1.39306">
        <ele>127</ele>
        <time>2023-07-14T09:11:06Z</time>
      </trkpt>
      <trkpt lat="43.64452" lon="1.39306">
        <ele>127</ele>
        <time>2023-07-14T09:11:07Z</time>
      </trkpt>
      <trkpt lat="43.64455" lon="1.39304">
        <ele>127</ele>
        <time>2023-07-14T09:11:08Z</time>
      </trkpt>
      <trkpt lat="43.64455" lon="1.39304">
        <ele>127</ele>
        <time>2023-07-14T09:11:09Z</time>
      </trkpt>
      <trkpt lat="43.64455" lon="1.39301">
        <ele>127</ele>
        <time>2023-07-14T09:11:10Z</time>
      </trkpt>
      <trkpt lat="43.64455" lon="1.39298">
        <ele>127</ele>
        <time>2023-07-14T09:11:11Z</time>
      </trkpt>
      <trkpt lat="43.64455" lon="1.39298">
        <ele>127</ele>
        <time>2023-07-14T09:11:12Z</time>
      </trkpt>
      <trkpt lat="43.64455" lon="1.39298">
        <ele>127</ele>
        <time>2023-07-14T09:11:13Z</time>
      </trkpt>
      <trkpt lat="43.64455" lon="1.39295">
        <ele>127</ele>
        <time>2023-07-14T09:11:14Z</time>
      </trkpt>
      <trkpt lat="43.64455" lon="1.39295">
        <ele>127</ele>
        <time>2023-07-14T09:11:15Z</time>
      </trkpt>
      <trkpt lat="43.64454" lon="1.39292">
        <ele>127</ele>
        <time>2023-07-14T09:11:16Z</time>
      </trkpt>
      <trkpt lat="43.64453" lon="1.39289">
        <ele>127</ele>
        <time>2023-07-14T09:11:17Z</time>
      </trkpt>
      <trkpt lat="43.64453" lon="1.39289">
        <ele>127</ele>
        <time>2023-07-14T09:11:18Z</time>
      </trkpt>
      <trkpt lat="43.64453" lon="1.39289">
        <ele>127</ele>
        <time>2023-07-14T09:11:19Z</time>
      </trkpt>
      <trkpt lat="43.64452" lon="1.39286">
        <ele>127</ele>
        <time>2023-07-14T09:11:20Z</time>
      </trkpt>
      <trkpt lat="43.64452" lon="1.39286">
        <ele>127</ele>
        <time>2023-07-14T09:11:21Z</time>
      </trkpt>
      <trkpt lat="43.64452" lon="1.39283">
        <ele>127</ele>
        <time>2023-07-14T09:11:22Z</time>
      </trkpt>
      <trkpt lat="43.64452" lon="1.39283">
        <ele>127</ele>
        <time>2023-07-14T09:11:23Z</time>
      </trkpt>
      <trkpt lat="43.64451" lon="1.3928">
        <ele>127</ele>
        <time>2023-07-14T09:11:24Z</time>
      </trkpt>
      <trkpt lat="43.64451" lon="1.3928">
        <ele>127</ele>
        <time>2023-07-14T09:11:25Z</time>
      </trkpt>
      <trkpt lat="43.64451" lon="1.39278">
        <ele>127</ele>
        <time>2023-07-14T09:11:26Z</time>
      </trkpt>
      <trkpt lat="43.64451" lon="1.39278">
        <ele>127</ele>
        <time>2023-07-14T09:11:27Z</time>
      </trkpt>
      <trkpt lat="43.6445" lon="1.39275">
        <ele>127</ele>
        <time>2023-07-14T09:11:28Z</time>
      </trkpt>
      <trkpt lat="43.6445" lon="1.39275">
        <ele>127</ele>
        <time>2023-07-14T09:11:29Z</time>
      </trkpt>
      <trkpt lat="43.64449" lon="1.39272">
        <ele>127</ele>
        <time>2023-07-14T09:11:30Z</time>
      </trkpt>
      <trkpt lat="43.64449" lon="1.39272">
        <ele>127</ele>
        <time>2023-07-14T09:11:31Z</time>
      </trkpt>
      <trkpt lat="43.64449" lon="1.39268">
        <ele>127</ele>
        <time>2023-07-14T09:11:32Z</time>
      </trkpt>
      <trkpt lat="43.64449" lon="1.39268">
        <ele>127</ele>
        <time>2023-07-14T09:11:33Z</time>
      </trkpt>
      <trkpt lat="43.64448" lon="1.39266">
        <ele>127</ele>
        <time>2023-07-14T09:11:34Z</time>
      </trkpt>
      <trkpt lat="43.64448" lon="1.39266">
        <ele>127</ele>
        <time>2023-07-14T09:11:35Z</time>
      </trkpt>
      <trkpt lat="43.64448" lon="1.39266">
        <ele>127</ele>
        <time>2023-07-14T09:11:36Z</time>
      </trkpt>
      <trkpt lat="43.64447" lon="1.39262">
        <ele>127</ele>
        <time>2023-07-14T09:11:37Z</time>
      </trkpt>
      <trkpt lat="43.64447" lon="1.39262">
        <ele>127</ele>
        <time>2023-07-14T09:11:38Z</time>
      </trkpt>
      <trkpt lat="43.64446" lon="1.3926">
        <ele>128</ele>
        <time>2023-07-14T09:11:39Z</time>
      </trkpt>
      <trkpt lat="43.64446" lon="1.3926">
        <ele>128</ele>
        <time>2023-07-14T09:11:40Z</time>
      </trkpt>
      <trkpt lat="43.64445" lon="1.39257">
        <ele>127</ele>
        <time>2023-07-14T09:11:41Z</time>
      </trkpt>
      <trkpt lat="43.64445" lon="1.39257">
        <ele>127</ele>
        <time>2023-07-14T09:11:42Z</time>
      </trkpt>
      <trkpt lat="43.64443" lon="1.39255">
        <ele>127</ele>
        <time>2023-07-14T09:11:43Z</time>
      </trkpt>
      <trkpt lat="43.64443" lon="1.39255">
        <ele>127</ele>
        <time>2023-07-14T09:11:44Z</time>
      </trkpt>
      <trkpt lat="43.64443" lon="1.39255">
        <ele>127</ele>
        <time>2023-07-14T09:11:45Z</time>
      </trkpt>
      <trkpt lat="43.64442" lon="1.39252">
        <ele>127</ele>
        <time>2023-07-14T09:11:46Z</time>
      </trkpt>
      <trkpt lat="43.64442" lon="1.39252">
        <ele>128</ele>
        <time>2023-07-14T09:11:47Z</time>
      </trkpt>
      <trkpt lat="43.64442" lon="1.39252">
        <ele>128</ele>
        <time>2023-07-14T09:11:48Z</time>
      </trkpt>
      <trkpt lat="43.6444" lon="1.39248">
        <ele>128</ele>
        <time>2023-07-14T09:11:49Z</time>
      </trkpt>
      <trkpt lat="43.6444" lon="1.39248">
        <ele>128</ele>
        <time>2023-07-14T09:11:50Z</time>
      </trkpt>
      <trkpt lat="43.64438" lon="1.39244">
        <ele>128</ele>
        <time>2023-07-14T09:11:51Z</time>
      </trkpt>
      <trkpt lat="43.64435" lon="1.39239">
        <ele>127</ele>
        <time>2023-07-14T09:11:52Z</time>
      </trkpt>
      <trkpt lat="43.64432" lon="1.39234">
        <ele>127</ele>
        <time>2023-07-14T09:11:53Z</time>
      </trkpt>
      <trkpt lat="43.64431" lon="1.3923">
        <ele>127</ele>
        <time>2023-07-14T09:11:54Z</time>
      </trkpt>
      <trkpt lat="43.64431" lon="1.3923">
        <ele>127</ele>
        <time>2023-07-14T09:11:55Z</time>
      </trkpt>
      <trkpt lat="43.64431" lon="1.3923">
        <ele>127</ele>
        <time>2023-07-14T09:11:56Z</time>
      </trkpt>
      <trkpt lat="43.64433" lon="1.39231">
        <ele>127</ele>
        <time>2023-07-14T09:11:57Z</time>
      </trkpt>
      <trkpt lat="43.64434" lon="1.39234">
        <ele>127</ele>
        <time>2023-07-14T09:11:58Z</time>
      </trkpt>
      <trkpt lat="43.64436" lon="1.39239">
        <ele>127</ele>
        <time>2023-07-14T09:11:59Z</time>
      </trkpt>
      <trkpt lat="43.64436" lon="1.39239">
        <ele>127</ele>
        <time>2023-07-14T09:12:00Z</time>
      </trkpt>
      <trkpt lat="43.64437" lon="1.39241">
        <ele>127</ele>
        <time>2023-07-14T09:12:01Z</time>
      </trkpt>
      <trkpt lat="43.64437" lon="1.39241">
        <ele>127</ele>
        <time>2023-07-14T09:12:02Z</time>
      </trkpt>
      <trkpt lat="43.64439" lon="1.39245">
        <ele>127</ele>
        <time>2023-07-14T09:12:03Z</time>
      </trkpt>
      <trkpt lat="43.6444" lon="1.39247">
        <ele>127</ele>
        <time>2023-07-14T09:12:04Z</time>
      </trkpt>
      <trkpt lat="43.6444" lon="1.39247">
        <ele>127</ele>
        <time>2023-07-14T09:12:05Z</time>
      </trkpt>
      <trkpt lat="43.64438" lon="1.39246">
        <ele>127</ele>
        <time>2023-07-14T09:12:06Z</time>
      </trkpt>
      <trkpt lat="43.64436" lon="1.39243">
        <ele>127</ele>
        <time>2023-07-14T09:12:07Z</time>
      </trkpt>
      <trkpt lat="43.64435" lon="1.3924">
        <ele>127</ele>
        <time>2023-07-14T09:12:08Z</time>
      </trkpt>
      <trkpt lat="43.6443" lon="1.39231">
        <ele>127</ele>
        <time>2023-07-14T09:12:09Z</time>
      </trkpt>
      <trkpt lat="43.64428" lon="1.39228">
        <ele>127</ele>
        <time>2023-07-14T09:12:10Z</time>
      </trkpt>
      <trkpt lat="43.64423" lon="1.39215">
        <ele>127</ele>
        <time>2023-07-14T09:12:11Z</time>
      </trkpt>
      <trkpt lat="43.6442" lon="1.3921">
        <ele>127</ele>
        <time>2023-07-14T09:12:12Z</time>
      </trkpt>
      <trkpt lat="43.6442" lon="1.3921">
        <ele>128</ele>
        <time>2023-07-14T09:12:13Z</time>
      </trkpt>
      <trkpt lat="43.64419" lon="1.39207">
        <ele>128</ele>
        <time>2023-07-14T09:12:14Z</time>
      </trkpt>
      <trkpt lat="43.64419" lon="1.39207">
        <ele>128</ele>
        <time>2023-07-14T09:12:15Z</time>
      </trkpt>
      <trkpt lat="43.64422" lon="1.39211">
        <ele>129</ele>
        <time>2023-07-14T09:12:16Z</time>
      </trkpt>
      <trkpt lat="43.64423" lon="1.39213">
        <ele>129</ele>
        <time>2023-07-14T09:12:17Z</time>
      </trkpt>
      <trkpt lat="43.64426" lon="1.39216">
        <ele>129</ele>
        <time>2023-07-14T09:12:18Z</time>
      </trkpt>
      <trkpt lat="43.64426" lon="1.39216">
        <ele>129</ele>
        <time>2023-07-14T09:12:19Z</time>
      </trkpt>
      <trkpt lat="43.64427" lon="1.39218">
        <ele>129</ele>
        <time>2023-07-14T09:12:20Z</time>
      </trkpt>
      <trkpt lat="43.64429" lon="1.3922">
        <ele>129</ele>
        <time>2023-07-14T09:12:21Z</time>
      </trkpt>
      <trkpt lat="43.6443" lon="1.39222">
        <ele>129</ele>
        <time>2023-07-14T09:12:22Z</time>
      </trkpt>
      <trkpt lat="43.64431" lon="1.39224">
        <ele>128</ele>
        <time>2023-07-14T09:12:23Z</time>
      </trkpt>
      <trkpt lat="43.64432" lon="1.39227">
        <ele>128</ele>
        <time>2023-07-14T09:12:24Z</time>
      </trkpt>
      <trkpt lat="43.64433" lon="1.39229">
        <ele>128</ele>
        <time>2023-07-14T09:12:25Z</time>
      </trkpt>
      <trkpt lat="43.64433" lon="1.39231">
        <ele>128</ele>
        <time>2023-07-14T09:12:26Z</time>
      </trkpt>
      <trkpt lat="43.64435" lon="1.39236">
        <ele>128</ele>
        <time>2023-07-14T09:12:27Z</time>
      </trkpt>
      <trkpt lat="43.64435" lon="1.39236">
        <ele>128</ele>
        <time>2023-07-14T09:12:28Z</time>
      </trkpt>
      <trkpt lat="43.64436" lon="1.39239">
        <ele>128</ele>
        <time>2023-07-14T09:12:29Z</time>
      </trkpt>
      <trkpt lat="43.64437" lon="1.39241">
        <ele>128</ele>
        <time>2023-07-14T09:12:30Z</time>
      </trkpt>
      <trkpt lat="43.64439" lon="1.39242">
        <ele>128</ele>
        <time>2023-07-14T09:12:31Z</time>
      </trkpt>
      <trkpt lat="43.64442" lon="1.39247">
        <ele>128</ele>
        <time>2023-07-14T09:12:32Z</time>
      </trkpt>
      <trkpt lat="43.64442" lon="1.39247">
        <ele>128</ele>
        <time>2023-07-14T09:12:33Z</time>
      </trkpt>
      <trkpt lat="43.64442" lon="1.39247">
        <ele>128</ele>
        <time>2023-07-14T09:12:34Z</time>
      </trkpt>
      <trkpt lat="43.64442" lon="1.39247">
        <ele>128</ele>
        <time>2023-07-14T09:12:35Z</time>
      </trkpt>
      <trkpt lat="43.64439" lon="1.39244">
        <ele>127</ele>
        <time>2023-07-14T09:12:36Z</time>
      </trkpt>
      <trkpt lat="43.64432" lon="1.39233">
        <ele>128</ele>
        <time>2023-07-14T09:12:37Z</time>
      </trkpt>
      <trkpt lat="43.64432" lon="1.39233">
        <ele>128</ele>
        <time>2023-07-14T09:12:38Z</time>
      </trkpt>
      <trkpt lat="43.64429" lon="1.39227">
        <ele>128</ele>
        <time>2023-07-14T09:12:39Z</time>
      </trkpt>
      <trkpt lat="43.64426" lon="1.39221">
        <ele>127</ele>
        <time>2023-07-14T09:12:40Z</time>
      </trkpt>
      <trkpt lat="43.64422" lon="1.39214">
        <ele>128</ele>
        <time>2023-07-14T09:12:41Z</time>
      </trkpt>
      <trkpt lat="43.64419" lon="1.39208">
        <ele>128</ele>
        <time>2023-07-14T09:12:42Z</time>
      </trkpt>
      <trkpt lat="43.64416" lon="1.39202">
        <ele>127</ele>
        <time>2023-07-14T09:12:43Z</time>
      </trkpt>
      <trkpt lat="43.64413" lon="1.39197">
        <ele>128</ele>
        <time>2023-07-14T09:12:44Z</time>
      </trkpt>
      <trkpt lat="43.6441" lon="1.39192">
        <ele>129</ele>
        <time>2023-07-14T09:12:45Z</time>
      </trkpt>
      <trkpt lat="43.64408" lon="1.39184">
        <ele>129</ele>
        <time>2023-07-14T09:12:46Z</time>
      </trkpt>
      <trkpt lat="43.64408" lon="1.39184">
        <ele>130</ele>
        <time>2023-07-14T09:12:47Z</time>
      </trkpt>
      <trkpt lat="43.64408" lon="1.39184">
        <ele>130</ele>
        <time>2023-07-14T09:12:48Z</time>
      </trkpt>
      <trkpt lat="43.64409" lon="1.39186">
        <ele>131</ele>
        <time>2023-07-14T09:12:49Z</time>
      </trkpt>
      <trkpt lat="43.64411" lon="1.39189">
        <ele>131</ele>
        <time>2023-07-14T09:12:50Z</time>
      </trkpt>
      <trkpt lat="43.64411" lon="1.39189">
        <ele>131</ele>
        <time>2023-07-14T09:12:51Z</time>
      </trkpt>
      <trkpt lat="43.64411" lon="1.39189">
        <ele>131</ele>
        <time>2023-07-14T09:12:52Z</time>
      </trkpt>
      <trkpt lat="43.64413" lon="1.39193">
        <ele>131</ele>
        <time>2023-07-14T09:12:53Z</time>
      </trkpt>
      <trkpt lat="43.64413" lon="1.39193">
        <ele>131</ele>
        <time>2023-07-14T09:12:54Z</time>
      </trkpt>
      <trkpt lat="43.64415" lon="1.39197">
        <ele>131</ele>
        <time>2023-07-14T09:12:55Z</time>
      </trkpt>
      <trkpt lat="43.64416" lon="1.39199">
        <ele>131</ele>
        <time>2023-07-14T09:12:56Z</time>
      </trkpt>
      <trkpt lat="43.64418" lon="1.39201">
        <ele>131</ele>
        <time>2023-07-14T09:12:57Z</time>
      </trkpt>
      <trkpt lat="43.64418" lon="1.39201">
        <ele>130</ele>
        <time>2023-07-14T09:12:58Z</time>
      </trkpt>
      <trkpt lat="43.64419" lon="1.39205">
        <ele>130</ele>
        <time>2023-07-14T09:12:59Z</time>
      </trkpt>
      <trkpt lat="43.64419" lon="1.39205">
        <ele>130</ele>
        <time>2023-07-14T09:13:00Z</time>
      </trkpt>
      <trkpt lat="43.64421" lon="1.39209">
        <ele>130</ele>
        <time>2023-07-14T09:13:01Z</time>
      </trkpt>
      <trkpt lat="43.64422" lon="1.39211">
        <ele>130</ele>
        <time>2023-07-14T09:13:02Z</time>
      </trkpt>
      <trkpt lat="43.64422" lon="1.39211">
        <ele>130</ele>
        <time>2023-07-14T09:13:03Z</time>
      </trkpt>
      <trkpt lat="43.64424" lon="1.39215">
        <ele>130</ele>
        <time>2023-07-14T09:13:04Z</time>
      </trkpt>
      <trkpt lat="43.64426" lon="1.39219">
        <ele>129</ele>
        <time>2023-07-14T09:13:05Z</time>
      </trkpt>
      <trkpt lat="43.64428" lon="1.39221">
        <ele>129</ele>
        <time>2023-07-14T09:13:06Z</time>
      </trkpt>
      <trkpt lat="43.64428" lon="1.39221">
        <ele>129</ele>
        <time>2023-07-14T09:13:07Z</time>
      </trkpt>
      <trkpt lat="43.6443" lon="1.39225">
        <ele>129</ele>
        <time>2023-07-14T09:13:08Z</time>
      </trkpt>
      <trkpt lat="43.6443" lon="1.39225">
        <ele>128</ele>
        <time>2023-07-14T09:13:09Z</time>
      </trkpt>
      <trkpt lat="43.64431" lon="1.39227">
        <ele>128</ele>
        <time>2023-07-14T09:13:10Z</time>
      </trkpt>
      <trkpt lat="43.64432" lon="1.39229">
        <ele>128</ele>
        <time>2023-07-14T09:13:11Z</time>
      </trkpt>
      <trkpt lat="43.64433" lon="1.39231">
        <ele>128</ele>
        <time>2023-07-14T09:13:12Z</time>
      </trkpt>
      <trkpt lat="43.64435" lon="1.39234">
        <ele>128</ele>
        <time>2023-07-14T09:13:13Z</time>
      </trkpt>
      <trkpt lat="43.64436" lon="1.39236">
        <ele>128</ele>
        <time>2023-07-14T09:13:14Z</time>
      </trkpt>
      <trkpt lat="43.64437" lon="1.39238">
        <ele>128</ele>
        <time>2023-07-14T09:13:15Z</time>
      </trkpt>
      <trkpt lat="43.6444" lon="1.39242">
        <ele>128</ele>
        <time>2023-07-14T09:13:16Z</time>
      </trkpt>
      <trkpt lat="43.6444" lon="1.39242">
        <ele>128</ele>
        <time>2023-07-14T09:13:17Z</time>
      </trkpt>
      <trkpt lat="43.64443" lon="1.39247">
        <ele>128</ele>
        <time>2023-07-14T09:13:18Z</time>
      </trkpt>
      <trkpt lat="43.64443" lon="1.39247">
        <ele>128</ele>
        <time>2023-07-14T09:13:19Z</time>
      </trkpt>
      <trkpt lat="43.64443" lon="1.39247">
        <ele>128</ele>
        <time>2023-07-14T09:13:20Z</time>
      </trkpt>
      <trkpt lat="43.64441" lon="1.39245">
        <ele>128</ele>
        <time>2023-07-14T09:13:21Z</time>
      </trkpt>
      <trkpt lat="43.64437" lon="1.3924">
        <ele>128</ele>
        <time>2023-07-14T09:13:22Z</time>
      </trkpt>
      <trkpt lat="43.64435" lon="1.39237">
        <ele>127</ele>
        <time>2023-07-14T09:13:23Z</time>
      </trkpt>
      <trkpt lat="43.64434" lon="1.39234">
        <ele>128</ele>
        <time>2023-07-14T09:13:24Z</time>
      </trkpt>
      <trkpt lat="43.64428" lon="1.39224">
        <ele>129</ele>
        <time>2023-07-14T09:13:25Z</time>
      </trkpt>
      <trkpt lat="43.64426" lon="1.39221">
        <ele>129</ele>
        <time>2023-07-14T09:13:26Z</time>
      </trkpt>
      <trkpt lat="43.6442" lon="1.39211">
        <ele>129</ele>
        <time>2023-07-14T09:13:27Z</time>
      </trkpt>
      <trkpt lat="43.64418" lon="1.39206">
        <ele>129</ele>
        <time>2023-07-14T09:13:28Z</time>
      </trkpt>
      <trkpt lat="43.64413" lon="1.39197">
        <ele>129</ele>
        <time>2023-07-14T09:13:29Z</time>
      </trkpt>
      <trkpt lat="43.64411" lon="1.39191">
        <ele>130</ele>
        <time>2023-07-14T09:13:30Z</time>
      </trkpt>
      <trkpt lat="43.64409" lon="1.39185">
        <ele>130</ele>
        <time>2023-07-14T09:13:31Z</time>
      </trkpt>
      <trkpt lat="43.64407" lon="1.39178">
        <ele>131</ele>
        <time>2023-07-14T09:13:32Z</time>
      </trkpt>
      <trkpt lat="43.64406" lon="1.39172">
        <ele>132</ele>
        <time>2023-07-14T09:13:33Z</time>
      </trkpt>
      <trkpt lat="43.64405" lon="1.39166">
        <ele>132</ele>
        <time>2023-07-14T09:13:34Z</time>
      </trkpt>
      <trkpt lat="43.64405" lon="1.39161">
        <ele>132</ele>
        <time>2023-07-14T09:13:35Z</time>
      </trkpt>
      <trkpt lat="43.64406" lon="1.39158">
        <ele>132</ele>
        <time>2023-07-14T09:13:36Z</time>
      </trkpt>
      <trkpt lat="43.64408" lon="1.39159">
        <ele>133</ele>
        <time>2023-07-14T09:13:37Z</time>
      </trkpt>
      <trkpt lat="43.64408" lon="1.39159">
        <ele>133</ele>
        <time>2023-07-14T09:13:38Z</time>
      </trkpt>
      <trkpt lat="43.64408" lon="1.39159">
        <ele>133</ele>
        <time>2023-07-14T09:13:39Z</time>
      </trkpt>
      <trkpt lat="43.64409" lon="1.39163">
        <ele>133</ele>
        <time>2023-07-14T09:13:40Z</time>
      </trkpt>
      <trkpt lat="43.64409" lon="1.39163">
        <ele>133</ele>
        <time>2023-07-14T09:13:41Z</time>
      </trkpt>
      <trkpt lat="43.6441" lon="1.39168">
        <ele>133</ele>
        <time>2023-07-14T09:13:42Z</time>
      </trkpt>
      <trkpt lat="43.6441" lon="1.39172">
        <ele>133</ele>
        <time>2023-07-14T09:13:43Z</time>
      </trkpt>
      <trkpt lat="43.6441" lon="1.39172">
        <ele>133</ele>
        <time>2023-07-14T09:13:44Z</time>
      </trkpt>
      <trkpt lat="43.6441" lon="1.39172">
        <ele>133</ele>
        <time>2023-07-14T09:13:45Z</time>
      </trkpt>
      <trkpt lat="43.64411" lon="1.39176">
        <ele>133</ele>
        <time>2023-07-14T09:13:46Z</time>
      </trkpt>
      <trkpt lat="43.64411" lon="1.3918">
        <ele>133</ele>
        <time>2023-07-14T09:13:47Z</time>
      </trkpt>
      <trkpt lat="43.64411" lon="1.3918">
        <ele>133</ele>
        <time>2023-07-14T09:13:48Z</time>
      </trkpt>
      <trkpt lat="43.64411" lon="1.3918">
        <ele>133</ele>
        <time>2023-07-14T09:13:49Z</time>
      </trkpt>
      <trkpt lat="43.64411" lon="1.39184">
        <ele>133</ele>
        <time>2023-07-14T09:13:50Z</time>
      </trkpt>
      <trkpt lat="43.64411" lon="1.39184">
        <ele>133</ele>
        <time>2023-07-14T09:13:51Z</time>
      </trkpt>
      <trkpt lat="43.64412" lon="1.39187">
        <ele>132</ele>
        <time>2023-07-14T09:13:52Z</time>
      </trkpt>
      <trkpt lat="43.64412" lon="1.39187">
        <ele>132</ele>
        <time>2023-07-14T09:13:53Z</time>
      </trkpt>
      <trkpt lat="43.64413" lon="1.3919">
        <ele>132</ele>
        <time>2023-07-14T09:13:54Z</time>
      </trkpt>
      <trkpt lat="43.64413" lon="1.3919">
        <ele>132</ele>
        <time>2023-07-14T09:13:55Z</time>
      </trkpt>
      <trkpt lat="43.64414" lon="1.39193">
        <ele>131</ele>
        <time>2023-07-14T09:13:56Z</time>
      </trkpt>
      <trkpt lat="43.64414" lon="1.39193">
        <ele>131</ele>
        <time>2023-07-14T09:13:57Z</time>
      </trkpt>
      <trkpt lat="43.64416" lon="1.39196">
        <ele>131</ele>
        <time>2023-07-14T09:13:58Z</time>
      </trkpt>
      <trkpt lat="43.64416" lon="1.39196">
        <ele>131</ele>
        <time>2023-07-14T09:13:59Z</time>
      </trkpt>
      <trkpt lat="43.64418" lon="1.39199">
        <ele>131</ele>
        <time>2023-07-14T09:14:00Z</time>
      </trkpt>
      <trkpt lat="43.64418" lon="1.39199">
        <ele>131</ele>
        <time>2023-07-14T09:14:01Z</time>
      </trkpt>
      <trkpt lat="43.64419" lon="1.39201">
        <ele>131</ele>
        <time>2023-07-14T09:14:02Z</time>
      </trkpt>
      <trkpt lat="43.64419" lon="1.39201">
        <ele>131</ele>
        <time>2023-07-14T09:14:03Z</time>
      </trkpt>
      <trkpt lat="43.6442" lon="1.39204">
        <ele>131</ele>
        <time>2023-07-14T09:14:04Z</time>
      </trkpt>
      <trkpt lat="43.6442" lon="1.39204">
        <ele>131</ele>
        <time>2023-07-14T09:14:05Z</time>
      </trkpt>
      <trkpt lat="43.64421" lon="1.39206">
        <ele>130</ele>
        <time>2023-07-14T09:14:06Z</time>
      </trkpt>
      <trkpt lat="43.64423" lon="1.39209">
        <ele>130</ele>
        <time>2023-07-14T09:14:07Z</time>
      </trkpt>
      <trkpt lat="43.64423" lon="1.39209">
        <ele>130</ele>
        <time>2023-07-14T09:14:08Z</time>
      </trkpt>
      <trkpt lat="43.64423" lon="1.39209">
        <ele>130</ele>
        <time>2023-07-14T09:14:09Z</time>
      </trkpt>
      <trkpt lat="43.64424" lon="1.39211">
        <ele>130</ele>
        <time>2023-07-14T09:14:10Z</time>
      </trkpt>
      <trkpt lat="43.64424" lon="1.39211">
        <ele>130</ele>
        <time>2023-07-14T09:14:11Z</time>
      </trkpt>
      <trkpt lat="43.64426" lon="1.39213">
        <ele>130</ele>
        <time>2023-07-14T09:14:12Z</time>
      </trkpt>
      <trkpt lat="43.64426" lon="1.39213">
        <ele>129</ele>
        <time>2023-07-14T09:14:13Z</time>
      </trkpt>
      <trkpt lat="43.64427" lon="1.39215">
        <ele>129</ele>
        <time>2023-07-14T09:14:14Z</time>
      </trkpt>
      <trkpt lat="43.64427" lon="1.39215">
        <ele>129</ele>
        <time>2023-07-14T09:14:15Z</time>
      </trkpt>
      <trkpt lat="43.64429" lon="1.39218">
        <ele>129</ele>
        <time>2023-07-14T09:14:16Z</time>
      </trkpt>
      <trkpt lat="43.64429" lon="1.39218">
        <ele>128</ele>
        <time>2023-07-14T09:14:17Z</time>
      </trkpt>
      <trkpt lat="43.6443" lon="1.39221">
        <ele>128</ele>
        <time>2023-07-14T09:14:18Z</time>
      </trkpt>
      <trkpt lat="43.6443" lon="1.39221">
        <ele>128</ele>
        <time>2023-07-14T09:14:19Z</time>
      </trkpt>
      <trkpt lat="43.64431" lon="1.39224">
        <ele>128</ele>
        <time>2023-07-14T09:14:20Z</time>
      </trkpt>
      <trkpt lat="43.64432" lon="1.39226">
        <ele>128</ele>
        <time>2023-07-14T09:14:21Z</time>
      </trkpt>
      <trkpt lat="43.64432" lon="1.39226">
        <ele>128</ele>
        <time>2023-07-14T09:14:22Z</time>
      </trkpt>
      <trkpt lat="43.64432" lon="1.39226">
        <ele>128</ele>
        <time>2023-07-14T09:14:23Z</time>
      </trkpt>
      <trkpt lat="43.64433" lon="1.39229">
        <ele>128</ele>
        <time>2023-07-14T09:14:24Z</time>
      </trkpt>
      <trkpt lat="43.64433" lon="1.39229">
        <ele>128</ele>
        <time>2023-07-14T09:14:25Z</time>
      </trkpt>
      <trkpt lat="43.64435" lon="1.39232">
        <ele>128</ele>
        <time>2023-07-14T09:14:26Z</time>
      </trkpt>
      <trkpt lat="43.64435" lon="1.39232">
        <ele>128</ele>
        <time>2023-07-14T09:14:27Z</time>
      </trkpt>
      <trkpt lat="43.64436" lon="1.39235">
        <ele>128</ele>
        <time>2023-07-14T09:14:28Z</time>
      </trkpt>
      <trkpt lat="43.64436" lon="1.39235">
        <ele>128</ele>
        <time>2023-07-14T09:14:29Z</time>
      </trkpt>
      <trkpt lat="43.64438" lon="1.39238">
        <ele>128</ele>
        <time>2023-07-14T09:14:30Z</time>
      </trkpt>
      <trkpt lat="43.64439" lon="1.39241">
        <ele>128</ele>
        <time>2023-07-14T09:14:31Z</time>
      </trkpt>
      <trkpt lat="43.64439" lon="1.39241">
        <ele>128</ele>
        <time>2023-07-14T09:14:32Z</time>
      </trkpt>
      <trkpt lat="43.64439" lon="1.39241">
        <ele>128</ele>
        <time>2023-07-14T09:14:33Z</time>
      </trkpt>
      <trkpt lat="43.6444" lon="1.39243">
        <ele>128</ele>
        <time>2023-07-14T09:14:34Z</time>
      </trkpt>
      <trkpt lat="43.6444" lon="1.39243">
        <ele>128</ele>
        <time>2023-07-14T09:14:35Z</time>
      </trkpt>
      <trkpt lat="43.64441" lon="1.39246">
        <ele>128</ele>
        <time>2023-07-14T09:14:36Z</time>
      </trkpt>
      <trkpt lat="43.64441" lon="1.39246">
        <ele>128</ele>
        <time>2023-07-14T09:14:37Z</time>
      </trkpt>
      <trkpt lat="43.64442" lon="1.39248">
        <ele>128</ele>
        <time>2023-07-14T09:14:38Z</time>
      </trkpt>
      <trkpt lat="43.64442" lon="1.39248">
        <ele>128</ele>
        <time>2023-07-14T09:14:39Z</time>
      </trkpt>
      <trkpt lat="43.64443" lon="1.39251">
        <ele>128</ele>
        <time>2023-07-14T09:14:40Z</time>
      </trkpt>
      <trkpt lat="43.64443" lon="1.39251">
        <ele>128</ele>
        <time>2023-07-14T09:14:41Z</time>
      </trkpt>
      <trkpt lat="43.64443" lon="1.39254">
        <ele>128</ele>
        <time>2023-07-14T09:14:42Z</time>
      </trkpt>
      <trkpt lat="43.64443" lon="1.39254">
        <ele>128</ele>
        <time>2023-07-14T09:14:43Z</time>
      </trkpt>
      <trkpt lat="43.64443" lon="1.39254">
        <ele>128</ele>
        <time>2023-07-14T09:14:44Z</time>
      </trkpt>
      <trkpt lat="43.64443" lon="1.39254">
        <ele>128</ele>
        <time>2023-07-14T09:14:45Z</time>
      </trkpt>
      <trkpt lat="43.64443" lon="1.39254">
        <ele>128</ele>
        <time>2023-07-14T09:14:46Z</time>
      </trkpt>
      <trkpt lat="43.64443" lon="1.39254">
        <ele>128</ele>
        <time>2023-07-14T09:14:47Z</time>
      </trkpt>
      <trkpt lat="43.64443" lon="1.39254">
        <ele>128</ele>
        <time>2023-07-14T09:14:48Z</time>
      </trkpt>
      <trkpt lat="43.64443" lon="1.39254">
        <ele>129</ele>
        <time>2023-07-14T09:14:49Z</time>
      </trkpt>
      <trkpt lat="43.64443" lon="1.39254">
        <ele>129</ele>
        <time>2023-07-14T09:14:50Z</time>
      </trkpt>
      <trkpt lat="43.64443" lon="1.39254">
        <ele>128</ele>
        <time>2023-07-14T09:14:51Z</time>
      </trkpt>
      <trkpt lat="43.64443" lon="1.39254">
        <ele>128</ele>
        <time>2023-07-14T09:14:52Z</time>
      </trkpt>
      <trkpt lat="43.64443" lon="1.39254">
        <ele>128</ele>
        <time>2023-07-14T09:14:53Z</time>
      </trkpt>
      <trkpt lat="43.64443" lon="1.39254">
        <ele>128</ele>
        <time>2023-07-14T09:14:54Z</time>
      </trkpt>
      <trkpt lat="43.64443" lon="1.39254">
        <ele>128</ele>
        <time>2023-07-14T09:14:55Z</time>
      </trkpt>
      <trkpt lat="43.64443" lon="1.39254">
        <ele>128</ele>
        <time>2023-07-14T09:14:56Z</time>
      </trkpt>
      <trkpt lat="43.64443" lon="1.39254">
        <ele>128</ele>
        <time>2023-07-14T09:14:57Z</time>
      </trkpt>
      <trkpt lat="43.64443" lon="1.39254">
        <ele>128</ele>
        <time>2023-07-14T09:14:58Z</time>
      </trkpt>
      <trkpt lat="43.64443" lon="1.39254">
        <ele>128</ele>
        <time>2023-07-14T09:14:59Z</time>
      </trkpt>
      <trkpt lat="43.64443" lon="1.39254">
        <ele>128</ele>
        <time>2023-07-14T09:15:00Z</time>
      </trkpt>
      <trkpt lat="43.64443" lon="1.39254">
        <ele>128</ele>
        <time>2023-07-14T09:15:01Z</time>
      </trkpt>
      <trkpt lat="43.64443" lon="1.39254">
        <ele>128</ele>
        <time>2023-07-14T09:15:02Z</time>
      </trkpt>
      <trkpt lat="43.64443" lon="1.39254">
        <ele>128</ele>
        <time>2023-07-14T09:15:03Z</time>
      </trkpt>
      <trkpt lat="43.64443" lon="1.39254">
        <ele>128</ele>
        <time>2023-07-14T09:15:04Z</time>
      </trkpt>
      <trkpt lat="43.64443" lon="1.39254">
        <ele>128</ele>
        <time>2023-07-14T09:15:05Z</time>
      </trkpt>
      <trkpt lat="43.64443" lon="1.39254">
        <ele>128</ele>
        <time>2023-07-14T09:15:06Z</time>
      </trkpt>
      <trkpt lat="43.64444" lon="1.39257">
        <ele>128</ele>
        <time>2023-07-14T09:15:07Z</time>
      </trkpt>
      <trkpt lat="43.64444" lon="1.39257">
        <ele>128</ele>
        <time>2023-07-14T09:15:08Z</time>
      </trkpt>
      <trkpt lat="43.64445" lon="1.3926">
        <ele>128</ele>
        <time>2023-07-14T09:15:09Z</time>
      </trkpt>
      <trkpt lat="43.64445" lon="1.3926">
        <ele>128</ele>
        <time>2023-07-14T09:15:10Z</time>
      </trkpt>
      <trkpt lat="43.64445" lon="1.3926">
        <ele>128</ele>
        <time>2023-07-14T09:15:11Z</time>
      </trkpt>
      <trkpt lat="43.64445" lon="1.3926">
        <ele>128</ele>
        <time>2023-07-14T09:15:12Z</time>
      </trkpt>
      <trkpt lat="43.64445" lon="1.3926">
        <ele>128</ele>
        <time>2023-07-14T09:15:13Z</time>
      </trkpt>
      <trkpt lat="43.64445" lon="1.3926">
        <ele>128</ele>
        <time>2023-07-14T09:15:14Z</time>
      </trkpt>
      <trkpt lat="43.64445" lon="1.3926">
        <ele>128</ele>
        <time>2023-07-14T09:15:15Z</time>
      </trkpt>
      <trkpt lat="43.64445" lon="1.3926">
        <ele>128</ele>
        <time>2023-07-14T09:15:16Z</time>
      </trkpt>
      <trkpt lat="43.64445" lon="1.3926">
        <ele>128</ele>
        <time>2023-07-14T09:15:17Z</time>
      </trkpt>
      <trkpt lat="43.64445" lon="1.3926">
        <ele>128</ele>
        <time>2023-07-14T09:15:18Z</time>
      </trkpt>
      <trkpt lat="43.64445" lon="1.3926">
        <ele>128</ele>
        <time>2023-07-14T09:15:19Z</time>
      </trkpt>
      <trkpt lat="43.64445" lon="1.3926">
        <ele>128</ele>
        <time>2023-07-14T09:15:20Z</time>
      </trkpt>
      <trkpt lat="43.64445" lon="1.3926">
        <ele>128</ele>
        <time>2023-07-14T09:15:21Z</time>
      </trkpt>
      <trkpt lat="43.64445" lon="1.3926">
        <ele>128</ele>
        <time>2023-07-14T09:15:22Z</time>
      </trkpt>
      <trkpt lat="43.64445" lon="1.3926">
        <ele>128</ele>
        <time>2023-07-14T09:15:23Z</time>
      </trkpt>
      <trkpt lat="43.64445" lon="1.3926">
        <ele>128</ele>
        <time>2023-07-14T09:15:24Z</time>
      </trkpt>
      <trkpt lat="43.64444" lon="1.39257">
        <ele>128</ele>
        <time>2023-07-14T09:15:25Z</time>
      </trkpt>
      <trkpt lat="43.64444" lon="1.39257">
        <ele>128</ele>
        <time>2023-07-14T09:15:26Z</time>
      </trkpt>
      <trkpt lat="43.64444" lon="1.39257">
        <ele>128</ele>
        <time>2023-07-14T09:15:27Z</time>
      </trkpt>
      <trkpt lat="43.64443" lon="1.39254">
        <ele>128</ele>
        <time>2023-07-14T09:15:28Z</time>
      </trkpt>
      <trkpt lat="43.64442" lon="1.39252">
        <ele>128</ele>
        <time>2023-07-14T09:15:29Z</time>
      </trkpt>
      <trkpt lat="43.64442" lon="1.39252">
        <ele>128</ele>
        <time>2023-07-14T09:15:30Z</time>
      </trkpt>
      <trkpt lat="43.64442" lon="1.39252">
        <ele>128</ele>
        <time>2023-07-14T09:15:31Z</time>
      </trkpt>
      <trkpt lat="43.64442" lon="1.39251">
        <ele>128</ele>
        <time>2023-07-14T09:15:32Z</time>
      </trkpt>
      <trkpt lat="43.64442" lon="1.39251">
        <ele>128</ele>
        <time>2023-07-14T09:15:33Z</time>
      </trkpt>
      <trkpt lat="43.64441" lon="1.39251">
        <ele>128</ele>
        <time>2023-07-14T09:15:34Z</time>
      </trkpt>
      <trkpt lat="43.64441" lon="1.3925">
        <ele>127</ele>
        <time>2023-07-14T09:15:35Z</time>
      </trkpt>
      <trkpt lat="43.64441" lon="1.3925">
        <ele>127</ele>
        <time>2023-07-14T09:15:36Z</time>
      </trkpt>
      <trkpt lat="43.64441" lon="1.39249">
        <ele>127</ele>
        <time>2023-07-14T09:15:37Z</time>
      </trkpt>
      <trkpt lat="43.64441" lon="1.39249">
        <ele>127</ele>
        <time>2023-07-14T09:15:38Z</time>
      </trkpt>
      <trkpt lat="43.64441" lon="1.39249">
        <ele>127</ele>
        <time>2023-07-14T09:15:39Z</time>
      </trkpt>
      <trkpt lat="43.64441" lon="1.39248">
        <ele>127</ele>
        <time>2023-07-14T09:15:40Z</time>
      </trkpt>
      <trkpt lat="43.64441" lon="1.39248">
        <ele>127</ele>
        <time>2023-07-14T09:15:41Z</time>
      </trkpt>
      <trkpt lat="43.6444" lon="1.39247">
        <ele>127</ele>
        <time>2023-07-14T09:15:42Z</time>
      </trkpt>
      <trkpt lat="43.6444" lon="1.39247">
        <ele>127</ele>
        <time>2023-07-14T09:15:43Z</time>
      </trkpt>
      <trkpt lat="43.6444" lon="1.39247">
        <ele>128</ele>
        <time>2023-07-14T09:15:44Z</time>
      </trkpt>
      <trkpt lat="43.6444" lon="1.39246">
        <ele>128</ele>
        <time>2023-07-14T09:15:45Z</time>
      </trkpt>
      <trkpt lat="43.6444" lon="1.39246">
        <ele>128</ele>
        <time>2023-07-14T09:15:46Z</time>
      </trkpt>
      <trkpt lat="43.6444" lon="1.39245">
        <ele>128</ele>
        <time>2023-07-14T09:15:47Z</time>
      </trkpt>
      <trkpt lat="43.6444" lon="1.39245">
        <ele>127</ele>
        <time>2023-07-14T09:15:48Z</time>
      </trkpt>
      <trkpt lat="43.64439" lon="1.39244">
        <ele>127</ele>
        <time>2023-07-14T09:15:49Z</time>
      </trkpt>
      <trkpt lat="43.64439" lon="1.39244">
        <ele>127</ele>
        <time>2023-07-14T09:15:50Z</time>
      </trkpt>
      <trkpt lat="43.64439" lon="1.39244">
        <ele>127</ele>
        <time>2023-07-14T09:15:51Z</time>
      </trkpt>
      <trkpt lat="43.64439" lon="1.39243">
        <ele>127</ele>
        <time>2023-07-14T09:15:52Z</time>
      </trkpt>
      <trkpt lat="43.64439" lon="1.39243">
        <ele>127</ele>
        <time>2023-07-14T09:15:53Z</time>
      </trkpt>
      <trkpt lat="43.64439" lon="1.39242">
        <ele>127</ele>
        <time>2023-07-14T09:15:54Z</time>
      </trkpt>
      <trkpt lat="43.64437" lon="1.39239">
        <ele>127</ele>
        <time>2023-07-14T09:15:55Z</time>
      </trkpt>
      <trkpt lat="43.64435" lon="1.39235">
        <ele>128</ele>
        <time>2023-07-14T09:15:56Z</time>
      </trkpt>
      <trkpt lat="43.64427" lon="1.39222">
        <ele>129</ele>
        <time>2023-07-14T09:15:57Z</time>
      </trkpt>
      <trkpt lat="43.64424" lon="1.39216">
        <ele>129</ele>
        <time>2023-07-14T09:15:58Z</time>
      </trkpt>
      <trkpt lat="43.64416" lon="1.39201">
        <ele>129</ele>
        <time>2023-07-14T09:15:59Z</time>
      </trkpt>
      <trkpt lat="43.64415" lon="1.392">
        <ele>129</ele>
        <time>2023-07-14T09:16:00Z</time>
      </trkpt>
      <trkpt lat="43.64414" lon="1.39197">
        <ele>130</ele>
        <time>2023-07-14T09:16:01Z</time>
      </trkpt>
      <trkpt lat="43.64412" lon="1.3919">
        <ele>130</ele>
        <time>2023-07-14T09:16:02Z</time>
      </trkpt>
      <trkpt lat="43.64409" lon="1.39184">
        <ele>131</ele>
        <time>2023-07-14T09:16:03Z</time>
      </trkpt>
      <trkpt lat="43.64408" lon="1.39179">
        <ele>131</ele>
        <time>2023-07-14T09:16:04Z</time>
      </trkpt>
      <trkpt lat="43.64407" lon="1.39174">
        <ele>131</ele>
        <time>2023-07-14T09:16:05Z</time>
      </trkpt>
      <trkpt lat="43.64406" lon="1.39168">
        <ele>131</ele>
        <time>2023-07-14T09:16:06Z</time>
      </trkpt>
      <trkpt lat="43.64407" lon="1.39163">
        <ele>131</ele>
        <time>2023-07-14T09:16:07Z</time>
      </trkpt>
      <trkpt lat="43.64408" lon="1.39158">
        <ele>132</ele>
        <time>2023-07-14T09:16:08Z</time>
      </trkpt>
      <trkpt lat="43.64409" lon="1.39155">
        <ele>133</ele>
        <time>2023-07-14T09:16:09Z</time>
      </trkpt>
      <trkpt lat="43.64409" lon="1.39155">
        <ele>133</ele>
        <time>2023-07-14T09:16:10Z</time>
      </trkpt>
      <trkpt lat="43.64409" lon="1.39155">
        <ele>133</ele>
        <time>2023-07-14T09:16:11Z</time>
      </trkpt>
      <trkpt lat="43.64409" lon="1.39155">
        <ele>133</ele>
        <time>2023-07-14T09:16:12Z</time>
      </trkpt>
      <trkpt lat="43.6441" lon="1.39158">
        <ele>133</ele>
        <time>2023-07-14T09:16:13Z</time>
      </trkpt>
      <trkpt lat="43.6441" lon="1.39158">
        <ele>133</ele>
        <time>2023-07-14T09:16:14Z</time>
      </trkpt>
      <trkpt lat="43.64411" lon="1.39162">
        <ele>133</ele>
        <time>2023-07-14T09:16:15Z</time>
      </trkpt>
      <trkpt lat="43.64411" lon="1.39162">
        <ele>133</ele>
        <time>2023-07-14T09:16:16Z</time>
      </trkpt>
      <trkpt lat="43.64411" lon="1.39162">
        <ele>133</ele>
        <time>2023-07-14T09:16:17Z</time>
      </trkpt>
      <trkpt lat="43.64411" lon="1.39165">
        <ele>133</ele>
        <time>2023-07-14T09:16:18Z</time>
      </trkpt>
      <trkpt lat="43.64411" lon="1.39165">
        <ele>133</ele>
        <time>2023-07-14T09:16:19Z</time>
      </trkpt>
      <trkpt lat="43.64411" lon="1.39169">
        <ele>133</ele>
        <time>2023-07-14T09:16:20Z</time>
      </trkpt>
      <trkpt lat="43.64411" lon="1.39169">
        <ele>133</ele>
        <time>2023-07-14T09:16:21Z</time>
      </trkpt>
      <trkpt lat="43.64411" lon="1.39172">
        <ele>133</ele>
        <time>2023-07-14T09:16:22Z</time>
      </trkpt>
      <trkpt lat="43.64411" lon="1.39172">
        <ele>132</ele>
        <time>2023-07-14T09:16:23Z</time>
      </trkpt>
      <trkpt lat="43.64411" lon="1.39176">
        <ele>132</ele>
        <time>2023-07-14T09:16:24Z</time>
      </trkpt>
      <trkpt lat="43.64411" lon="1.39176">
        <ele>132</ele>
        <time>2023-07-14T09:16:25Z</time>
      </trkpt>
      <trkpt lat="43.64411" lon="1.39179">
        <ele>132</ele>
        <time>2023-07-14T09:16:26Z</time>
      </trkpt>
      <trkpt lat="43.64411" lon="1.39179">
        <ele>132</ele>
        <time>2023-07-14T09:16:27Z</time>
      </trkpt>
      <trkpt lat="43.64412" lon="1.39182">
        <ele>132</ele>
        <time>2023-07-14T09:16:28Z</time>
      </trkpt>
      <trkpt lat="43.64412" lon="1.39182">
        <ele>132</ele>
        <time>2023-07-14T09:16:29Z</time>
      </trkpt>
      <trkpt lat="43.64412" lon="1.39185">
        <ele>132</ele>
        <time>2023-07-14T09:16:30Z</time>
      </trkpt>
      <trkpt lat="43.64412" lon="1.39185">
        <ele>132</ele>
        <time>2023-07-14T09:16:31Z</time>
      </trkpt>
      <trkpt lat="43.64413" lon="1.39188">
        <ele>132</ele>
        <time>2023-07-14T09:16:32Z</time>
      </trkpt>
      <trkpt lat="43.64413" lon="1.39188">
        <ele>132</ele>
        <time>2023-07-14T09:16:33Z</time>
      </trkpt>
      <trkpt lat="43.64414" lon="1.39191">
        <ele>132</ele>
        <time>2023-07-14T09:16:34Z</time>
      </trkpt>
      <trkpt lat="43.64414" lon="1.39191">
        <ele>132</ele>
        <time>2023-07-14T09:16:35Z</time>
      </trkpt>
      <trkpt lat="43.64415" lon="1.39194">
        <ele>132</ele>
        <time>2023-07-14T09:16:36Z</time>
      </trkpt>
      <trkpt lat="43.64415" lon="1.39194">
        <ele>132</ele>
        <time>2023-07-14T09:16:37Z</time>
      </trkpt>
      <trkpt lat="43.64416" lon="1.39197">
        <ele>131</ele>
        <time>2023-07-14T09:16:38Z</time>
      </trkpt>
      <trkpt lat="43.64416" lon="1.39197">
        <ele>131</ele>
        <time>2023-07-14T09:16:39Z</time>
      </trkpt>
      <trkpt lat="43.64416" lon="1.39197">
        <ele>131</ele>
        <time>2023-07-14T09:16:40Z</time>
      </trkpt>
      <trkpt lat="43.64417" lon="1.392">
        <ele>131</ele>
        <time>2023-07-14T09:16:41Z</time>
      </trkpt>
      <trkpt lat="43.64417" lon="1.392">
        <ele>131</ele>
        <time>2023-07-14T09:16:42Z</time>
      </trkpt>
      <trkpt lat="43.64418" lon="1.39202">
        <ele>131</ele>
        <time>2023-07-14T09:16:43Z</time>
      </trkpt>
      <trkpt lat="43.64418" lon="1.39202">
        <ele>131</ele>
        <time>2023-07-14T09:16:44Z</time>
      </trkpt>
      <trkpt lat="43.6442" lon="1.39205">
        <ele>131</ele>
        <time>2023-07-14T09:16:45Z</time>
      </trkpt>
      <trkpt lat="43.6442" lon="1.39205">
        <ele>131</ele>
        <time>2023-07-14T09:16:46Z</time>
      </trkpt>
      <trkpt lat="43.64421" lon="1.39207">
        <ele>130</ele>
        <time>2023-07-14T09:16:47Z</time>
      </trkpt>
      <trkpt lat="43.64421" lon="1.39207">
        <ele>130</ele>
        <time>2023-07-14T09:16:48Z</time>
      </trkpt>
      <trkpt lat="43.64421" lon="1.39207">
        <ele>130</ele>
        <time>2023-07-14T09:16:49Z</time>
      </trkpt>
      <trkpt lat="43.64422" lon="1.3921">
        <ele>130</ele>
        <time>2023-07-14T09:16:50Z</time>
      </trkpt>
      <trkpt lat="43.64422" lon="1.3921">
        <ele>130</ele>
        <time>2023-07-14T09:16:51Z</time>
      </trkpt>
      <trkpt lat="43.64422" lon="1.3921">
        <ele>130</ele>
        <time>2023-07-14T09:16:52Z</time>
      </trkpt>
      <trkpt lat="43.64422" lon="1.3921">
        <ele>130</ele>
        <time>2023-07-14T09:16:53Z</time>
      </trkpt>
      <trkpt lat="43.64422" lon="1.3921">
        <ele>130</ele>
        <time>2023-07-14T09:16:54Z</time>
      </trkpt>
      <trkpt lat="43.64422" lon="1.3921">
        <ele>130</ele>
        <time>2023-07-14T09:16:55Z</time>
      </trkpt>
      <trkpt lat="43.64422" lon="1.3921">
        <ele>130</ele>
        <time>2023-07-14T09:16:56Z</time>
      </trkpt>
      <trkpt lat="43.64422" lon="1.39207">
        <ele>130</ele>
        <time>2023-07-14T09:16:57Z</time>
      </trkpt>
      <trkpt lat="43.64421" lon="1.39205">
        <ele>130</ele>
        <time>2023-07-14T09:16:58Z</time>
      </trkpt>
      <trkpt lat="43.64421" lon="1.39205">
        <ele>130</ele>
        <time>2023-07-14T09:16:59Z</time>
      </trkpt>
      <trkpt lat="43.64421" lon="1.39205">
        <ele>130</ele>
        <time>2023-07-14T09:17:00Z</time>
      </trkpt>
      <trkpt lat="43.6442" lon="1.39202">
        <ele>130</ele>
        <time>2023-07-14T09:17:01Z</time>
      </trkpt>
      <trkpt lat="43.6442" lon="1.39202">
        <ele>130</ele>
        <time>2023-07-14T09:17:02Z</time>
      </trkpt>
      <trkpt lat="43.6442" lon="1.39199">
        <ele>130</ele>
        <time>2023-07-14T09:17:03Z</time>
      </trkpt>
      <trkpt lat="43.6442" lon="1.39199">
        <ele>130</ele>
        <time>2023-07-14T09:17:04Z</time>
      </trkpt>
      <trkpt lat="43.6442" lon="1.39199">
        <ele>130</ele>
        <time>2023-07-14T09:17:05Z</time>
      </trkpt>
      <trkpt lat="43.6442" lon="1.39199">
        <ele>130</ele>
        <time>2023-07-14T09:17:06Z</time>
      </trkpt>
      <trkpt lat="43.6442" lon="1.39199">
        <ele>131</ele>
        <time>2023-07-14T09:17:07Z</time>
      </trkpt>
      <trkpt lat="43.6442" lon="1.39199">
        <ele>131</ele>
        <time>2023-07-14T09:17:08Z</time>
      </trkpt>
      <trkpt lat="43.6442" lon="1.39199">
        <ele>131</ele>
        <time>2023-07-14T09:17:09Z</time>
      </trkpt>
      <trkpt lat="43.6442" lon="1.39199">
        <ele>131</ele>
        <time>2023-07-14T09:17:10Z</time>
      </trkpt>
      <trkpt lat="43.6442" lon="1.39199">
        <ele>131</ele>
        <time>2023-07-14T09:17:11Z</time>
      </trkpt>
      <trkpt lat="43.6442" lon="1.39199">
        <ele>130</ele>
        <time>2023-07-14T09:17:12Z</time>
      </trkpt>
      <trkpt lat="43.6442" lon="1.39199">
        <ele>130</ele>
        <time>2023-07-14T09:17:13Z</time>
      </trkpt>
      <trkpt lat="43.6442" lon="1.39202">
        <ele>130</ele>
        <time>2023-07-14T09:17:14Z</time>
      </trkpt>
      <trkpt lat="43.6442" lon="1.39202">
        <ele>130</ele>
        <time>2023-07-14T09:17:15Z</time>
      </trkpt>
      <trkpt lat="43.6442" lon="1.39205">
        <ele>130</ele>
        <time>2023-07-14T09:17:16Z</time>
      </trkpt>
      <trkpt lat="43.6442" lon="1.39205">
        <ele>130</ele>
        <time>2023-07-14T09:17:17Z</time>
      </trkpt>
      <trkpt lat="43.64421" lon="1.39207">
        <ele>130</ele>
        <time>2023-07-14T09:17:18Z</time>
      </trkpt>
      <trkpt lat="43.64421" lon="1.39206">
        <ele>130</ele>
        <time>2023-07-14T09:17:19Z</time>
      </trkpt>
      <trkpt lat="43.6442" lon="1.39205">
        <ele>130</ele>
        <time>2023-07-14T09:17:20Z</time>
      </trkpt>
      <trkpt lat="43.6442" lon="1.39204">
        <ele>130</ele>
        <time>2023-07-14T09:17:21Z</time>
      </trkpt>
      <trkpt lat="43.64419" lon="1.39204">
        <ele>130</ele>
        <time>2023-07-14T09:17:22Z</time>
      </trkpt>
      <trkpt lat="43.64418" lon="1.39203">
        <ele>130</ele>
        <time>2023-07-14T09:17:23Z</time>
      </trkpt>
      <trkpt lat="43.64418" lon="1.39202">
        <ele>130</ele>
        <time>2023-07-14T09:17:24Z</time>
      </trkpt>
      <trkpt lat="43.64417" lon="1.39201">
        <ele>130</ele>
        <time>2023-07-14T09:17:25Z</time>
      </trkpt>
      <trkpt lat="43.64417" lon="1.392">
        <ele>130</ele>
        <time>2023-07-14T09:17:26Z</time>
      </trkpt>
      <trkpt lat="43.64416" lon="1.39199">
        <ele>130</ele>
        <time>2023-07-14T09:17:27Z</time>
      </trkpt>
      <trkpt lat="43.64416" lon="1.39198">
        <ele>130</ele>
        <time>2023-07-14T09:17:28Z</time>
      </trkpt>
      <trkpt lat="43.64415" lon="1.39197">
        <ele>130</ele>
        <time>2023-07-14T09:17:29Z</time>
      </trkpt>
      <trkpt lat="43.64415" lon="1.39197">
        <ele>129</ele>
        <time>2023-07-14T09:17:30Z</time>
      </trkpt>
      <trkpt lat="43.64414" lon="1.39196">
        <ele>128</ele>
        <time>2023-07-14T09:17:31Z</time>
      </trkpt>
      <trkpt lat="43.64414" lon="1.39196">
        <ele>128</ele>
        <time>2023-07-14T09:17:32Z</time>
      </trkpt>
      <trkpt lat="43.64412" lon="1.39189">
        <ele>128</ele>
        <time>2023-07-14T09:17:33Z</time>
      </trkpt>
      <trkpt lat="43.6441" lon="1.39181">
        <ele>129</ele>
        <time>2023-07-14T09:17:34Z</time>
      </trkpt>
      <trkpt lat="43.64409" lon="1.39174">
        <ele>130</ele>
        <time>2023-07-14T09:17:35Z</time>
      </trkpt>
      <trkpt lat="43.64408" lon="1.39168">
        <ele>131</ele>
        <time>2023-07-14T09:17:36Z</time>
      </trkpt>
      <trkpt lat="43.64408" lon="1.39161">
        <ele>131</ele>
        <time>2023-07-14T09:17:37Z</time>
      </trkpt>
      <trkpt lat="43.64409" lon="1.39154">
        <ele>133</ele>
        <time>2023-07-14T09:17:38Z</time>
      </trkpt>
      <trkpt lat="43.64412" lon="1.39144">
        <ele>133</ele>
        <time>2023-07-14T09:17:39Z</time>
      </trkpt>
      <trkpt lat="43.64412" lon="1.39144">
        <ele>133</ele>
        <time>2023-07-14T09:17:40Z</time>
      </trkpt>
      <trkpt lat="43.64413" lon="1.39139">
        <ele>134</ele>
        <time>2023-07-14T09:17:41Z</time>
      </trkpt>
      <trkpt lat="43.64414" lon="1.39136">
        <ele>135</ele>
        <time>2023-07-14T09:17:42Z</time>
      </trkpt>
      <trkpt lat="43.64414" lon="1.39136">
        <ele>135</ele>
        <time>2023-07-14T09:17:43Z</time>
      </trkpt>
      <trkpt lat="43.64414" lon="1.39132">
        <ele>135</ele>
        <time>2023-07-14T09:17:44Z</time>
      </trkpt>
      <trkpt lat="43.64414" lon="1.39132">
        <ele>135</ele>
        <time>2023-07-14T09:17:45Z</time>
      </trkpt>
      <trkpt lat="43.64413" lon="1.39129">
        <ele>136</ele>
        <time>2023-07-14T09:17:46Z</time>
      </trkpt>
      <trkpt lat="43.64413" lon="1.39129">
        <ele>136</ele>
        <time>2023-07-14T09:17:47Z</time>
      </trkpt>
      <trkpt lat="43.64413" lon="1.39125">
        <ele>136</ele>
        <time>2023-07-14T09:17:48Z</time>
      </trkpt>
      <trkpt lat="43.64413" lon="1.39125">
        <ele>136</ele>
        <time>2023-07-14T09:17:49Z</time>
      </trkpt>
      <trkpt lat="43.64414" lon="1.39122">
        <ele>136</ele>
        <time>2023-07-14T09:17:50Z</time>
      </trkpt>
      <trkpt lat="43.64414" lon="1.39122">
        <ele>136</ele>
        <time>2023-07-14T09:17:51Z</time>
      </trkpt>
      <trkpt lat="43.64415" lon="1.39118">
        <ele>136</ele>
        <time>2023-07-14T09:17:52Z</time>
      </trkpt>
      <trkpt lat="43.64416" lon="1.39116">
        <ele>137</ele>
        <time>2023-07-14T09:17:53Z</time>
      </trkpt>
      <trkpt lat="43.64416" lon="1.39116">
        <ele>137</ele>
        <time>2023-07-14T09:17:54Z</time>
      </trkpt>
      <trkpt lat="43.64418" lon="1.39113">
        <ele>137</ele>
        <time>2023-07-14T09:17:55Z</time>
      </trkpt>
      <trkpt lat="43.64418" lon="1.39113">
        <ele>137</ele>
        <time>2023-07-14T09:17:56Z</time>
      </trkpt>
      <trkpt lat="43.64418" lon="1.39113">
        <ele>137</ele>
        <time>2023-07-14T09:17:57Z</time>
      </trkpt>
      <trkpt lat="43.64419" lon="1.39109">
        <ele>138</ele>
        <time>2023-07-14T09:17:58Z</time>
      </trkpt>
      <trkpt lat="43.64419" lon="1.39109">
        <ele>138</ele>
        <time>2023-07-14T09:17:59Z</time>
      </trkpt>
      <trkpt lat="43.6442" lon="1.39106">
        <ele>138</ele>
        <time>2023-07-14T09:18:00Z</time>
      </trkpt>
      <trkpt lat="43.6442" lon="1.39106">
        <ele>138</ele>
        <time>2023-07-14T09:18:01Z</time>
      </trkpt>
      <trkpt lat="43.64422" lon="1.39103">
        <ele>139</ele>
        <time>2023-07-14T09:18:02Z</time>
      </trkpt>
      <trkpt lat="43.64422" lon="1.39103">
        <ele>139</ele>
        <time>2023-07-14T09:18:03Z</time>
      </trkpt>
      <trkpt lat="43.64423" lon="1.391">
        <ele>139</ele>
        <time>2023-07-14T09:18:04Z</time>
      </trkpt>
      <trkpt lat="43.64423" lon="1.391">
        <ele>139</ele>
        <time>2023-07-14T09:18:05Z</time>
      </trkpt>
      <trkpt lat="43.64425" lon="1.39097">
        <ele>139</ele>
        <time>2023-07-14T09:18:06Z</time>
      </trkpt>
      <trkpt lat="43.64425" lon="1.39097">
        <ele>139</ele>
        <time>2023-07-14T09:18:07Z</time>
      </trkpt>
      <trkpt lat="43.64426" lon="1.39094">
        <ele>139</ele>
        <time>2023-07-14T09:18:08Z</time>
      </trkpt>
      <trkpt lat="43.64428" lon="1.39092">
        <ele>139</ele>
        <time>2023-07-14T09:18:09Z</time>
      </trkpt>
      <trkpt lat="43.64428" lon="1.39092">
        <ele>139</ele>
        <time>2023-07-14T09:18:10Z</time>
      </trkpt>
      <trkpt lat="43.64428" lon="1.39092">
        <ele>139</ele>
        <time>2023-07-14T09:18:11Z</time>
      </trkpt>
      <trkpt lat="43.6443" lon="1.39089">
        <ele>139</ele>
        <time>2023-07-14T09:18:12Z</time>
      </trkpt>
      <trkpt lat="43.6443" lon="1.39089">
        <ele>139</ele>
        <time>2023-07-14T09:18:13Z</time>
      </trkpt>
      <trkpt lat="43.64431" lon="1.39087">
        <ele>139</ele>
        <time>2023-07-14T09:18:14Z</time>
      </trkpt>
      <trkpt lat="43.64431" lon="1.39087">
        <ele>139</ele>
        <time>2023-07-14T09:18:15Z</time>
      </trkpt>
      <trkpt lat="43.64433" lon="1.39083">
        <ele>139</ele>
        <time>2023-07-14T09:18:16Z</time>
      </trkpt>
      <trkpt lat="43.64433" lon="1.39083">
        <ele>139</ele>
        <time>2023-07-14T09:18:17Z</time>
      </trkpt>
      <trkpt lat="43.64434" lon="1.39081">
        <ele>139</ele>
        <time>2023-07-14T09:18:18Z</time>
      </trkpt>
      <trkpt lat="43.64434" lon="1.39081">
        <ele>139</ele>
        <time>2023-07-14T09:18:19Z</time>
      </trkpt>
      <trkpt lat="43.64436" lon="1.39078">
        <ele>139</ele>
        <time>2023-07-14T09:18:20Z</time>
      </trkpt>
      <trkpt lat="43.64436" lon="1.39078">
        <ele>140</ele>
        <time>2023-07-14T09:18:21Z</time>
      </trkpt>
      <trkpt lat="43.64437" lon="1.39075">
        <ele>140</ele>
        <time>2023-07-14T09:18:22Z</time>
      </trkpt>
      <trkpt lat="43.64437" lon="1.39075">
        <ele>140</ele>
        <time>2023-07-14T09:18:23Z</time>
      </trkpt>
      <trkpt lat="43.64439" lon="1.39073">
        <ele>140</ele>
        <time>2023-07-14T09:18:24Z</time>
      </trkpt>
      <trkpt lat="43.64439" lon="1.39073">
        <ele>140</ele>
        <time>2023-07-14T09:18:25Z</time>
      </trkpt>
      <trkpt lat="43.6444" lon="1.39071">
        <ele>140</ele>
        <time>2023-07-14T09:18:26Z</time>
      </trkpt>
      <trkpt lat="43.6444" lon="1.39071">
        <ele>140</ele>
        <time>2023-07-14T09:18:27Z</time>
      </trkpt>
      <trkpt lat="43.64442" lon="1.39068">
        <ele>140</ele>
        <time>2023-07-14T09:18:28Z</time>
      </trkpt>
      <trkpt lat="43.64442" lon="1.39068">
        <ele>140</ele>
        <time>2023-07-14T09:18:29Z</time>
      </trkpt>
      <trkpt lat="43.64443" lon="1.39065">
        <ele>140</ele>
        <time>2023-07-14T09:18:30Z</time>
      </trkpt>
      <trkpt lat="43.64443" lon="1.39065">
        <ele>140</ele>
        <time>2023-07-14T09:18:31Z</time>
      </trkpt>
      <trkpt lat="43.64445" lon="1.39061">
        <ele>140</ele>
        <time>2023-07-14T09:18:32Z</time>
      </trkpt>
      <trkpt lat="43.64446" lon="1.39057">
        <ele>140</ele>
        <time>2023-07-14T09:18:33Z</time>
      </trkpt>
      <trkpt lat="43.64446" lon="1.39057">
        <ele>140</ele>
        <time>2023-07-14T09:18:34Z</time>
      </trkpt>
      <trkpt lat="43.64446" lon="1.39057">
        <ele>140</ele>
        <time>2023-07-14T09:18:35Z</time>
      </trkpt>
      <trkpt lat="43.64448" lon="1.39053">
        <ele>141</ele>
        <time>2023-07-14T09:18:36Z</time>
      </trkpt>
      <trkpt lat="43.64448" lon="1.39053">
        <ele>141</ele>
        <time>2023-07-14T09:18:37Z</time>
      </trkpt>
      <trkpt lat="43.6445" lon="1.39051">
        <ele>141</ele>
        <time>2023-07-14T09:18:38Z</time>
      </trkpt>
      <trkpt lat="43.6445" lon="1.39051">
        <ele>140</ele>
        <time>2023-07-14T09:18:39Z</time>
      </trkpt>
      <trkpt lat="43.64452" lon="1.39048">
        <ele>140</ele>
        <time>2023-07-14T09:18:40Z</time>
      </trkpt>
      <trkpt lat="43.64452" lon="1.39048">
        <ele>140</ele>
        <time>2023-07-14T09:18:41Z</time>
      </trkpt>
      <trkpt lat="43.64455" lon="1.39046">
        <ele>140</ele>
        <time>2023-07-14T09:18:42Z</time>
      </trkpt>
      <trkpt lat="43.64457" lon="1.39045">
        <ele>140</ele>
        <time>2023-07-14T09:18:43Z</time>
      </trkpt>
      <trkpt lat="43.64461" lon="1.39044">
        <ele>140</ele>
        <time>2023-07-14T09:18:44Z</time>
      </trkpt>
      <trkpt lat="43.64461" lon="1.39044">
        <ele>140</ele>
        <time>2023-07-14T09:18:45Z</time>
      </trkpt>
      <trkpt lat="43.64463" lon="1.39043">
        <ele>141</ele>
        <time>2023-07-14T09:18:46Z</time>
      </trkpt>
      <trkpt lat="43.64467" lon="1.39041">
        <ele>141</ele>
        <time>2023-07-14T09:18:47Z</time>
      </trkpt>
      <trkpt lat="43.64467" lon="1.39041">
        <ele>141</ele>
        <time>2023-07-14T09:18:48Z</time>
      </trkpt>
      <trkpt lat="43.64469" lon="1.39039">
        <ele>141</ele>
        <time>2023-07-14T09:18:49Z</time>
      </trkpt>
      <trkpt lat="43.64471" lon="1.39038">
        <ele>141</ele>
        <time>2023-07-14T09:18:50Z</time>
      </trkpt>
      <trkpt lat="43.64474" lon="1.39036">
        <ele>141</ele>
        <time>2023-07-14T09:18:51Z</time>
      </trkpt>
      <trkpt lat="43.64476" lon="1.39034">
        <ele>141</ele>
        <time>2023-07-14T09:18:52Z</time>
      </trkpt>
      <trkpt lat="43.64477" lon="1.39031">
        <ele>141</ele>
        <time>2023-07-14T09:18:53Z</time>
      </trkpt>
      <trkpt lat="43.64479" lon="1.39029">
        <ele>141</ele>
        <time>2023-07-14T09:18:54Z</time>
      </trkpt>
      <trkpt lat="43.6448" lon="1.39027">
        <ele>141</ele>
        <time>2023-07-14T09:18:55Z</time>
      </trkpt>
      <trkpt lat="43.64481" lon="1.39025">
        <ele>141</ele>
        <time>2023-07-14T09:18:56Z</time>
      </trkpt>
      <trkpt lat="43.64483" lon="1.39021">
        <ele>141</ele>
        <time>2023-07-14T09:18:57Z</time>
      </trkpt>
      <trkpt lat="43.64483" lon="1.39018">
        <ele>141</ele>
        <time>2023-07-14T09:18:58Z</time>
      </trkpt>
      <trkpt lat="43.64484" lon="1.39016">
        <ele>141</ele>
        <time>2023-07-14T09:18:59Z</time>
      </trkpt>
      <trkpt lat="43.64485" lon="1.39013">
        <ele>141</ele>
        <time>2023-07-14T09:19:00Z</time>
      </trkpt>
      <trkpt lat="43.64486" lon="1.3901">
        <ele>141</ele>
        <time>2023-07-14T09:19:01Z</time>
      </trkpt>
      <trkpt lat="43.64486" lon="1.39007">
        <ele>141</ele>
        <time>2023-07-14T09:19:02Z</time>
      </trkpt>
      <trkpt lat="43.64487" lon="1.39003">
        <ele>141</ele>
        <time>2023-07-14T09:19:03Z</time>
      </trkpt>
      <trkpt lat="43.64488" lon="1.39">
        <ele>141</ele>
        <time>2023-07-14T09:19:04Z</time>
      </trkpt>
      <trkpt lat="43.64489" lon="1.38996">
        <ele>141</ele>
        <time>2023-07-14T09:19:05Z</time>
      </trkpt>
      <trkpt lat="43.64492" lon="1.3899">
        <ele>141</ele>
        <time>2023-07-14T09:19:06Z</time>
      </trkpt>
      <trkpt lat="43.64492" lon="1.3899">
        <ele>141</ele>
        <time>2023-07-14T09:19:07Z</time>
      </trkpt>
      <trkpt lat="43.64493" lon="1.38987">
        <ele>141</ele>
        <time>2023-07-14T09:19:08Z</time>
      </trkpt>
      <trkpt lat="43.64494" lon="1.38983">
        <ele>141</ele>
        <time>2023-07-14T09:19:09Z</time>
      </trkpt>
      <trkpt lat="43.64496" lon="1.3898">
        <ele>141</ele>
        <time>2023-07-14T09:19:10Z</time>
      </trkpt>
      <trkpt lat="43.64498" lon="1.38975">
        <ele>141</ele>
        <time>2023-07-14T09:19:11Z</time>
      </trkpt>
      <trkpt lat="43.64498" lon="1.38975">
        <ele>141</ele>
        <time>2023-07-14T09:19:12Z</time>
      </trkpt>
      <trkpt lat="43.64499" lon="1.38972">
        <ele>141</ele>
        <time>2023-07-14T09:19:13Z</time>
      </trkpt>
      <trkpt lat="43.645" lon="1.38969">
        <ele>141</ele>
        <time>2023-07-14T09:19:14Z</time>
      </trkpt>
      <trkpt lat="43.64502" lon="1.38966">
        <ele>141</ele>
        <time>2023-07-14T09:19:15Z</time>
      </trkpt>
      <trkpt lat="43.64503" lon="1.38963">
        <ele>141</ele>
        <time>2023-07-14T09:19:16Z</time>
      </trkpt>
      <trkpt lat="43.64504" lon="1.38961">
        <ele>141</ele>
        <time>2023-07-14T09:19:17Z</time>
      </trkpt>
      <trkpt lat="43.64506" lon="1.38956">
        <ele>141</ele>
        <time>2023-07-14T09:19:18Z</time>
      </trkpt>
      <trkpt lat="43.64506" lon="1.38956">
        <ele>141</ele>
        <time>2023-07-14T09:19:19Z</time>
      </trkpt>
      <trkpt lat="43.64507" lon="1.38953">
        <ele>141</ele>
        <time>2023-07-14T09:19:20Z</time>
      </trkpt>
      <trkpt lat="43.64509" lon="1.38949">
        <ele>141</ele>
        <time>2023-07-14T09:19:21Z</time>
      </trkpt>
      <trkpt lat="43.6451" lon="1.38946">
        <ele>141</ele>
        <time>2023-07-14T09:19:22Z</time>
      </trkpt>
      <trkpt lat="43.64512" lon="1.38943">
        <ele>141</ele>
        <time>2023-07-14T09:19:23Z</time>
      </trkpt>
      <trkpt lat="43.64514" lon="1.3894">
        <ele>141</ele>
        <time>2023-07-14T09:19:24Z</time>
      </trkpt>
      <trkpt lat="43.64515" lon="1.38938">
        <ele>141</ele>
        <time>2023-07-14T09:19:25Z</time>
      </trkpt>
      <trkpt lat="43.64516" lon="1.38935">
        <ele>141</ele>
        <time>2023-07-14T09:19:26Z</time>
      </trkpt>
      <trkpt lat="43.64516" lon="1.38932">
        <ele>141</ele>
        <time>2023-07-14T09:19:27Z</time>
      </trkpt>
      <trkpt lat="43.64517" lon="1.38928">
        <ele>141</ele>
        <time>2023-07-14T09:19:28Z</time>
      </trkpt>
      <trkpt lat="43.64517" lon="1.38924">
        <ele>141</ele>
        <time>2023-07-14T09:19:29Z</time>
      </trkpt>
      <trkpt lat="43.64516" lon="1.38917">
        <ele>141</ele>
        <time>2023-07-14T09:19:30Z</time>
      </trkpt>
      <trkpt lat="43.64516" lon="1.38917">
        <ele>141</ele>
        <time>2023-07-14T09:19:31Z</time>
      </trkpt>
      <trkpt lat="43.64515" lon="1.38913">
        <ele>141</ele>
        <time>2023-07-14T09:19:32Z</time>
      </trkpt>
      <trkpt lat="43.64515" lon="1.38911">
        <ele>141</ele>
        <time>2023-07-14T09:19:33Z</time>
      </trkpt>
      <trkpt lat="43.64513" lon="1.38908">
        <ele>141</ele>
        <time>2023-07-14T09:19:34Z</time>
      </trkpt>
      <trkpt lat="43.64513" lon="1.38905">
        <ele>141</ele>
        <time>2023-07-14T09:19:35Z</time>
      </trkpt>
      <trkpt lat="43.64512" lon="1.38902">
        <ele>141</ele>
        <time>2023-07-14T09:19:36Z</time>
      </trkpt>
      <trkpt lat="43.6451" lon="1.38893">
        <ele>141</ele>
        <time>2023-07-14T09:19:37Z</time>
      </trkpt>
      <trkpt lat="43.6451" lon="1.38893">
        <ele>141</ele>
        <time>2023-07-14T09:19:38Z</time>
      </trkpt>
      <trkpt lat="43.64509" lon="1.38889">
        <ele>141</ele>
        <time>2023-07-14T09:19:39Z</time>
      </trkpt>
      <trkpt lat="43.64508" lon="1.38885">
        <ele>142</ele>
        <time>2023-07-14T09:19:40Z</time>
      </trkpt>
      <trkpt lat="43.64507" lon="1.38881">
        <ele>142</ele>
        <time>2023-07-14T09:19:41Z</time>
      </trkpt>
      <trkpt lat="43.64506" lon="1.38877">
        <ele>141</ele>
        <time>2023-07-14T09:19:42Z</time>
      </trkpt>
      <trkpt lat="43.64505" lon="1.38869">
        <ele>141</ele>
        <time>2023-07-14T09:19:43Z</time>
      </trkpt>
      <trkpt lat="43.64505" lon="1.38869">
        <ele>141</ele>
        <time>2023-07-14T09:19:44Z</time>
      </trkpt>
      <trkpt lat="43.64508" lon="1.38863">
        <ele>141</ele>
        <time>2023-07-14T09:19:45Z</time>
      </trkpt>
      <trkpt lat="43.6451" lon="1.38861">
        <ele>141</ele>
        <time>2023-07-14T09:19:46Z</time>
      </trkpt>
      <trkpt lat="43.6451" lon="1.38861">
        <ele>141</ele>
        <time>2023-07-14T09:19:47Z</time>
      </trkpt>
      <trkpt lat="43.64512" lon="1.38859">
        <ele>141</ele>
        <time>2023-07-14T09:19:48Z</time>
      </trkpt>
      <trkpt lat="43.64515" lon="1.38858">
        <ele>141</ele>
        <time>2023-07-14T09:19:49Z</time>
      </trkpt>
      <trkpt lat="43.64517" lon="1.38857">
        <ele>141</ele>
        <time>2023-07-14T09:19:50Z</time>
      </trkpt>
      <trkpt lat="43.6452" lon="1.38856">
        <ele>141</ele>
        <time>2023-07-14T09:19:51Z</time>
      </trkpt>
      <trkpt lat="43.64523" lon="1.38856">
        <ele>142</ele>
        <time>2023-07-14T09:19:52Z</time>
      </trkpt>
      <trkpt lat="43.64525" lon="1.38854">
        <ele>142</ele>
        <time>2023-07-14T09:19:53Z</time>
      </trkpt>
      <trkpt lat="43.64528" lon="1.38853">
        <ele>142</ele>
        <time>2023-07-14T09:19:54Z</time>
      </trkpt>
      <trkpt lat="43.64531" lon="1.38852">
        <ele>141</ele>
        <time>2023-07-14T09:19:55Z</time>
      </trkpt>
      <trkpt lat="43.64533" lon="1.38851">
        <ele>141</ele>
        <time>2023-07-14T09:19:56Z</time>
      </trkpt>
      <trkpt lat="43.64536" lon="1.3885">
        <ele>141</ele>
        <time>2023-07-14T09:19:57Z</time>
      </trkpt>
      <trkpt lat="43.64539" lon="1.3885">
        <ele>141</ele>
        <time>2023-07-14T09:19:58Z</time>
      </trkpt>
      <trkpt lat="43.64541" lon="1.38848">
        <ele>141</ele>
        <time>2023-07-14T09:19:59Z</time>
      </trkpt>
      <trkpt lat="43.64544" lon="1.38848">
        <ele>141</ele>
        <time>2023-07-14T09:20:00Z</time>
      </trkpt>
      <trkpt lat="43.64546" lon="1.38847">
        <ele>141</ele>
        <time>2023-07-14T09:20:01Z</time>
      </trkpt>
      <trkpt lat="43.6455" lon="1.38846">
        <ele>141</ele>
        <time>2023-07-14T09:20:02Z</time>
      </trkpt>
      <trkpt lat="43.64553" lon="1.38846">
        <ele>140</ele>
        <time>2023-07-14T09:20:03Z</time>
      </trkpt>
      <trkpt lat="43.64553" lon="1.38846">
        <ele>140</ele>
        <time>2023-07-14T09:20:04Z</time>
      </trkpt>
      <trkpt lat="43.64556" lon="1.38845">
        <ele>140</ele>
        <time>2023-07-14T09:20:05Z</time>
      </trkpt>
      <trkpt lat="43.64558" lon="1.38844">
        <ele>140</ele>
        <time>2023-07-14T09:20:06Z</time>
      </trkpt>
      <trkpt lat="43.6456" lon="1.38844">
        <ele>141</ele>
        <time>2023-07-14T09:20:07Z</time>
      </trkpt>
      <trkpt lat="43.64563" lon="1.38843">
        <ele>141</ele>
        <time>2023-07-14T09:20:08Z</time>
      </trkpt>
      <trkpt lat="43.64566" lon="1.38843">
        <ele>141</ele>
        <time>2023-07-14T09:20:09Z</time>
      </trkpt>
      <trkpt lat="43.64568" lon="1.38843">
        <ele>141</ele>
        <time>2023-07-14T09:20:10Z</time>
      </trkpt>
      <trkpt lat="43.64571" lon="1.38843">
        <ele>141</ele>
        <time>2023-07-14T09:20:11Z</time>
      </trkpt>
      <trkpt lat="43.64574" lon="1.38843">
        <ele>141</ele>
        <time>2023-07-14T09:20:12Z</time>
      </trkpt>
      <trkpt lat="43.64576" lon="1.38843">
        <ele>141</ele>
        <time>2023-07-14T09:20:13Z</time>
      </trkpt>
      <trkpt lat="43.64579" lon="1.38842">
        <ele>141</ele>
        <time>2023-07-14T09:20:14Z</time>
      </trkpt>
      <trkpt lat="43.64582" lon="1.38842">
        <ele>142</ele>
        <time>2023-07-14T09:20:15Z</time>
      </trkpt>
      <trkpt lat="43.64584" lon="1.38841">
        <ele>142</ele>
        <time>2023-07-14T09:20:16Z</time>
      </trkpt>
      <trkpt lat="43.64589" lon="1.3884">
        <ele>141</ele>
        <time>2023-07-14T09:20:17Z</time>
      </trkpt>
      <trkpt lat="43.64589" lon="1.3884">
        <ele>141</ele>
        <time>2023-07-14T09:20:18Z</time>
      </trkpt>
      <trkpt lat="43.64591" lon="1.3884">
        <ele>141</ele>
        <time>2023-07-14T09:20:19Z</time>
      </trkpt>
      <trkpt lat="43.64593" lon="1.38839">
        <ele>141</ele>
        <time>2023-07-14T09:20:20Z</time>
      </trkpt>
      <trkpt lat="43.64595" lon="1.38839">
        <ele>141</ele>
        <time>2023-07-14T09:20:21Z</time>
      </trkpt>
      <trkpt lat="43.64598" lon="1.38839">
        <ele>141</ele>
        <time>2023-07-14T09:20:22Z</time>
      </trkpt>
      <trkpt lat="43.64601" lon="1.38839">
        <ele>141</ele>
        <time>2023-07-14T09:20:23Z</time>
      </trkpt>
      <trkpt lat="43.64604" lon="1.38838">
        <ele>141</ele>
        <time>2023-07-14T09:20:24Z</time>
      </trkpt>
      <trkpt lat="43.64607" lon="1.38838">
        <ele>141</ele>
        <time>2023-07-14T09:20:25Z</time>
      </trkpt>
      <trkpt lat="43.6461" lon="1.38837">
        <ele>141</ele>
        <time>2023-07-14T09:20:26Z</time>
      </trkpt>
      <trkpt lat="43.64613" lon="1.38836">
        <ele>141</ele>
        <time>2023-07-14T09:20:27Z</time>
      </trkpt>
      <trkpt lat="43.64615" lon="1.38835">
        <ele>141</ele>
        <time>2023-07-14T09:20:28Z</time>
      </trkpt>
      <trkpt lat="43.64617" lon="1.38834">
        <ele>141</ele>
        <time>2023-07-14T09:20:29Z</time>
      </trkpt>
      <trkpt lat="43.64619" lon="1.38833">
        <ele>141</ele>
        <time>2023-07-14T09:20:30Z</time>
      </trkpt>
      <trkpt lat="43.64621" lon="1.38832">
        <ele>141</ele>
        <time>2023-07-14T09:20:31Z</time>
      </trkpt>
      <trkpt lat="43.64624" lon="1.38831">
        <ele>142</ele>
        <time>2023-07-14T09:20:32Z</time>
      </trkpt>
      <trkpt lat="43.64626" lon="1.3883">
        <ele>142</ele>
        <time>2023-07-14T09:20:33Z</time>
      </trkpt>
      <trkpt lat="43.64629" lon="1.38829">
        <ele>142</ele>
        <time>2023-07-14T09:20:34Z</time>
      </trkpt>
      <trkpt lat="43.64631" lon="1.38828">
        <ele>142</ele>
        <time>2023-07-14T09:20:35Z</time>
      </trkpt>
      <trkpt lat="43.64633" lon="1.38827">
        <ele>142</ele>
        <time>2023-07-14T09:20:36Z</time>
      </trkpt>
      <trkpt lat="43.64636" lon="1.38826">
        <ele>142</ele>
        <time>2023-07-14T09:20:37Z</time>
      </trkpt>
      <trkpt lat="43.64638" lon="1.38824">
        <ele>142</ele>
        <time>2023-07-14T09:20:38Z</time>
      </trkpt>
      <trkpt lat="43.64641" lon="1.38823">
        <ele>142</ele>
        <time>2023-07-14T09:20:39Z</time>
      </trkpt>
      <trkpt lat="43.64643" lon="1.38822">
        <ele>142</ele>
        <time>2023-07-14T09:20:40Z</time>
      </trkpt>
      <trkpt lat="43.64645" lon="1.38821">
        <ele>142</ele>
        <time>2023-07-14T09:20:41Z</time>
      </trkpt>
      <trkpt lat="43.64648" lon="1.3882">
        <ele>142</ele>
        <time>2023-07-14T09:20:42Z</time>
      </trkpt>
      <trkpt lat="43.6465" lon="1.38819">
        <ele>142</ele>
        <time>2023-07-14T09:20:43Z</time>
      </trkpt>
      <trkpt lat="43.64652" lon="1.38818">
        <ele>142</ele>
        <time>2023-07-14T09:20:44Z</time>
      </trkpt>
      <trkpt lat="43.64655" lon="1.38818">
        <ele>142</ele>
        <time>2023-07-14T09:20:45Z</time>
      </trkpt>
      <trkpt lat="43.6466" lon="1.38817">
        <ele>143</ele>
        <time>2023-07-14T09:20:46Z</time>
      </trkpt>
      <trkpt lat="43.6466" lon="1.38817">
        <ele>142</ele>
        <time>2023-07-14T09:20:47Z</time>
      </trkpt>
      <trkpt lat="43.64662" lon="1.38816">
        <ele>142</ele>
        <time>2023-07-14T09:20:48Z</time>
      </trkpt>
      <trkpt lat="43.64665" lon="1.38815">
        <ele>143</ele>
        <time>2023-07-14T09:20:49Z</time>
      </trkpt>
      <trkpt lat="43.64667" lon="1.38814">
        <ele>143</ele>
        <time>2023-07-14T09:20:50Z</time>
      </trkpt>
      <trkpt lat="43.6467" lon="1.38813">
        <ele>143</ele>
        <time>2023-07-14T09:20:51Z</time>
      </trkpt>
      <trkpt lat="43.64672" lon="1.38812">
        <ele>143</ele>
        <time>2023-07-14T09:20:52Z</time>
      </trkpt>
      <trkpt lat="43.64675" lon="1.38811">
        <ele>143</ele>
        <time>2023-07-14T09:20:53Z</time>
      </trkpt>
      <trkpt lat="43.64677" lon="1.3881">
        <ele>143</ele>
        <time>2023-07-14T09:20:54Z</time>
      </trkpt>
      <trkpt lat="43.6468" lon="1.38809">
        <ele>142</ele>
        <time>2023-07-14T09:20:55Z</time>
      </trkpt>
      <trkpt lat="43.64682" lon="1.38809">
        <ele>142</ele>
        <time>2023-07-14T09:20:56Z</time>
      </trkpt>
      <trkpt lat="43.64685" lon="1.38807">
        <ele>142</ele>
        <time>2023-07-14T09:20:57Z</time>
      </trkpt>
      <trkpt lat="43.64687" lon="1.38806">
        <ele>142</ele>
        <time>2023-07-14T09:20:58Z</time>
      </trkpt>
      <trkpt lat="43.64689" lon="1.38804">
        <ele>142</ele>
        <time>2023-07-14T09:20:59Z</time>
      </trkpt>
      <trkpt lat="43.64692" lon="1.38801">
        <ele>142</ele>
        <time>2023-07-14T09:21:00Z</time>
      </trkpt>
      <trkpt lat="43.64695" lon="1.38801">
        <ele>142</ele>
        <time>2023-07-14T09:21:01Z</time>
      </trkpt>
      <trkpt lat="43.64698" lon="1.388">
        <ele>142</ele>
        <time>2023-07-14T09:21:02Z</time>
      </trkpt>
      <trkpt lat="43.647" lon="1.38799">
        <ele>142</ele>
        <time>2023-07-14T09:21:03Z</time>
      </trkpt>
      <trkpt lat="43.64703" lon="1.38798">
        <ele>142</ele>
        <time>2023-07-14T09:21:04Z</time>
      </trkpt>
      <trkpt lat="43.64708" lon="1.38797">
        <ele>142</ele>
        <time>2023-07-14T09:21:05Z</time>
      </trkpt>
      <trkpt lat="43.64708" lon="1.38797">
        <ele>142</ele>
        <time>2023-07-14T09:21:06Z</time>
      </trkpt>
      <trkpt lat="43.6471" lon="1.38796">
        <ele>142</ele>
        <time>2023-07-14T09:21:07Z</time>
      </trkpt>
      <trkpt lat="43.64712" lon="1.38795">
        <ele>142</ele>
        <time>2023-07-14T09:21:08Z</time>
      </trkpt>
      <trkpt lat="43.64715" lon="1.38794">
        <ele>142</ele>
        <time>2023-07-14T09:21:09Z</time>
      </trkpt>
      <trkpt lat="43.64719" lon="1.38792">
        <ele>142</ele>
        <time>2023-07-14T09:21:10Z</time>
      </trkpt>
      <trkpt lat="43.64719" lon="1.38792">
        <ele>142</ele>
        <time>2023-07-14T09:21:11Z</time>
      </trkpt>
      <trkpt lat="43.64724" lon="1.38789">
        <ele>142</ele>
        <time>2023-07-14T09:21:12Z</time>
      </trkpt>
      <trkpt lat="43.64724" lon="1.38789">
        <ele>142</ele>
        <time>2023-07-14T09:21:13Z</time>
      </trkpt>
      <trkpt lat="43.64726" lon="1.38787">
        <ele>142</ele>
        <time>2023-07-14T09:21:14Z</time>
      </trkpt>
      <trkpt lat="43.64728" lon="1.38786">
        <ele>142</ele>
        <time>2023-07-14T09:21:15Z</time>
      </trkpt>
      <trkpt lat="43.64731" lon="1.38784">
        <ele>142</ele>
        <time>2023-07-14T09:21:16Z</time>
      </trkpt>
      <trkpt lat="43.64735" lon="1.38781">
        <ele>142</ele>
        <time>2023-07-14T09:21:17Z</time>
      </trkpt>
      <trkpt lat="43.64735" lon="1.38781">
        <ele>142</ele>
        <time>2023-07-14T09:21:18Z</time>
      </trkpt>
      <trkpt lat="43.6474" lon="1.38777">
        <ele>142</ele>
        <time>2023-07-14T09:21:19Z</time>
      </trkpt>
      <trkpt lat="43.6474" lon="1.38777">
        <ele>142</ele>
        <time>2023-07-14T09:21:20Z</time>
      </trkpt>
      <trkpt lat="43.64744" lon="1.38773">
        <ele>142</ele>
        <time>2023-07-14T09:21:21Z</time>
      </trkpt>
      <trkpt lat="43.64746" lon="1.38772">
        <ele>142</ele>
        <time>2023-07-14T09:21:22Z</time>
      </trkpt>
      <trkpt lat="43.64746" lon="1.38772">
        <ele>142</ele>
        <time>2023-07-14T09:21:23Z</time>
      </trkpt>
      <trkpt lat="43.64748" lon="1.3877">
        <ele>142</ele>
        <time>2023-07-14T09:21:24Z</time>
      </trkpt>
      <trkpt lat="43.64751" lon="1.38768">
        <ele>142</ele>
        <time>2023-07-14T09:21:25Z</time>
      </trkpt>
      <trkpt lat="43.64753" lon="1.38767">
        <ele>142</ele>
        <time>2023-07-14T09:21:26Z</time>
      </trkpt>
      <trkpt lat="43.64755" lon="1.38765">
        <ele>142</ele>
        <time>2023-07-14T09:21:27Z</time>
      </trkpt>
      <trkpt lat="43.64757" lon="1.38763">
        <ele>142</ele>
        <time>2023-07-14T09:21:28Z</time>
      </trkpt>
      <trkpt lat="43.6476" lon="1.38762">
        <ele>142</ele>
        <time>2023-07-14T09:21:29Z</time>
      </trkpt>
      <trkpt lat="43.64765" lon="1.38758">
        <ele>142</ele>
        <time>2023-07-14T09:21:30Z</time>
      </trkpt>
      <trkpt lat="43.64765" lon="1.38758">
        <ele>142</ele>
        <time>2023-07-14T09:21:31Z</time>
      </trkpt>
      <trkpt lat="43.64768" lon="1.38756">
        <ele>142</ele>
        <time>2023-07-14T09:21:32Z</time>
      </trkpt>
      <trkpt lat="43.6477" lon="1.38755">
        <ele>142</ele>
        <time>2023-07-14T09:21:33Z</time>
      </trkpt>
      <trkpt lat="43.64772" lon="1.38753">
        <ele>142</ele>
        <time>2023-07-14T09:21:34Z</time>
      </trkpt>
      <trkpt lat="43.64774" lon="1.38752">
        <ele>142</ele>
        <time>2023-07-14T09:21:35Z</time>
      </trkpt>
      <trkpt lat="43.64777" lon="1.3875">
        <ele>142</ele>
        <time>2023-07-14T09:21:36Z</time>
      </trkpt>
      <trkpt lat="43.64781" lon="1.38747">
        <ele>142</ele>
        <time>2023-07-14T09:21:37Z</time>
      </trkpt>
      <trkpt lat="43.64782" lon="1.38744">
        <ele>142</ele>
        <time>2023-07-14T09:21:38Z</time>
      </trkpt>
      <trkpt lat="43.64782" lon="1.38744">
        <ele>142</ele>
        <time>2023-07-14T09:21:39Z</time>
      </trkpt>
      <trkpt lat="43.64786" lon="1.3874">
        <ele>142</ele>
        <time>2023-07-14T09:21:40Z</time>
      </trkpt>
      <trkpt lat="43.64786" lon="1.3874">
        <ele>142</ele>
        <time>2023-07-14T09:21:41Z</time>
      </trkpt>
      <trkpt lat="43.64789" lon="1.38739">
        <ele>141</ele>
        <time>2023-07-14T09:21:42Z</time>
      </trkpt>
      <trkpt lat="43.64791" lon="1.38737">
        <ele>141</ele>
        <time>2023-07-14T09:21:43Z</time>
      </trkpt>
      <trkpt lat="43.64793" lon="1.38735">
        <ele>141</ele>
        <time>2023-07-14T09:21:44Z</time>
      </trkpt>
      <trkpt lat="43.64795" lon="1.38734">
        <ele>141</ele>
        <time>2023-07-14T09:21:45Z</time>
      </trkpt>
      <trkpt lat="43.64797" lon="1.38732">
        <ele>141</ele>
        <time>2023-07-14T09:21:46Z</time>
      </trkpt>
      <trkpt lat="43.64802" lon="1.38729">
        <ele>142</ele>
        <time>2023-07-14T09:21:47Z</time>
      </trkpt>
      <trkpt lat="43.64802" lon="1.38729">
        <ele>142</ele>
        <time>2023-07-14T09:21:48Z</time>
      </trkpt>
      <trkpt lat="43.64804" lon="1.38727">
        <ele>142</ele>
        <time>2023-07-14T09:21:49Z</time>
      </trkpt>
      <trkpt lat="43.64807" lon="1.38726">
        <ele>141</ele>
        <time>2023-07-14T09:21:50Z</time>
      </trkpt>
      <trkpt lat="43.64809" lon="1.38724">
        <ele>141</ele>
        <time>2023-07-14T09:21:51Z</time>
      </trkpt>
      <trkpt lat="43.64811" lon="1.38723">
        <ele>141</ele>
        <time>2023-07-14T09:21:52Z</time>
      </trkpt>
      <trkpt lat="43.64814" lon="1.38721">
        <ele>142</ele>
        <time>2023-07-14T09:21:53Z</time>
      </trkpt>
      <trkpt lat="43.64816" lon="1.38719">
        <ele>142</ele>
        <time>2023-07-14T09:21:54Z</time>
      </trkpt>
      <trkpt lat="43.64817" lon="1.38716">
        <ele>142</ele>
        <time>2023-07-14T09:21:55Z</time>
      </trkpt>
      <trkpt lat="43.6482" lon="1.38715">
        <ele>142</ele>
        <time>2023-07-14T09:21:56Z</time>
      </trkpt>
      <trkpt lat="43.64824" lon="1.38712">
        <ele>142</ele>
        <time>2023-07-14T09:21:57Z</time>
      </trkpt>
      <trkpt lat="43.64824" lon="1.38712">
        <ele>142</ele>
        <time>2023-07-14T09:21:58Z</time>
      </trkpt>
      <trkpt lat="43.64829" lon="1.38709">
        <ele>142</ele>
        <time>2023-07-14T09:21:59Z</time>
      </trkpt>
      <trkpt lat="43.64829" lon="1.38709">
        <ele>142</ele>
        <time>2023-07-14T09:22:00Z</time>
      </trkpt>
      <trkpt lat="43.64832" lon="1.38708">
        <ele>142</ele>
        <time>2023-07-14T09:22:01Z</time>
      </trkpt>
      <trkpt lat="43.64835" lon="1.38706">
        <ele>142</ele>
        <time>2023-07-14T09:22:02Z</time>
      </trkpt>
      <trkpt lat="43.64837" lon="1.38704">
        <ele>142</ele>
        <time>2023-07-14T09:22:03Z</time>
      </trkpt>
      <trkpt lat="43.6484" lon="1.38703">
        <ele>142</ele>
        <time>2023-07-14T09:22:04Z</time>
      </trkpt>
      <trkpt lat="43.64843" lon="1.38701">
        <ele>142</ele>
        <time>2023-07-14T09:22:05Z</time>
      </trkpt>
      <trkpt lat="43.64846" lon="1.387">
        <ele>142</ele>
        <time>2023-07-14T09:22:06Z</time>
      </trkpt>
      <trkpt lat="43.64848" lon="1.38698">
        <ele>142</ele>
        <time>2023-07-14T09:22:07Z</time>
      </trkpt>
      <trkpt lat="43.6485" lon="1.38697">
        <ele>142</ele>
        <time>2023-07-14T09:22:08Z</time>
      </trkpt>
      <trkpt lat="43.64852" lon="1.38695">
        <ele>142</ele>
        <time>2023-07-14T09:22:09Z</time>
      </trkpt>
      <trkpt lat="43.64854" lon="1.38693">
        <ele>142</ele>
        <time>2023-07-14T09:22:10Z</time>
      </trkpt>
      <trkpt lat="43.64856" lon="1.38692">
        <ele>142</ele>
        <time>2023-07-14T09:22:11Z</time>
      </trkpt>
      <trkpt lat="43.64861" lon="1.38688">
        <ele>142</ele>
        <time>2023-07-14T09:22:12Z</time>
      </trkpt>
      <trkpt lat="43.64861" lon="1.38688">
        <ele>142</ele>
        <time>2023-07-14T09:22:13Z</time>
      </trkpt>
      <trkpt lat="43.64863" lon="1.38687">
        <ele>142</ele>
        <time>2023-07-14T09:22:14Z</time>
      </trkpt>
      <trkpt lat="43.64866" lon="1.38685">
        <ele>142</ele>
        <time>2023-07-14T09:22:15Z</time>
      </trkpt>
      <trkpt lat="43.64869" lon="1.38681">
        <ele>142</ele>
        <time>2023-07-14T09:22:16Z</time>
      </trkpt>
      <trkpt lat="43.64869" lon="1.38681">
        <ele>142</ele>
        <time>2023-07-14T09:22:17Z</time>
      </trkpt>
      <trkpt lat="43.64873" lon="1.38678">
        <ele>142</ele>
        <time>2023-07-14T09:22:18Z</time>
      </trkpt>
      <trkpt lat="43.64873" lon="1.38678">
        <ele>142</ele>
        <time>2023-07-14T09:22:19Z</time>
      </trkpt>
      <trkpt lat="43.64875" lon="1.38676">
        <ele>142</ele>
        <time>2023-07-14T09:22:20Z</time>
      </trkpt>
      <trkpt lat="43.64878" lon="1.38675">
        <ele>142</ele>
        <time>2023-07-14T09:22:21Z</time>
      </trkpt>
      <trkpt lat="43.64881" lon="1.38674">
        <ele>142</ele>
        <time>2023-07-14T09:22:22Z</time>
      </trkpt>
      <trkpt lat="43.64884" lon="1.38672">
        <ele>142</ele>
        <time>2023-07-14T09:22:23Z</time>
      </trkpt>
      <trkpt lat="43.64886" lon="1.3867">
        <ele>142</ele>
        <time>2023-07-14T09:22:24Z</time>
      </trkpt>
      <trkpt lat="43.64888" lon="1.38669">
        <ele>142</ele>
        <time>2023-07-14T09:22:25Z</time>
      </trkpt>
      <trkpt lat="43.6489" lon="1.38667">
        <ele>142</ele>
        <time>2023-07-14T09:22:26Z</time>
      </trkpt>
      <trkpt lat="43.64892" lon="1.38666">
        <ele>142</ele>
        <time>2023-07-14T09:22:27Z</time>
      </trkpt>
      <trkpt lat="43.64895" lon="1.38664">
        <ele>143</ele>
        <time>2023-07-14T09:22:28Z</time>
      </trkpt>
      <trkpt lat="43.64897" lon="1.38662">
        <ele>143</ele>
        <time>2023-07-14T09:22:29Z</time>
      </trkpt>
      <trkpt lat="43.64899" lon="1.38661">
        <ele>143</ele>
        <time>2023-07-14T09:22:30Z</time>
      </trkpt>
      <trkpt lat="43.64901" lon="1.38659">
        <ele>143</ele>
        <time>2023-07-14T09:22:31Z</time>
      </trkpt>
      <trkpt lat="43.64907" lon="1.38657">
        <ele>143</ele>
        <time>2023-07-14T09:22:32Z</time>
      </trkpt>
      <trkpt lat="43.64907" lon="1.38657">
        <ele>143</ele>
        <time>2023-07-14T09:22:33Z</time>
      </trkpt>
      <trkpt lat="43.64909" lon="1.38656">
        <ele>143</ele>
        <time>2023-07-14T09:22:34Z</time>
      </trkpt>
      <trkpt lat="43.64914" lon="1.38653">
        <ele>143</ele>
        <time>2023-07-14T09:22:35Z</time>
      </trkpt>
      <trkpt lat="43.64914" lon="1.38653">
        <ele>143</ele>
        <time>2023-07-14T09:22:36Z</time>
      </trkpt>
      <trkpt lat="43.64917" lon="1.38651">
        <ele>143</ele>
        <time>2023-07-14T09:22:37Z</time>
      </trkpt>
      <trkpt lat="43.64922" lon="1.38648">
        <ele>143</ele>
        <time>2023-07-14T09:22:38Z</time>
      </trkpt>
      <trkpt lat="43.64922" lon="1.38648">
        <ele>143</ele>
        <time>2023-07-14T09:22:39Z</time>
      </trkpt>
      <trkpt lat="43.64925" lon="1.38647">
        <ele>143</ele>
        <time>2023-07-14T09:22:40Z</time>
      </trkpt>
      <trkpt lat="43.64927" lon="1.38645">
        <ele>143</ele>
        <time>2023-07-14T09:22:41Z</time>
      </trkpt>
      <trkpt lat="43.6493" lon="1.38643">
        <ele>143</ele>
        <time>2023-07-14T09:22:42Z</time>
      </trkpt>
      <trkpt lat="43.64932" lon="1.38642">
        <ele>143</ele>
        <time>2023-07-14T09:22:43Z</time>
      </trkpt>
      <trkpt lat="43.64935" lon="1.3864">
        <ele>143</ele>
        <time>2023-07-14T09:22:44Z</time>
      </trkpt>
      <trkpt lat="43.64939" lon="1.38637">
        <ele>143</ele>
        <time>2023-07-14T09:22:45Z</time>
      </trkpt>
      <trkpt lat="43.64939" lon="1.38637">
        <ele>143</ele>
        <time>2023-07-14T09:22:46Z</time>
      </trkpt>
      <trkpt lat="43.64942" lon="1.38636">
        <ele>143</ele>
        <time>2023-07-14T09:22:47Z</time>
      </trkpt>
      <trkpt lat="43.64945" lon="1.38635">
        <ele>143</ele>
        <time>2023-07-14T09:22:48Z</time>
      </trkpt>
      <trkpt lat="43.64947" lon="1.38634">
        <ele>143</ele>
        <time>2023-07-14T09:22:49Z</time>
      </trkpt>
      <trkpt lat="43.64949" lon="1.38632">
        <ele>143</ele>
        <time>2023-07-14T09:22:50Z</time>
      </trkpt>
      <trkpt lat="43.64952" lon="1.38631">
        <ele>143</ele>
        <time>2023-07-14T09:22:51Z</time>
      </trkpt>
      <trkpt lat="43.64955" lon="1.38627">
        <ele>143</ele>
        <time>2023-07-14T09:22:52Z</time>
      </trkpt>
      <trkpt lat="43.64955" lon="1.38627">
        <ele>143</ele>
        <time>2023-07-14T09:22:53Z</time>
      </trkpt>
      <trkpt lat="43.64959" lon="1.38622">
        <ele>143</ele>
        <time>2023-07-14T09:22:54Z</time>
      </trkpt>
      <trkpt lat="43.64959" lon="1.38622">
        <ele>143</ele>
        <time>2023-07-14T09:22:55Z</time>
      </trkpt>
      <trkpt lat="43.6496" lon="1.38619">
        <ele>143</ele>
        <time>2023-07-14T09:22:56Z</time>
      </trkpt>
      <trkpt lat="43.64962" lon="1.38616">
        <ele>143</ele>
        <time>2023-07-14T09:22:57Z</time>
      </trkpt>
      <trkpt lat="43.64964" lon="1.38613">
        <ele>143</ele>
        <time>2023-07-14T09:22:58Z</time>
      </trkpt>
      <trkpt lat="43.64966" lon="1.38612">
        <ele>143</ele>
        <time>2023-07-14T09:22:59Z</time>
      </trkpt>
      <trkpt lat="43.64968" lon="1.38611">
        <ele>143</ele>
        <time>2023-07-14T09:23:00Z</time>
      </trkpt>
      <trkpt lat="43.6497" lon="1.3861">
        <ele>143</ele>
        <time>2023-07-14T09:23:01Z</time>
      </trkpt>
      <trkpt lat="43.64975" lon="1.38608">
        <ele>143</ele>
        <time>2023-07-14T09:23:02Z</time>
      </trkpt>
      <trkpt lat="43.64975" lon="1.38608">
        <ele>142</ele>
        <time>2023-07-14T09:23:03Z</time>
      </trkpt>
      <trkpt lat="43.64978" lon="1.38607">
        <ele>142</ele>
        <time>2023-07-14T09:23:04Z</time>
      </trkpt>
      <trkpt lat="43.64981" lon="1.38605">
        <ele>142</ele>
        <time>2023-07-14T09:23:05Z</time>
      </trkpt>
      <trkpt lat="43.64983" lon="1.38604">
        <ele>143</ele>
        <time>2023-07-14T09:23:06Z</time>
      </trkpt>
      <trkpt lat="43.64985" lon="1.38602">
        <ele>143</ele>
        <time>2023-07-14T09:23:07Z</time>
      </trkpt>
      <trkpt lat="43.64988" lon="1.38601">
        <ele>142</ele>
        <time>2023-07-14T09:23:08Z</time>
      </trkpt>
      <trkpt lat="43.6499" lon="1.38599">
        <ele>142</ele>
        <time>2023-07-14T09:23:09Z</time>
      </trkpt>
      <trkpt lat="43.64993" lon="1.38597">
        <ele>142</ele>
        <time>2023-07-14T09:23:10Z</time>
      </trkpt>
      <trkpt lat="43.64995" lon="1.38595">
        <ele>142</ele>
        <time>2023-07-14T09:23:11Z</time>
      </trkpt>
      <trkpt lat="43.64998" lon="1.38593">
        <ele>142</ele>
        <time>2023-07-14T09:23:12Z</time>
      </trkpt>
      <trkpt lat="43.65003" lon="1.3859">
        <ele>142</ele>
        <time>2023-07-14T09:23:13Z</time>
      </trkpt>
      <trkpt lat="43.65003" lon="1.3859">
        <ele>142</ele>
        <time>2023-07-14T09:23:14Z</time>
      </trkpt>
      <trkpt lat="43.65009" lon="1.38587">
        <ele>142</ele>
        <time>2023-07-14T09:23:15Z</time>
      </trkpt>
      <trkpt lat="43.65009" lon="1.38587">
        <ele>142</ele>
        <time>2023-07-14T09:23:16Z</time>
      </trkpt>
      <trkpt lat="43.65012" lon="1.38585">
        <ele>142</ele>
        <time>2023-07-14T09:23:17Z</time>
      </trkpt>
      <trkpt lat="43.65014" lon="1.38583">
        <ele>142</ele>
        <time>2023-07-14T09:23:18Z</time>
      </trkpt>
      <trkpt lat="43.65017" lon="1.38582">
        <ele>142</ele>
        <time>2023-07-14T09:23:19Z</time>
      </trkpt>
      <trkpt lat="43.6502" lon="1.3858">
        <ele>142</ele>
        <time>2023-07-14T09:23:20Z</time>
      </trkpt>
      <trkpt lat="43.65022" lon="1.38579">
        <ele>142</ele>
        <time>2023-07-14T09:23:21Z</time>
      </trkpt>
      <trkpt lat="43.65027" lon="1.38576">
        <ele>142</ele>
        <time>2023-07-14T09:23:22Z</time>
      </trkpt>
      <trkpt lat="43.65027" lon="1.38576">
        <ele>142</ele>
        <time>2023-07-14T09:23:23Z</time>
      </trkpt>
      <trkpt lat="43.6503" lon="1.38575">
        <ele>142</ele>
        <time>2023-07-14T09:23:24Z</time>
      </trkpt>
      <trkpt lat="43.65032" lon="1.38573">
        <ele>142</ele>
        <time>2023-07-14T09:23:25Z</time>
      </trkpt>
      <trkpt lat="43.65035" lon="1.38572">
        <ele>142</ele>
        <time>2023-07-14T09:23:26Z</time>
      </trkpt>
      <trkpt lat="43.65037" lon="1.3857">
        <ele>142</ele>
        <time>2023-07-14T09:23:27Z</time>
      </trkpt>
      <trkpt lat="43.6504" lon="1.38569">
        <ele>142</ele>
        <time>2023-07-14T09:23:28Z</time>
      </trkpt>
      <trkpt lat="43.65043" lon="1.38567">
        <ele>142</ele>
        <time>2023-07-14T09:23:29Z</time>
      </trkpt>
      <trkpt lat="43.65045" lon="1.38566">
        <ele>142</ele>
        <time>2023-07-14T09:23:30Z</time>
      </trkpt>
      <trkpt lat="43.65048" lon="1.38564">
        <ele>142</ele>
        <time>2023-07-14T09:23:31Z</time>
      </trkpt>
      <trkpt lat="43.65053" lon="1.3856">
        <ele>142</ele>
        <time>2023-07-14T09:23:32Z</time>
      </trkpt>
      <trkpt lat="43.65053" lon="1.3856">
        <ele>142</ele>
        <time>2023-07-14T09:23:33Z</time>
      </trkpt>
      <trkpt lat="43.65056" lon="1.38559">
        <ele>142</ele>
        <time>2023-07-14T09:23:34Z</time>
      </trkpt>
      <trkpt lat="43.65058" lon="1.38557">
        <ele>142</ele>
        <time>2023-07-14T09:23:35Z</time>
      </trkpt>
      <trkpt lat="43.6506" lon="1.38556">
        <ele>142</ele>
        <time>2023-07-14T09:23:36Z</time>
      </trkpt>
      <trkpt lat="43.65063" lon="1.38554">
        <ele>142</ele>
        <time>2023-07-14T09:23:37Z</time>
      </trkpt>
      <trkpt lat="43.65066" lon="1.38554">
        <ele>142</ele>
        <time>2023-07-14T09:23:38Z</time>
      </trkpt>
      <trkpt lat="43.65068" lon="1.38552">
        <ele>142</ele>
        <time>2023-07-14T09:23:39Z</time>
      </trkpt>
      <trkpt lat="43.6507" lon="1.38551">
        <ele>142</ele>
        <time>2023-07-14T09:23:40Z</time>
      </trkpt>
      <trkpt lat="43.65073" lon="1.3855">
        <ele>142</ele>
        <time>2023-07-14T09:23:41Z</time>
      </trkpt>
      <trkpt lat="43.65075" lon="1.38548">
        <ele>142</ele>
        <time>2023-07-14T09:23:42Z</time>
      </trkpt>
      <trkpt lat="43.65078" lon="1.38546">
        <ele>142</ele>
        <time>2023-07-14T09:23:43Z</time>
      </trkpt>
      <trkpt lat="43.6508" lon="1.38545">
        <ele>142</ele>
        <time>2023-07-14T09:23:44Z</time>
      </trkpt>
      <trkpt lat="43.65083" lon="1.38543">
        <ele>142</ele>
        <time>2023-07-14T09:23:45Z</time>
      </trkpt>
      <trkpt lat="43.65085" lon="1.38542">
        <ele>142</ele>
        <time>2023-07-14T09:23:46Z</time>
      </trkpt>
      <trkpt lat="43.65088" lon="1.38541">
        <ele>142</ele>
        <time>2023-07-14T09:23:47Z</time>
      </trkpt>
      <trkpt lat="43.6509" lon="1.38539">
        <ele>142</ele>
        <time>2023-07-14T09:23:48Z</time>
      </trkpt>
      <trkpt lat="43.65093" lon="1.38534">
        <ele>142</ele>
        <time>2023-07-14T09:23:49Z</time>
      </trkpt>
      <trkpt lat="43.65093" lon="1.38534">
        <ele>142</ele>
        <time>2023-07-14T09:23:50Z</time>
      </trkpt>
      <trkpt lat="43.65096" lon="1.38526">
        <ele>142</ele>
        <time>2023-07-14T09:23:51Z</time>
      </trkpt>
      <trkpt lat="43.65096" lon="1.38526">
        <ele>142</ele>
        <time>2023-07-14T09:23:52Z</time>
      </trkpt>
      <trkpt lat="43.65096" lon="1.38522">
        <ele>142</ele>
        <time>2023-07-14T09:23:53Z</time>
      </trkpt>
      <trkpt lat="43.65097" lon="1.38518">
        <ele>142</ele>
        <time>2023-07-14T09:23:54Z</time>
      </trkpt>
      <trkpt lat="43.65098" lon="1.38515">
        <ele>142</ele>
        <time>2023-07-14T09:23:55Z</time>
      </trkpt>
      <trkpt lat="43.65099" lon="1.38511">
        <ele>142</ele>
        <time>2023-07-14T09:23:56Z</time>
      </trkpt>
      <trkpt lat="43.651" lon="1.38508">
        <ele>142</ele>
        <time>2023-07-14T09:23:57Z</time>
      </trkpt>
      <trkpt lat="43.651" lon="1.38505">
        <ele>142</ele>
        <time>2023-07-14T09:23:58Z</time>
      </trkpt>
      <trkpt lat="43.65099" lon="1.38501">
        <ele>142</ele>
        <time>2023-07-14T09:23:59Z</time>
      </trkpt>
      <trkpt lat="43.65098" lon="1.38497">
        <ele>142</ele>
        <time>2023-07-14T09:24:00Z</time>
      </trkpt>
      <trkpt lat="43.65096" lon="1.38493">
        <ele>142</ele>
        <time>2023-07-14T09:24:01Z</time>
      </trkpt>
      <trkpt lat="43.65095" lon="1.3849">
        <ele>142</ele>
        <time>2023-07-14T09:24:02Z</time>
      </trkpt>
      <trkpt lat="43.65092" lon="1.38483">
        <ele>142</ele>
        <time>2023-07-14T09:24:03Z</time>
      </trkpt>
      <trkpt lat="43.65092" lon="1.38483">
        <ele>142</ele>
        <time>2023-07-14T09:24:04Z</time>
      </trkpt>
      <trkpt lat="43.65091" lon="1.3848">
        <ele>142</ele>
        <time>2023-07-14T09:24:05Z</time>
      </trkpt>
      <trkpt lat="43.6509" lon="1.38477">
        <ele>142</ele>
        <time>2023-07-14T09:24:06Z</time>
      </trkpt>
      <trkpt lat="43.65089" lon="1.38473">
        <ele>142</ele>
        <time>2023-07-14T09:24:07Z</time>
      </trkpt>
      <trkpt lat="43.65088" lon="1.3847">
        <ele>142</ele>
        <time>2023-07-14T09:24:08Z</time>
      </trkpt>
      <trkpt lat="43.65085" lon="1.38463">
        <ele>142</ele>
        <time>2023-07-14T09:24:09Z</time>
      </trkpt>
      <trkpt lat="43.65084" lon="1.3846">
        <ele>142</ele>
        <time>2023-07-14T09:24:10Z</time>
      </trkpt>
      <trkpt lat="43.65082" lon="1.38457">
        <ele>143</ele>
        <time>2023-07-14T09:24:11Z</time>
      </trkpt>
      <trkpt lat="43.65082" lon="1.38457">
        <ele>143</ele>
        <time>2023-07-14T09:24:12Z</time>
      </trkpt>
      <trkpt lat="43.65081" lon="1.38453">
        <ele>143</ele>
        <time>2023-07-14T09:24:13Z</time>
      </trkpt>
      <trkpt lat="43.6508" lon="1.38449">
        <ele>143</ele>
        <time>2023-07-14T09:24:14Z</time>
      </trkpt>
      <trkpt lat="43.65079" lon="1.38446">
        <ele>143</ele>
        <time>2023-07-14T09:24:15Z</time>
      </trkpt>
      <trkpt lat="43.65078" lon="1.38442">
        <ele>143</ele>
        <time>2023-07-14T09:24:16Z</time>
      </trkpt>
      <trkpt lat="43.65078" lon="1.38439">
        <ele>143</ele>
        <time>2023-07-14T09:24:17Z</time>
      </trkpt>
      <trkpt lat="43.65075" lon="1.38431">
        <ele>143</ele>
        <time>2023-07-14T09:24:18Z</time>
      </trkpt>
      <trkpt lat="43.65075" lon="1.38431">
        <ele>143</ele>
        <time>2023-07-14T09:24:19Z</time>
      </trkpt>
      <trkpt lat="43.65074" lon="1.38428">
        <ele>143</ele>
        <time>2023-07-14T09:24:20Z</time>
      </trkpt>
      <trkpt lat="43.65073" lon="1.38425">
        <ele>143</ele>
        <time>2023-07-14T09:24:21Z</time>
      </trkpt>
      <trkpt lat="43.65072" lon="1.38421">
        <ele>143</ele>
        <time>2023-07-14T09:24:22Z</time>
      </trkpt>
      <trkpt lat="43.65071" lon="1.38418">
        <ele>143</ele>
        <time>2023-07-14T09:24:23Z</time>
      </trkpt>
      <trkpt lat="43.65071" lon="1.38414">
        <ele>143</ele>
        <time>2023-07-14T09:24:24Z</time>
      </trkpt>
      <trkpt lat="43.65069" lon="1.38407">
        <ele>143</ele>
        <time>2023-07-14T09:24:25Z</time>
      </trkpt>
      <trkpt lat="43.65069" lon="1.38407">
        <ele>143</ele>
        <time>2023-07-14T09:24:26Z</time>
      </trkpt>
      <trkpt lat="43.65068" lon="1.38403">
        <ele>143</ele>
        <time>2023-07-14T09:24:27Z</time>
      </trkpt>
      <trkpt lat="43.65066" lon="1.38399">
        <ele>143</ele>
        <time>2023-07-14T09:24:28Z</time>
      </trkpt>
      <trkpt lat="43.65065" lon="1.38392">
        <ele>143</ele>
        <time>2023-07-14T09:24:29Z</time>
      </trkpt>
      <trkpt lat="43.65065" lon="1.38392">
        <ele>143</ele>
        <time>2023-07-14T09:24:30Z</time>
      </trkpt>
      <trkpt lat="43.65064" lon="1.38388">
        <ele>143</ele>
        <time>2023-07-14T09:24:31Z</time>
      </trkpt>
      <trkpt lat="43.65063" lon="1.38384">
        <ele>143</ele>
        <time>2023-07-14T09:24:32Z</time>
      </trkpt>
      <trkpt lat="43.65061" lon="1.38377">
        <ele>143</ele>
        <time>2023-07-14T09:24:33Z</time>
      </trkpt>
      <trkpt lat="43.65061" lon="1.38377">
        <ele>143</ele>
        <time>2023-07-14T09:24:34Z</time>
      </trkpt>
      <trkpt lat="43.65059" lon="1.38374">
        <ele>143</ele>
        <time>2023-07-14T09:24:35Z</time>
      </trkpt>
      <trkpt lat="43.65058" lon="1.3837">
        <ele>143</ele>
        <time>2023-07-14T09:24:36Z</time>
      </trkpt>
      <trkpt lat="43.65056" lon="1.38366">
        <ele>143</ele>
        <time>2023-07-14T09:24:37Z</time>
      </trkpt>
      <trkpt lat="43.65055" lon="1.38363">
        <ele>143</ele>
        <time>2023-07-14T09:24:38Z</time>
      </trkpt>
      <trkpt lat="43.65054" lon="1.38359">
        <ele>142</ele>
        <time>2023-07-14T09:24:39Z</time>
      </trkpt>
      <trkpt lat="43.65053" lon="1.38356">
        <ele>142</ele>
        <time>2023-07-14T09:24:40Z</time>
      </trkpt>
      <trkpt lat="43.65052" lon="1.38352">
        <ele>143</ele>
        <time>2023-07-14T09:24:41Z</time>
      </trkpt>
      <trkpt lat="43.65051" lon="1.38349">
        <ele>143</ele>
        <time>2023-07-14T09:24:42Z</time>
      </trkpt>
      <trkpt lat="43.6505" lon="1.38345">
        <ele>143</ele>
        <time>2023-07-14T09:24:43Z</time>
      </trkpt>
      <trkpt lat="43.65048" lon="1.38337">
        <ele>143</ele>
        <time>2023-07-14T09:24:44Z</time>
      </trkpt>
      <trkpt lat="43.65048" lon="1.38337">
        <ele>143</ele>
        <time>2023-07-14T09:24:45Z</time>
      </trkpt>
      <trkpt lat="43.65047" lon="1.38334">
        <ele>143</ele>
        <time>2023-07-14T09:24:46Z</time>
      </trkpt>
      <trkpt lat="43.65046" lon="1.38331">
        <ele>143</ele>
        <time>2023-07-14T09:24:47Z</time>
      </trkpt>
      <trkpt lat="43.65044" lon="1.38323">
        <ele>143</ele>
        <time>2023-07-14T09:24:48Z</time>
      </trkpt>
      <trkpt lat="43.65044" lon="1.38323">
        <ele>143</ele>
        <time>2023-07-14T09:24:49Z</time>
      </trkpt>
      <trkpt lat="43.65042" lon="1.38319">
        <ele>143</ele>
        <time>2023-07-14T09:24:50Z</time>
      </trkpt>
      <trkpt lat="43.6504" lon="1.38312">
        <ele>143</ele>
        <time>2023-07-14T09:24:51Z</time>
      </trkpt>
      <trkpt lat="43.6504" lon="1.38312">
        <ele>143</ele>
        <time>2023-07-14T09:24:52Z</time>
      </trkpt>
      <trkpt lat="43.65038" lon="1.38308">
        <ele>143</ele>
        <time>2023-07-14T09:24:53Z</time>
      </trkpt>
      <trkpt lat="43.65037" lon="1.38305">
        <ele>143</ele>
        <time>2023-07-14T09:24:54Z</time>
      </trkpt>
      <trkpt lat="43.65036" lon="1.38301">
        <ele>143</ele>
        <time>2023-07-14T09:24:55Z</time>
      </trkpt>
      <trkpt lat="43.65035" lon="1.38297">
        <ele>143</ele>
        <time>2023-07-14T09:24:56Z</time>
      </trkpt>
      <trkpt lat="43.65034" lon="1.38293">
        <ele>143</ele>
        <time>2023-07-14T09:24:57Z</time>
      </trkpt>
      <trkpt lat="43.65032" lon="1.38286">
        <ele>143</ele>
        <time>2023-07-14T09:24:58Z</time>
      </trkpt>
      <trkpt lat="43.65032" lon="1.38286">
        <ele>143</ele>
        <time>2023-07-14T09:24:59Z</time>
      </trkpt>
      <trkpt lat="43.65031" lon="1.38283">
        <ele>143</ele>
        <time>2023-07-14T09:25:00Z</time>
      </trkpt>
      <trkpt lat="43.6503" lon="1.38279">
        <ele>144</ele>
        <time>2023-07-14T09:25:01Z</time>
      </trkpt>
      <trkpt lat="43.65029" lon="1.38276">
        <ele>144</ele>
        <time>2023-07-14T09:25:02Z</time>
      </trkpt>
      <trkpt lat="43.65028" lon="1.38273">
        <ele>143</ele>
        <time>2023-07-14T09:25:03Z</time>
      </trkpt>
      <trkpt lat="43.65027" lon="1.38269">
        <ele>143</ele>
        <time>2023-07-14T09:25:04Z</time>
      </trkpt>
      <trkpt lat="43.65026" lon="1.38265">
        <ele>143</ele>
        <time>2023-07-14T09:25:05Z</time>
      </trkpt>
      <trkpt lat="43.65025" lon="1.38262">
        <ele>143</ele>
        <time>2023-07-14T09:25:06Z</time>
      </trkpt>
      <trkpt lat="43.65022" lon="1.38254">
        <ele>143</ele>
        <time>2023-07-14T09:25:07Z</time>
      </trkpt>
      <trkpt lat="43.65022" lon="1.38254">
        <ele>143</ele>
        <time>2023-07-14T09:25:08Z</time>
      </trkpt>
      <trkpt lat="43.65021" lon="1.38251">
        <ele>143</ele>
        <time>2023-07-14T09:25:09Z</time>
      </trkpt>
      <trkpt lat="43.65021" lon="1.38248">
        <ele>143</ele>
        <time>2023-07-14T09:25:10Z</time>
      </trkpt>
      <trkpt lat="43.6502" lon="1.38244">
        <ele>143</ele>
        <time>2023-07-14T09:25:11Z</time>
      </trkpt>
      <trkpt lat="43.65019" lon="1.38241">
        <ele>143</ele>
        <time>2023-07-14T09:25:12Z</time>
      </trkpt>
      <trkpt lat="43.65017" lon="1.38237">
        <ele>143</ele>
        <time>2023-07-14T09:25:13Z</time>
      </trkpt>
      <trkpt lat="43.65016" lon="1.38233">
        <ele>143</ele>
        <time>2023-07-14T09:25:14Z</time>
      </trkpt>
      <trkpt lat="43.65015" lon="1.38229">
        <ele>143</ele>
        <time>2023-07-14T09:25:15Z</time>
      </trkpt>
      <trkpt lat="43.65014" lon="1.38226">
        <ele>143</ele>
        <time>2023-07-14T09:25:16Z</time>
      </trkpt>
      <trkpt lat="43.65013" lon="1.38222">
        <ele>143</ele>
        <time>2023-07-14T09:25:17Z</time>
      </trkpt>
      <trkpt lat="43.65012" lon="1.38219">
        <ele>143</ele>
        <time>2023-07-14T09:25:18Z</time>
      </trkpt>
      <trkpt lat="43.65011" lon="1.38215">
        <ele>143</ele>
        <time>2023-07-14T09:25:19Z</time>
      </trkpt>
      <trkpt lat="43.65009" lon="1.38208">
        <ele>143</ele>
        <time>2023-07-14T09:25:20Z</time>
      </trkpt>
      <trkpt lat="43.65009" lon="1.38208">
        <ele>143</ele>
        <time>2023-07-14T09:25:21Z</time>
      </trkpt>
      <trkpt lat="43.65007" lon="1.38205">
        <ele>144</ele>
        <time>2023-07-14T09:25:22Z</time>
      </trkpt>
      <trkpt lat="43.65006" lon="1.38201">
        <ele>144</ele>
        <time>2023-07-14T09:25:23Z</time>
      </trkpt>
      <trkpt lat="43.65005" lon="1.38198">
        <ele>144</ele>
        <time>2023-07-14T09:25:24Z</time>
      </trkpt>
      <trkpt lat="43.65004" lon="1.38195">
        <ele>143</ele>
        <time>2023-07-14T09:25:25Z</time>
      </trkpt>
      <trkpt lat="43.65004" lon="1.38195">
        <ele>143</ele>
        <time>2023-07-14T09:25:26Z</time>
      </trkpt>
      <trkpt lat="43.65003" lon="1.38193">
        <ele>143</ele>
        <time>2023-07-14T09:25:27Z</time>
      </trkpt>
    </trkseg>
  </trk>
</gpx>